<?xml version="1.0" encoding="UTF-8" standalone="no" ?>
<gpx xmlns="http://www.topografix.com/GPX/1/1" xmlns:xsi="http://www.w3.org/2001/XMLSchema-instance" xsi:schemaLocation="http://www.topografix.com/GPX/1/1 http://www.topografix.com/GPX/1/1/gpx.xsd" version="1.1" creator="VisuGPX - https://www.visugpx.com">
  <metadata>
    <name>Château de Moleans</name>
  </metadata>
  <trk>
    <name><![CDATA[Château de Moleans]]></name>
    <extensions>
      <line xmlns="http://www.topografix.com/GPX/gpx_style/0/2">
        <color>0000FF</color>
        <width>4</width>
      </line>
    </extensions>
    <trkseg>
      <trkpt lat="47.98994" lon="1.83678">
        <ele>123.444297</ele>
        <time>2024-07-30T18:24:01.649Z</time>
      </trkpt>
      <trkpt lat="47.98984" lon="1.8368">
        <ele>123.444297</ele>
        <time>2024-07-30T18:24:12.903Z</time>
      </trkpt>
      <trkpt lat="47.9898" lon="1.83658">
        <ele>123.444297</ele>
        <time>2024-07-30T18:24:29.199Z</time>
      </trkpt>
      <trkpt lat="47.98965" lon="1.83679">
        <ele>123.444297</ele>
        <time>2024-07-30T18:24:32.315Z</time>
      </trkpt>
      <trkpt lat="47.98962" lon="1.83668">
        <ele>123.444297</ele>
        <time>2024-07-30T18:24:33.502Z</time>
      </trkpt>
      <trkpt lat="47.98966" lon="1.83666">
        <ele>123.444297</ele>
        <time>2024-07-30T18:24:34.289Z</time>
      </trkpt>
      <trkpt lat="47.98943" lon="1.83565">
        <ele>123.510176</ele>
        <time>2024-07-30T18:24:49.198Z</time>
      </trkpt>
      <trkpt lat="47.98942" lon="1.83555">
        <ele>123.522663</ele>
        <time>2024-07-30T18:24:50.779Z</time>
      </trkpt>
      <trkpt lat="47.98943" lon="1.83531">
        <ele>123.550344</ele>
        <time>2024-07-30T18:24:54.127Z</time>
      </trkpt>
      <trkpt lat="47.98959" lon="1.8353">
        <ele>123.57755</ele>
        <time>2024-07-30T18:24:57.459Z</time>
      </trkpt>
      <trkpt lat="47.98964" lon="1.83525">
        <ele>123.588312</ele>
        <time>2024-07-30T18:24:58.798Z</time>
      </trkpt>
      <trkpt lat="47.98966" lon="1.83476">
        <ele>123.644375</ele>
        <time>2024-07-30T18:25:05.724Z</time>
      </trkpt>
      <trkpt lat="47.98966" lon="1.8347">
        <ele>123.652095</ele>
        <time>2024-07-30T18:25:06.670Z</time>
      </trkpt>
      <trkpt lat="47.98975" lon="1.83465">
        <ele>123.668035</ele>
        <time>2024-07-30T18:25:08.567Z</time>
      </trkpt>
      <trkpt lat="47.98993" lon="1.83443">
        <ele>123.707748</ele>
        <time>2024-07-30T18:25:13.476Z</time>
      </trkpt>
      <trkpt lat="47.99026" lon="1.83417">
        <ele>123.744588</ele>
        <time>2024-07-30T18:25:21.328Z</time>
      </trkpt>
      <trkpt lat="47.99036" lon="1.83188">
        <ele>123.606699</ele>
        <time>2024-07-30T18:25:43.294Z</time>
      </trkpt>
      <trkpt lat="47.99033" lon="1.83071">
        <ele>123.391418</ele>
        <time>2024-07-30T18:25:54.008Z</time>
      </trkpt>
      <trkpt lat="47.99027" lon="1.82971">
        <ele>123.176728</ele>
        <time>2024-07-30T18:26:03.364Z</time>
      </trkpt>
      <trkpt lat="47.9898" lon="1.82734">
        <ele>122.395468</ele>
        <time>2024-07-30T18:26:25.858Z</time>
      </trkpt>
      <trkpt lat="47.98944" lon="1.82509">
        <ele>121.329853</ele>
        <time>2024-07-30T18:26:45.262Z</time>
      </trkpt>
      <trkpt lat="47.98915" lon="1.82357">
        <ele>120.537623</ele>
        <time>2024-07-30T18:26:58.556Z</time>
      </trkpt>
      <trkpt lat="47.98889" lon="1.82189">
        <ele>119.99689</ele>
        <time>2024-07-30T18:27:14.115Z</time>
      </trkpt>
      <trkpt lat="47.98868" lon="1.81998">
        <ele>119.512569</ele>
        <time>2024-07-30T18:27:31.612Z</time>
      </trkpt>
      <trkpt lat="47.98853" lon="1.81869">
        <ele>119.233395</ele>
        <time>2024-07-30T18:27:43.765Z</time>
      </trkpt>
      <trkpt lat="47.98845" lon="1.81795">
        <ele>119.197224</ele>
        <time>2024-07-30T18:27:50.860Z</time>
      </trkpt>
      <trkpt lat="47.98843" lon="1.81746">
        <ele>119.196614</ele>
        <time>2024-07-30T18:27:55.541Z</time>
      </trkpt>
      <trkpt lat="47.98849" lon="1.81404">
        <ele>119.088718</ele>
        <time>2024-07-30T18:28:30.314Z</time>
      </trkpt>
      <trkpt lat="47.98841" lon="1.81193">
        <ele>118.877219</ele>
        <time>2024-07-30T18:28:49.539Z</time>
      </trkpt>
      <trkpt lat="47.9884" lon="1.81189">
        <ele>118.872681</ele>
        <time>2024-07-30T18:28:49.844Z</time>
      </trkpt>
      <trkpt lat="47.98835" lon="1.81076">
        <ele>118.726281</ele>
        <time>2024-07-30T18:29:00.693Z</time>
      </trkpt>
      <trkpt lat="47.98826" lon="1.80869">
        <ele>119.094819</ele>
        <time>2024-07-30T18:29:22.325Z</time>
      </trkpt>
      <trkpt lat="47.98826" lon="1.80834">
        <ele>119.173699</ele>
        <time>2024-07-30T18:29:26.425Z</time>
      </trkpt>
      <trkpt lat="47.98829" lon="1.8081">
        <ele>119.228705</ele>
        <time>2024-07-30T18:29:29.278Z</time>
      </trkpt>
      <trkpt lat="47.98854" lon="1.80727">
        <ele>119.55158</ele>
        <time>2024-07-30T18:29:40.016Z</time>
      </trkpt>
      <trkpt lat="47.98889" lon="1.80635">
        <ele>119.995942</ele>
        <time>2024-07-30T18:29:52.328Z</time>
      </trkpt>
      <trkpt lat="47.98919" lon="1.80576">
        <ele>120.308714</ele>
        <time>2024-07-30T18:30:00.918Z</time>
      </trkpt>
      <trkpt lat="47.98944" lon="1.8054">
        <ele>120.508461</ele>
        <time>2024-07-30T18:30:06.843Z</time>
      </trkpt>
      <trkpt lat="47.98971" lon="1.80499">
        <ele>120.717768</ele>
        <time>2024-07-30T18:30:13.600Z</time>
      </trkpt>
      <trkpt lat="47.98981" lon="1.80469">
        <ele>120.835682</ele>
        <time>2024-07-30T18:30:17.348Z</time>
      </trkpt>
      <trkpt lat="47.98983" lon="1.80419">
        <ele>121.018528</ele>
        <time>2024-07-30T18:30:23.153Z</time>
      </trkpt>
      <trkpt lat="47.98975" lon="1.8038">
        <ele>121.163838</ele>
        <time>2024-07-30T18:30:27.730Z</time>
      </trkpt>
      <trkpt lat="47.98963" lon="1.80332">
        <ele>121.347491</ele>
        <time>2024-07-30T18:30:33.391Z</time>
      </trkpt>
      <trkpt lat="47.98956" lon="1.80293">
        <ele>121.457275</ele>
        <time>2024-07-30T18:30:37.786Z</time>
      </trkpt>
      <trkpt lat="47.98945" lon="1.80194">
        <ele>121.689877</ele>
        <time>2024-07-30T18:30:48.557Z</time>
      </trkpt>
      <trkpt lat="47.98915" lon="1.79887">
        <ele>122.26163</ele>
        <time>2024-07-30T18:31:22.191Z</time>
      </trkpt>
      <trkpt lat="47.98903" lon="1.79838">
        <ele>122.336157</ele>
        <time>2024-07-30T18:31:27.527Z</time>
      </trkpt>
      <trkpt lat="47.98889" lon="1.79801">
        <ele>122.39889</ele>
        <time>2024-07-30T18:31:31.931Z</time>
      </trkpt>
      <trkpt lat="47.98863" lon="1.7976">
        <ele>122.374105</ele>
        <time>2024-07-30T18:31:37.456Z</time>
      </trkpt>
      <trkpt lat="47.9874" lon="1.79578">
        <ele>122.314666</ele>
        <time>2024-07-30T18:32:02.060Z</time>
      </trkpt>
      <trkpt lat="47.98718" lon="1.79545">
        <ele>122.382106</ele>
        <time>2024-07-30T18:32:06.703Z</time>
      </trkpt>
      <trkpt lat="47.98469" lon="1.79166">
        <ele>123.660888</ele>
        <time>2024-07-30T18:33:04.723Z</time>
      </trkpt>
      <trkpt lat="47.98446" lon="1.79127">
        <ele>123.884091</ele>
        <time>2024-07-30T18:33:10.782Z</time>
      </trkpt>
      <trkpt lat="47.98434" lon="1.79102">
        <ele>124.017025</ele>
        <time>2024-07-30T18:33:14.482Z</time>
      </trkpt>
      <trkpt lat="47.98413" lon="1.79035">
        <ele>124.334019</ele>
        <time>2024-07-30T18:33:23.443Z</time>
      </trkpt>
      <trkpt lat="47.9834" lon="1.78785">
        <ele>125.673589</ele>
        <time>2024-07-30T18:33:56.604Z</time>
      </trkpt>
      <trkpt lat="47.98339" lon="1.78781">
        <ele>125.695574</ele>
        <time>2024-07-30T18:33:57.100Z</time>
      </trkpt>
      <trkpt lat="47.98331" lon="1.78756">
        <ele>125.80177</ele>
        <time>2024-07-30T18:34:00.152Z</time>
      </trkpt>
      <trkpt lat="47.98307" lon="1.7868">
        <ele>125.873058</ele>
        <time>2024-07-30T18:34:09.309Z</time>
      </trkpt>
      <trkpt lat="47.98266" lon="1.78574">
        <ele>125.9778</ele>
        <time>2024-07-30T18:34:21.709Z</time>
      </trkpt>
      <trkpt lat="47.98223" lon="1.7848">
        <ele>125.905244</ele>
        <time>2024-07-30T18:34:32.208Z</time>
      </trkpt>
      <trkpt lat="47.98194" lon="1.78441">
        <ele>125.786449</ele>
        <time>2024-07-30T18:34:37.555Z</time>
      </trkpt>
      <trkpt lat="47.98185" lon="1.78421">
        <ele>125.737359</ele>
        <time>2024-07-30T18:34:39.807Z</time>
      </trkpt>
      <trkpt lat="47.98279" lon="1.78414">
        <ele>125.447142</ele>
        <time>2024-07-30T18:34:52.589Z</time>
      </trkpt>
      <trkpt lat="47.98284" lon="1.78414">
        <ele>125.425285</ele>
        <time>2024-07-30T18:34:53.380Z</time>
      </trkpt>
      <trkpt lat="47.98333" lon="1.78411">
        <ele>125.246968</ele>
        <time>2024-07-30T18:34:59.816Z</time>
      </trkpt>
      <trkpt lat="47.98488" lon="1.784">
        <ele>124.634424</ele>
        <time>2024-07-30T18:35:21.034Z</time>
      </trkpt>
      <trkpt lat="47.98551" lon="1.78397">
        <ele>124.342441</ele>
        <time>2024-07-30T18:35:29.431Z</time>
      </trkpt>
      <trkpt lat="47.9856" lon="1.78396">
        <ele>124.303515</ele>
        <time>2024-07-30T18:35:30.535Z</time>
      </trkpt>
      <trkpt lat="47.98709" lon="1.78371">
        <ele>123.557658</ele>
        <time>2024-07-30T18:35:50.650Z</time>
      </trkpt>
      <trkpt lat="47.98739" lon="1.78367">
        <ele>123.402536</ele>
        <time>2024-07-30T18:35:54.456Z</time>
      </trkpt>
      <trkpt lat="47.98816" lon="1.78373">
        <ele>123.012809</ele>
        <time>2024-07-30T18:36:04.468Z</time>
      </trkpt>
      <trkpt lat="47.98839" lon="1.78371">
        <ele>122.935721</ele>
        <time>2024-07-30T18:36:07.542Z</time>
      </trkpt>
      <trkpt lat="47.9886" lon="1.78364">
        <ele>122.864689</ele>
        <time>2024-07-30T18:36:10.401Z</time>
      </trkpt>
      <trkpt lat="47.98875" lon="1.78355">
        <ele>122.807864</ele>
        <time>2024-07-30T18:36:12.704Z</time>
      </trkpt>
      <trkpt lat="47.98919" lon="1.78314">
        <ele>122.635926</ele>
        <time>2024-07-30T18:36:19.785Z</time>
      </trkpt>
      <trkpt lat="47.9895" lon="1.7829">
        <ele>122.519783</ele>
        <time>2024-07-30T18:36:24.578Z</time>
      </trkpt>
      <trkpt lat="47.99067" lon="1.78246">
        <ele>122.763325</ele>
        <time>2024-07-30T18:36:42.605Z</time>
      </trkpt>
      <trkpt lat="47.99104" lon="1.78229">
        <ele>122.895444</ele>
        <time>2024-07-30T18:36:49.060Z</time>
      </trkpt>
      <trkpt lat="47.99232" lon="1.78148">
        <ele>123.814315</ele>
        <time>2024-07-30T18:37:14.628Z</time>
      </trkpt>
      <trkpt lat="47.99263" lon="1.78133">
        <ele>124.081481</ele>
        <time>2024-07-30T18:37:20.615Z</time>
      </trkpt>
      <trkpt lat="47.9929" lon="1.78126">
        <ele>124.308329</ele>
        <time>2024-07-30T18:37:25.617Z</time>
      </trkpt>
      <trkpt lat="47.99296" lon="1.78123">
        <ele>124.3596</ele>
        <time>2024-07-30T18:37:26.705Z</time>
      </trkpt>
      <trkpt lat="47.99451" lon="1.78075">
        <ele>125.242895</ele>
        <time>2024-07-30T18:37:53.837Z</time>
      </trkpt>
      <trkpt lat="47.99486" lon="1.78068">
        <ele>125.427853</ele>
        <time>2024-07-30T18:37:59.673Z</time>
      </trkpt>
      <trkpt lat="47.99501" lon="1.78071">
        <ele>125.455099</ele>
        <time>2024-07-30T18:38:02.023Z</time>
      </trkpt>
      <trkpt lat="47.99524" lon="1.78081">
        <ele>125.433927</ele>
        <time>2024-07-30T18:38:05.908Z</time>
      </trkpt>
      <trkpt lat="47.99617" lon="1.78142">
        <ele>125.346939</ele>
        <time>2024-07-30T18:38:20.829Z</time>
      </trkpt>
      <trkpt lat="47.99629" lon="1.78151">
        <ele>125.33515</ele>
        <time>2024-07-30T18:38:22.677Z</time>
      </trkpt>
      <trkpt lat="47.99646" lon="1.7816">
        <ele>125.320132</ele>
        <time>2024-07-30T18:38:25.032Z</time>
      </trkpt>
      <trkpt lat="47.99671" lon="1.7816">
        <ele>125.213122</ele>
        <time>2024-07-30T18:38:28.420Z</time>
      </trkpt>
      <trkpt lat="47.99699" lon="1.78152">
        <ele>124.972294</ele>
        <time>2024-07-30T18:38:32.035Z</time>
      </trkpt>
      <trkpt lat="47.99722" lon="1.78146">
        <ele>124.768593</ele>
        <time>2024-07-30T18:38:35.023Z</time>
      </trkpt>
      <trkpt lat="47.99739" lon="1.78139">
        <ele>124.613703</ele>
        <time>2024-07-30T18:38:37.193Z</time>
      </trkpt>
      <trkpt lat="47.99833" lon="1.7807">
        <ele>123.728602</ele>
        <time>2024-07-30T18:38:49.866Z</time>
      </trkpt>
      <trkpt lat="47.99859" lon="1.78044">
        <ele>123.619649</ele>
        <time>2024-07-30T18:38:53.709Z</time>
      </trkpt>
      <trkpt lat="47.99877" lon="1.7802">
        <ele>123.532263</ele>
        <time>2024-07-30T18:38:56.866Z</time>
      </trkpt>
      <trkpt lat="47.99884" lon="1.78007">
        <ele>123.493621</ele>
        <time>2024-07-30T18:38:58.345Z</time>
      </trkpt>
      <trkpt lat="47.99902" lon="1.77981">
        <ele>123.404116</ele>
        <time>2024-07-30T18:39:01.703Z</time>
      </trkpt>
      <trkpt lat="47.99914" lon="1.7797">
        <ele>123.355211</ele>
        <time>2024-07-30T18:39:03.637Z</time>
      </trkpt>
      <trkpt lat="48.00039" lon="1.77892">
        <ele>123.336199</ele>
        <time>2024-07-30T18:39:24.375Z</time>
      </trkpt>
      <trkpt lat="48.00056" lon="1.77878">
        <ele>123.402624</ele>
        <time>2024-07-30T18:39:27.726Z</time>
      </trkpt>
      <trkpt lat="48.00065" lon="1.77864">
        <ele>123.448536</ele>
        <time>2024-07-30T18:39:30.033Z</time>
      </trkpt>
      <trkpt lat="48.00092" lon="1.77815">
        <ele>123.591958</ele>
        <time>2024-07-30T18:39:37.164Z</time>
      </trkpt>
      <trkpt lat="48.00108" lon="1.77781">
        <ele>123.687235</ele>
        <time>2024-07-30T18:39:41.800Z</time>
      </trkpt>
      <trkpt lat="48.00127" lon="1.7775">
        <ele>123.691627</ele>
        <time>2024-07-30T18:39:46.424Z</time>
      </trkpt>
      <trkpt lat="48.00173" lon="1.77697">
        <ele>123.577176</ele>
        <time>2024-07-30T18:39:55.655Z</time>
      </trkpt>
      <trkpt lat="48.0018" lon="1.77688">
        <ele>123.560311</ele>
        <time>2024-07-30T18:39:56.954Z</time>
      </trkpt>
      <trkpt lat="48.0019" lon="1.77674">
        <ele>123.532903</ele>
        <time>2024-07-30T18:39:58.970Z</time>
      </trkpt>
      <trkpt lat="48.00235" lon="1.77615">
        <ele>123.416301</ele>
        <time>2024-07-30T18:40:07.008Z</time>
      </trkpt>
      <trkpt lat="48.00259" lon="1.77583">
        <ele>123.221138</ele>
        <time>2024-07-30T18:40:11.024Z</time>
      </trkpt>
      <trkpt lat="48.00265" lon="1.77568">
        <ele>123.058855</ele>
        <time>2024-07-30T18:40:12.377Z</time>
      </trkpt>
      <trkpt lat="48.00266" lon="1.77557">
        <ele>122.950144</ele>
        <time>2024-07-30T18:40:13.271Z</time>
      </trkpt>
      <trkpt lat="48.00267" lon="1.77488">
        <ele>122.271403</ele>
        <time>2024-07-30T18:40:18.735Z</time>
      </trkpt>
      <trkpt lat="48.00272" lon="1.774">
        <ele>121.416481</ele>
        <time>2024-07-30T18:40:25.410Z</time>
      </trkpt>
      <trkpt lat="48.00282" lon="1.77359">
        <ele>121.000778</ele>
        <time>2024-07-30T18:40:28.582Z</time>
      </trkpt>
      <trkpt lat="48.00364" lon="1.77124">
        <ele>118.350535</ele>
        <time>2024-07-30T18:40:48.675Z</time>
      </trkpt>
      <trkpt lat="48.00447" lon="1.76885">
        <ele>117.263826</ele>
        <time>2024-07-30T18:41:12.338Z</time>
      </trkpt>
      <trkpt lat="48.00473" lon="1.76817">
        <ele>117.171975</ele>
        <time>2024-07-30T18:41:20.104Z</time>
      </trkpt>
      <trkpt lat="48.00522" lon="1.76712">
        <ele>117.173709</ele>
        <time>2024-07-30T18:41:32.892Z</time>
      </trkpt>
      <trkpt lat="48.00527" lon="1.76692">
        <ele>117.174003</ele>
        <time>2024-07-30T18:41:35.087Z</time>
      </trkpt>
      <trkpt lat="48.00529" lon="1.76678">
        <ele>117.174198</ele>
        <time>2024-07-30T18:41:36.590Z</time>
      </trkpt>
      <trkpt lat="48.00527" lon="1.76639">
        <ele>117.174725</ele>
        <time>2024-07-30T18:41:40.530Z</time>
      </trkpt>
      <trkpt lat="48.00531" lon="1.76602">
        <ele>117.200059</ele>
        <time>2024-07-30T18:41:44.464Z</time>
      </trkpt>
      <trkpt lat="48.0059" lon="1.76257">
        <ele>117.520803</ele>
        <time>2024-07-30T18:42:21.352Z</time>
      </trkpt>
      <trkpt lat="48.00591" lon="1.76179">
        <ele>117.552983</ele>
        <time>2024-07-30T18:42:29.125Z</time>
      </trkpt>
      <trkpt lat="48.00579" lon="1.76037">
        <ele>117.574635</ele>
        <time>2024-07-30T18:42:43.238Z</time>
      </trkpt>
      <trkpt lat="48.00582" lon="1.75965">
        <ele>117.560886</ele>
        <time>2024-07-30T18:42:50.231Z</time>
      </trkpt>
      <trkpt lat="48.00588" lon="1.75888">
        <ele>117.546184</ele>
        <time>2024-07-30T18:42:57.755Z</time>
      </trkpt>
      <trkpt lat="48.00611" lon="1.75696">
        <ele>117.614955</ele>
        <time>2024-07-30T18:43:17.456Z</time>
      </trkpt>
      <trkpt lat="48.0063" lon="1.75555">
        <ele>117.698749</ele>
        <time>2024-07-30T18:43:32.041Z</time>
      </trkpt>
      <trkpt lat="48.0066" lon="1.75264">
        <ele>117.862127</ele>
        <time>2024-07-30T18:44:02.044Z</time>
      </trkpt>
      <trkpt lat="48.00677" lon="1.75068">
        <ele>117.860449</ele>
        <time>2024-07-30T18:44:21.861Z</time>
      </trkpt>
      <trkpt lat="48.00683" lon="1.74998">
        <ele>117.775573</ele>
        <time>2024-07-30T18:44:28.683Z</time>
      </trkpt>
      <trkpt lat="48.00696" lon="1.74912">
        <ele>117.577688</ele>
        <time>2024-07-30T18:44:36.921Z</time>
      </trkpt>
      <trkpt lat="48.00714" lon="1.7485">
        <ele>117.423456</ele>
        <time>2024-07-30T18:44:43.109Z</time>
      </trkpt>
      <trkpt lat="48.0072" lon="1.7483">
        <ele>117.375311</ele>
        <time>2024-07-30T18:44:44.968Z</time>
      </trkpt>
      <trkpt lat="48.00761" lon="1.74721">
        <ele>116.998045</ele>
        <time>2024-07-30T18:44:55.991Z</time>
      </trkpt>
      <trkpt lat="48.00799" lon="1.7462">
        <ele>116.584176</ele>
        <time>2024-07-30T18:45:06.006Z</time>
      </trkpt>
      <trkpt lat="48.00862" lon="1.74459">
        <ele>116.164922</ele>
        <time>2024-07-30T18:45:22.815Z</time>
      </trkpt>
      <trkpt lat="48.00898" lon="1.74392">
        <ele>116.061921</ele>
        <time>2024-07-30T18:45:31.047Z</time>
      </trkpt>
      <trkpt lat="48.00925" lon="1.74349">
        <ele>115.989832</ele>
        <time>2024-07-30T18:45:36.963Z</time>
      </trkpt>
      <trkpt lat="48.01027" lon="1.7419">
        <ele>116.517147</ele>
        <time>2024-07-30T18:46:00.097Z</time>
      </trkpt>
      <trkpt lat="48.01057" lon="1.74143">
        <ele>116.693472</ele>
        <time>2024-07-30T18:46:07.921Z</time>
      </trkpt>
      <trkpt lat="48.01065" lon="1.74129">
        <ele>116.847748</ele>
        <time>2024-07-30T18:46:10.215Z</time>
      </trkpt>
      <trkpt lat="48.01066" lon="1.74122">
        <ele>116.911666</ele>
        <time>2024-07-30T18:46:11.056Z</time>
      </trkpt>
      <trkpt lat="48.01064" lon="1.74112">
        <ele>117.017046</ele>
        <time>2024-07-30T18:46:12.480Z</time>
      </trkpt>
      <trkpt lat="48.01041" lon="1.74064">
        <ele>117.554473</ele>
        <time>2024-07-30T18:46:20.273Z</time>
      </trkpt>
      <trkpt lat="48.01033" lon="1.74042">
        <ele>117.785652</ele>
        <time>2024-07-30T18:46:23.772Z</time>
      </trkpt>
      <trkpt lat="48.01015" lon="1.73999">
        <ele>118.24921</ele>
        <time>2024-07-30T18:46:30.764Z</time>
      </trkpt>
      <trkpt lat="48.00997" lon="1.73943">
        <ele>118.825427</ele>
        <time>2024-07-30T18:46:39.545Z</time>
      </trkpt>
      <trkpt lat="48.01003" lon="1.7394">
        <ele>118.905475</ele>
        <time>2024-07-30T18:46:40.741Z</time>
      </trkpt>
      <trkpt lat="48.01005" lon="1.7393">
        <ele>119.005381</ele>
        <time>2024-07-30T18:46:42.289Z</time>
      </trkpt>
      <trkpt lat="48.01001" lon="1.73924">
        <ele>119.073759</ele>
        <time>2024-07-30T18:46:43.440Z</time>
      </trkpt>
      <trkpt lat="48.00996" lon="1.73924">
        <ele>119.142701</ele>
        <time>2024-07-30T18:46:44.550Z</time>
      </trkpt>
      <trkpt lat="48.00993" lon="1.73928">
        <ele>119.203897</ele>
        <time>2024-07-30T18:46:45.362Z</time>
      </trkpt>
      <trkpt lat="48.0097" lon="1.73898">
        <ele>119.710831</ele>
        <time>2024-07-30T18:46:52.149Z</time>
      </trkpt>
      <trkpt lat="48.00863" lon="1.73795">
        <ele>121.80684</ele>
        <time>2024-07-30T18:47:19.795Z</time>
      </trkpt>
      <trkpt lat="48.0082" lon="1.73745">
        <ele>122.51852</ele>
        <time>2024-07-30T18:47:30.727Z</time>
      </trkpt>
      <trkpt lat="48.00778" lon="1.7369">
        <ele>123.133169</ele>
        <time>2024-07-30T18:47:41.862Z</time>
      </trkpt>
      <trkpt lat="48.00773" lon="1.73683">
        <ele>123.203379</ele>
        <time>2024-07-30T18:47:43.037Z</time>
      </trkpt>
      <trkpt lat="48.00757" lon="1.73659">
        <ele>123.455054</ele>
        <time>2024-07-30T18:47:47.460Z</time>
      </trkpt>
      <trkpt lat="48.00683" lon="1.73553">
        <ele>124.235601</ele>
        <time>2024-07-30T18:48:05.842Z</time>
      </trkpt>
      <trkpt lat="48.00509" lon="1.73344">
        <ele>124.692369</ele>
        <time>2024-07-30T18:48:39.858Z</time>
      </trkpt>
      <trkpt lat="48.00269" lon="1.72894">
        <ele>125.054945</ele>
        <time>2024-07-30T18:49:38.332Z</time>
      </trkpt>
      <trkpt lat="48.00199" lon="1.72764">
        <ele>125.294216</ele>
        <time>2024-07-30T18:49:55.717Z</time>
      </trkpt>
      <trkpt lat="48.00134" lon="1.72634">
        <ele>125.680702</ele>
        <time>2024-07-30T18:50:13.605Z</time>
      </trkpt>
      <trkpt lat="48.00125" lon="1.72609">
        <ele>125.748484</ele>
        <time>2024-07-30T18:50:16.691Z</time>
      </trkpt>
      <trkpt lat="48.00106" lon="1.72506">
        <ele>125.837945</ele>
        <time>2024-07-30T18:50:28.181Z</time>
      </trkpt>
      <trkpt lat="48.00098" lon="1.72485">
        <ele>125.851446</ele>
        <time>2024-07-30T18:50:30.660Z</time>
      </trkpt>
      <trkpt lat="48.0009" lon="1.72473">
        <ele>125.86117</ele>
        <time>2024-07-30T18:50:32.415Z</time>
      </trkpt>
      <trkpt lat="48.00046" lon="1.72427">
        <ele>125.907196</ele>
        <time>2024-07-30T18:50:40.622Z</time>
      </trkpt>
      <trkpt lat="48.00028" lon="1.72404">
        <ele>125.92719</ele>
        <time>2024-07-30T18:50:44.019Z</time>
      </trkpt>
      <trkpt lat="48.00009" lon="1.72375">
        <ele>125.85321</ele>
        <time>2024-07-30T18:50:47.882Z</time>
      </trkpt>
      <trkpt lat="47.99986" lon="1.72332">
        <ele>125.623164</ele>
        <time>2024-07-30T18:50:52.749Z</time>
      </trkpt>
      <trkpt lat="47.99903" lon="1.7217">
        <ele>124.748571</ele>
        <time>2024-07-30T18:51:10.077Z</time>
      </trkpt>
      <trkpt lat="47.99791" lon="1.71938">
        <ele>123.025197</ele>
        <time>2024-07-30T18:51:33.671Z</time>
      </trkpt>
      <trkpt lat="47.99699" lon="1.71747">
        <ele>121.690425</ele>
        <time>2024-07-30T18:51:53.259Z</time>
      </trkpt>
      <trkpt lat="47.99683" lon="1.71722">
        <ele>121.598332</ele>
        <time>2024-07-30T18:51:56.262Z</time>
      </trkpt>
      <trkpt lat="47.99637" lon="1.71643">
        <ele>121.380063</ele>
        <time>2024-07-30T18:52:05.657Z</time>
      </trkpt>
      <trkpt lat="47.99485" lon="1.71456">
        <ele>121.050096</ele>
        <time>2024-07-30T18:52:34.727Z</time>
      </trkpt>
      <trkpt lat="47.99475" lon="1.71444">
        <ele>121.044065</ele>
        <time>2024-07-30T18:52:36.685Z</time>
      </trkpt>
      <trkpt lat="47.99751" lon="1.70652">
        <ele>120.39767</ele>
        <time>2024-07-30T18:54:02.219Z</time>
      </trkpt>
      <trkpt lat="47.99817" lon="1.70465">
        <ele>120.968831</ele>
        <time>2024-07-30T18:54:24.820Z</time>
      </trkpt>
      <trkpt lat="47.9983" lon="1.70428">
        <ele>121.082295</ele>
        <time>2024-07-30T18:54:29.741Z</time>
      </trkpt>
      <trkpt lat="47.99872" lon="1.70307">
        <ele>122.120173</ele>
        <time>2024-07-30T18:54:47.339Z</time>
      </trkpt>
      <trkpt lat="47.99933" lon="1.70131">
        <ele>123.550439</ele>
        <time>2024-07-30T18:55:15.227Z</time>
      </trkpt>
      <trkpt lat="47.99986" lon="1.69981">
        <ele>124.101379</ele>
        <time>2024-07-30T18:55:34.091Z</time>
      </trkpt>
      <trkpt lat="47.99951" lon="1.69954">
        <ele>124.241273</ele>
        <time>2024-07-30T18:55:39.766Z</time>
      </trkpt>
      <trkpt lat="47.99909" lon="1.69906">
        <ele>123.826934</ele>
        <time>2024-07-30T18:55:46.636Z</time>
      </trkpt>
      <trkpt lat="47.99792" lon="1.69775">
        <ele>122.662739</ele>
        <time>2024-07-30T18:56:04.420Z</time>
      </trkpt>
      <trkpt lat="47.99754" lon="1.69739">
        <ele>122.2905</ele>
        <time>2024-07-30T18:56:10.005Z</time>
      </trkpt>
      <trkpt lat="47.99709" lon="1.69695">
        <ele>121.84089</ele>
        <time>2024-07-30T18:56:16.799Z</time>
      </trkpt>
      <trkpt lat="47.99704" lon="1.69693">
        <ele>121.796658</ele>
        <time>2024-07-30T18:56:17.461Z</time>
      </trkpt>
      <trkpt lat="47.99645" lon="1.69641">
        <ele>121.258642</ele>
        <time>2024-07-30T18:56:26.127Z</time>
      </trkpt>
      <trkpt lat="47.99618" lon="1.69623">
        <ele>121.064977</ele>
        <time>2024-07-30T18:56:29.882Z</time>
      </trkpt>
      <trkpt lat="47.99567" lon="1.69594">
        <ele>120.703529</ele>
        <time>2024-07-30T18:56:36.931Z</time>
      </trkpt>
      <trkpt lat="47.99425" lon="1.6951">
        <ele>119.835568</ele>
        <time>2024-07-30T18:56:56.959Z</time>
      </trkpt>
      <trkpt lat="47.99365" lon="1.6947">
        <ele>119.52386</ele>
        <time>2024-07-30T18:57:05.624Z</time>
      </trkpt>
      <trkpt lat="47.99336" lon="1.6945">
        <ele>119.37136</ele>
        <time>2024-07-30T18:57:09.904Z</time>
      </trkpt>
      <trkpt lat="47.9931" lon="1.69433">
        <ele>119.280872</ele>
        <time>2024-07-30T18:57:13.753Z</time>
      </trkpt>
      <trkpt lat="47.99136" lon="1.69297">
        <ele>118.928016</ele>
        <time>2024-07-30T18:57:41.311Z</time>
      </trkpt>
      <trkpt lat="47.98912" lon="1.69136">
        <ele>119.196931</ele>
        <time>2024-07-30T18:58:19.841Z</time>
      </trkpt>
      <trkpt lat="47.9886" lon="1.69102">
        <ele>119.286626</ele>
        <time>2024-07-30T18:58:28.641Z</time>
      </trkpt>
      <trkpt lat="47.9878" lon="1.69063">
        <ele>119.464025</ele>
        <time>2024-07-30T18:58:41.595Z</time>
      </trkpt>
      <trkpt lat="47.98664" lon="1.69015">
        <ele>119.744715</ele>
        <time>2024-07-30T18:59:00.504Z</time>
      </trkpt>
      <trkpt lat="47.98507" lon="1.68951">
        <ele>120.420446</ele>
        <time>2024-07-30T18:59:27.690Z</time>
      </trkpt>
      <trkpt lat="47.9841" lon="1.6891">
        <ele>120.705289</ele>
        <time>2024-07-30T18:59:44.420Z</time>
      </trkpt>
      <trkpt lat="47.9839" lon="1.68899">
        <ele>120.760561</ele>
        <time>2024-07-30T18:59:47.720Z</time>
      </trkpt>
      <trkpt lat="47.98378" lon="1.68888">
        <ele>120.798724</ele>
        <time>2024-07-30T18:59:49.976Z</time>
      </trkpt>
      <trkpt lat="47.9836" lon="1.68847">
        <ele>120.885251</ele>
        <time>2024-07-30T18:59:54.912Z</time>
      </trkpt>
      <trkpt lat="47.98316" lon="1.68731">
        <ele>120.93924</ele>
        <time>2024-07-30T19:00:07.733Z</time>
      </trkpt>
      <trkpt lat="47.98279" lon="1.6864">
        <ele>120.933227</ele>
        <time>2024-07-30T19:00:17.992Z</time>
      </trkpt>
      <trkpt lat="47.98249" lon="1.68568">
        <ele>121.016532</ele>
        <time>2024-07-30T19:00:26.922Z</time>
      </trkpt>
      <trkpt lat="47.98239" lon="1.68549">
        <ele>121.103931</ele>
        <time>2024-07-30T19:00:29.332Z</time>
      </trkpt>
      <trkpt lat="47.9817" lon="1.68399">
        <ele>121.786248</ele>
        <time>2024-07-30T19:00:50.445Z</time>
      </trkpt>
      <trkpt lat="47.98147" lon="1.68326">
        <ele>122.117721</ele>
        <time>2024-07-30T19:01:00.254Z</time>
      </trkpt>
      <trkpt lat="47.98141" lon="1.68297">
        <ele>122.254136</ele>
        <time>2024-07-30T19:01:04.081Z</time>
      </trkpt>
      <trkpt lat="47.98142" lon="1.68268">
        <ele>122.379872</ele>
        <time>2024-07-30T19:01:07.612Z</time>
      </trkpt>
      <trkpt lat="47.98149" lon="1.68241">
        <ele>122.510418</ele>
        <time>2024-07-30T19:01:11.251Z</time>
      </trkpt>
      <trkpt lat="47.98177" lon="1.68187">
        <ele>122.809559</ele>
        <time>2024-07-30T19:01:19.217Z</time>
      </trkpt>
      <trkpt lat="47.98177" lon="1.68174">
        <ele>122.86836</ele>
        <time>2024-07-30T19:01:20.723Z</time>
      </trkpt>
      <trkpt lat="47.98173" lon="1.68152">
        <ele>122.970514</ele>
        <time>2024-07-30T19:01:23.313Z</time>
      </trkpt>
      <trkpt lat="47.98141" lon="1.68062">
        <ele>123.146241</ele>
        <time>2024-07-30T19:01:34.075Z</time>
      </trkpt>
      <trkpt lat="47.98113" lon="1.67989">
        <ele>123.1646</ele>
        <time>2024-07-30T19:01:42.293Z</time>
      </trkpt>
      <trkpt lat="47.98147" lon="1.67957">
        <ele>123.177711</ele>
        <time>2024-07-30T19:01:48.331Z</time>
      </trkpt>
      <trkpt lat="47.98151" lon="1.67924">
        <ele>123.185037</ele>
        <time>2024-07-30T19:01:51.662Z</time>
      </trkpt>
      <trkpt lat="47.98153" lon="1.67825">
        <ele>123.024648</ele>
        <time>2024-07-30T19:02:00.763Z</time>
      </trkpt>
      <trkpt lat="47.98151" lon="1.67805">
        <ele>122.979014</ele>
        <time>2024-07-30T19:02:02.580Z</time>
      </trkpt>
      <trkpt lat="47.98134" lon="1.67741">
        <ele>122.825874</ele>
        <time>2024-07-30T19:02:08.605Z</time>
      </trkpt>
      <trkpt lat="47.98126" lon="1.67718">
        <ele>122.767399</ele>
        <time>2024-07-30T19:02:10.944Z</time>
      </trkpt>
      <trkpt lat="47.981" lon="1.67654">
        <ele>122.60004</ele>
        <time>2024-07-30T19:02:17.847Z</time>
      </trkpt>
      <trkpt lat="47.98067" lon="1.67574">
        <ele>122.58039</ele>
        <time>2024-07-30T19:02:26.941Z</time>
      </trkpt>
      <trkpt lat="47.98054" lon="1.67533">
        <ele>122.576433</ele>
        <time>2024-07-30T19:02:31.476Z</time>
      </trkpt>
      <trkpt lat="47.98052" lon="1.67513">
        <ele>122.574737</ele>
        <time>2024-07-30T19:02:33.348Z</time>
      </trkpt>
      <trkpt lat="47.98041" lon="1.67329">
        <ele>122.574808</ele>
        <time>2024-07-30T19:02:52.187Z</time>
      </trkpt>
      <trkpt lat="47.98039" lon="1.67309">
        <ele>122.577654</ele>
        <time>2024-07-30T19:02:54.291Z</time>
      </trkpt>
      <trkpt lat="47.98025" lon="1.67259">
        <ele>122.585261</ele>
        <time>2024-07-30T19:02:59.911Z</time>
      </trkpt>
      <trkpt lat="47.98" lon="1.67193">
        <ele>122.596006</ele>
        <time>2024-07-30T19:03:07.622Z</time>
      </trkpt>
      <trkpt lat="47.97916" lon="1.6697">
        <ele>122.232916</ele>
        <time>2024-07-30T19:03:31.687Z</time>
      </trkpt>
      <trkpt lat="47.97904" lon="1.66925">
        <ele>122.146766</ele>
        <time>2024-07-30T19:03:36.065Z</time>
      </trkpt>
      <trkpt lat="47.97879" lon="1.66834">
        <ele>121.851159</ele>
        <time>2024-07-30T19:03:44.872Z</time>
      </trkpt>
      <trkpt lat="47.97873" lon="1.66814">
        <ele>121.780686</ele>
        <time>2024-07-30T19:03:46.818Z</time>
      </trkpt>
      <trkpt lat="47.97866" lon="1.66787">
        <ele>121.686494</ele>
        <time>2024-07-30T19:03:49.462Z</time>
      </trkpt>
      <trkpt lat="47.97858" lon="1.66742">
        <ele>121.540648</ele>
        <time>2024-07-30T19:03:53.484Z</time>
      </trkpt>
      <trkpt lat="47.97855" lon="1.66707">
        <ele>121.425581</ele>
        <time>2024-07-30T19:03:56.637Z</time>
      </trkpt>
      <trkpt lat="47.97856" lon="1.66673">
        <ele>121.319368</ele>
        <time>2024-07-30T19:03:59.536Z</time>
      </trkpt>
      <trkpt lat="47.97858" lon="1.66645">
        <ele>121.234561</ele>
        <time>2024-07-30T19:04:01.964Z</time>
      </trkpt>
      <trkpt lat="47.97892" lon="1.66402">
        <ele>120.538128</ele>
        <time>2024-07-30T19:04:24.433Z</time>
      </trkpt>
      <trkpt lat="47.97894" lon="1.6637">
        <ele>120.480328</ele>
        <time>2024-07-30T19:04:27.446Z</time>
      </trkpt>
      <trkpt lat="47.97895" lon="1.66363">
        <ele>120.471288</ele>
        <time>2024-07-30T19:04:28.068Z</time>
      </trkpt>
      <trkpt lat="47.97887" lon="1.6627">
        <ele>120.337444</ele>
        <time>2024-07-30T19:04:36.803Z</time>
      </trkpt>
      <trkpt lat="47.97877" lon="1.66211">
        <ele>120.251967</ele>
        <time>2024-07-30T19:04:42.478Z</time>
      </trkpt>
      <trkpt lat="47.9779" lon="1.65881">
        <ele>119.958721</ele>
        <time>2024-07-30T19:05:16.500Z</time>
      </trkpt>
      <trkpt lat="47.97763" lon="1.65774">
        <ele>120.032765</ele>
        <time>2024-07-30T19:05:28.316Z</time>
      </trkpt>
      <trkpt lat="47.97755" lon="1.65758">
        <ele>120.045109</ele>
        <time>2024-07-30T19:05:30.221Z</time>
      </trkpt>
      <trkpt lat="47.97749" lon="1.65744">
        <ele>120.056002</ele>
        <time>2024-07-30T19:05:32.028Z</time>
      </trkpt>
      <trkpt lat="47.97678" lon="1.65637">
        <ele>120.150284</ele>
        <time>2024-07-30T19:05:47.636Z</time>
      </trkpt>
      <trkpt lat="47.9764" lon="1.65576">
        <ele>120.197667</ele>
        <time>2024-07-30T19:05:56.160Z</time>
      </trkpt>
      <trkpt lat="47.97589" lon="1.65487">
        <ele>120.265105</ele>
        <time>2024-07-30T19:06:08.143Z</time>
      </trkpt>
      <trkpt lat="47.97576" lon="1.65465">
        <ele>120.281479</ele>
        <time>2024-07-30T19:06:10.981Z</time>
      </trkpt>
      <trkpt lat="47.97528" lon="1.65375">
        <ele>120.24141</ele>
        <time>2024-07-30T19:06:22.527Z</time>
      </trkpt>
      <trkpt lat="47.9748" lon="1.65298">
        <ele>120.202059</ele>
        <time>2024-07-30T19:06:32.716Z</time>
      </trkpt>
      <trkpt lat="47.97435" lon="1.65233">
        <ele>120.080354</ele>
        <time>2024-07-30T19:06:41.638Z</time>
      </trkpt>
      <trkpt lat="47.9742" lon="1.65196">
        <ele>119.975392</ele>
        <time>2024-07-30T19:06:45.655Z</time>
      </trkpt>
      <trkpt lat="47.97362" lon="1.64955">
        <ele>119.403472</ele>
        <time>2024-07-30T19:07:08.454Z</time>
      </trkpt>
      <trkpt lat="47.97334" lon="1.64837">
        <ele>119.181898</ele>
        <time>2024-07-30T19:07:20.085Z</time>
      </trkpt>
      <trkpt lat="47.9732" lon="1.64781">
        <ele>119.07511</ele>
        <time>2024-07-30T19:07:26.007Z</time>
      </trkpt>
      <trkpt lat="47.97264" lon="1.64589">
        <ele>119.205766</ele>
        <time>2024-07-30T19:07:47.594Z</time>
      </trkpt>
      <trkpt lat="47.97249" lon="1.64543">
        <ele>119.245053</ele>
        <time>2024-07-30T19:07:53.038Z</time>
      </trkpt>
      <trkpt lat="47.9718" lon="1.64334">
        <ele>119.17979</ele>
        <time>2024-07-30T19:08:16.192Z</time>
      </trkpt>
      <trkpt lat="47.9716" lon="1.64295">
        <ele>119.161576</ele>
        <time>2024-07-30T19:08:20.787Z</time>
      </trkpt>
      <trkpt lat="47.97115" lon="1.64236">
        <ele>118.969104</ele>
        <time>2024-07-30T19:08:29.002Z</time>
      </trkpt>
      <trkpt lat="47.97087" lon="1.64199">
        <ele>118.843238</ele>
        <time>2024-07-30T19:08:33.976Z</time>
      </trkpt>
      <trkpt lat="47.96932" lon="1.63911">
        <ele>118.142584</ele>
        <time>2024-07-30T19:09:07.364Z</time>
      </trkpt>
      <trkpt lat="47.96845" lon="1.63742">
        <ele>118.658284</ele>
        <time>2024-07-30T19:09:31.153Z</time>
      </trkpt>
      <trkpt lat="47.96773" lon="1.63565">
        <ele>119.377764</ele>
        <time>2024-07-30T19:09:55.567Z</time>
      </trkpt>
      <trkpt lat="47.96739" lon="1.63474">
        <ele>119.768917</ele>
        <time>2024-07-30T19:10:07.476Z</time>
      </trkpt>
      <trkpt lat="47.96733" lon="1.63452">
        <ele>119.860546</ele>
        <time>2024-07-30T19:10:10.156Z</time>
      </trkpt>
      <trkpt lat="47.96728" lon="1.63421">
        <ele>119.927097</ele>
        <time>2024-07-30T19:10:13.528Z</time>
      </trkpt>
      <trkpt lat="47.96726" lon="1.63358">
        <ele>119.945594</ele>
        <time>2024-07-30T19:10:20.093Z</time>
      </trkpt>
      <trkpt lat="47.96723" lon="1.63286">
        <ele>119.966314</ele>
        <time>2024-07-30T19:10:27.090Z</time>
      </trkpt>
      <trkpt lat="47.96711" lon="1.63218">
        <ele>119.986791</ele>
        <time>2024-07-30T19:10:34.020Z</time>
      </trkpt>
      <trkpt lat="47.96711" lon="1.63194">
        <ele>119.993632</ele>
        <time>2024-07-30T19:10:36.326Z</time>
      </trkpt>
      <trkpt lat="47.96717" lon="1.63084">
        <ele>120.068498</ele>
        <time>2024-07-30T19:10:47.170Z</time>
      </trkpt>
      <trkpt lat="47.96716" lon="1.63031">
        <ele>120.110889</ele>
        <time>2024-07-30T19:10:52.462Z</time>
      </trkpt>
      <trkpt lat="47.96707" lon="1.62957">
        <ele>120.170577</ele>
        <time>2024-07-30T19:11:00.136Z</time>
      </trkpt>
      <trkpt lat="47.96648" lon="1.62564">
        <ele>121.287597</ele>
        <time>2024-07-30T19:11:45.091Z</time>
      </trkpt>
      <trkpt lat="47.96624" lon="1.62413">
        <ele>121.763299</ele>
        <time>2024-07-30T19:12:02.344Z</time>
      </trkpt>
      <trkpt lat="47.96624" lon="1.6237">
        <ele>121.89695</ele>
        <time>2024-07-30T19:12:07.047Z</time>
      </trkpt>
      <trkpt lat="47.96628" lon="1.62333">
        <ele>122.021181</ele>
        <time>2024-07-30T19:12:11.220Z</time>
      </trkpt>
      <trkpt lat="47.96641" lon="1.62291">
        <ele>122.174363</ele>
        <time>2024-07-30T19:12:16.344Z</time>
      </trkpt>
      <trkpt lat="47.96685" lon="1.6219">
        <ele>122.568</ele>
        <time>2024-07-30T19:12:29.963Z</time>
      </trkpt>
      <trkpt lat="47.96718" lon="1.6211">
        <ele>122.887663</ele>
        <time>2024-07-30T19:12:40.889Z</time>
      </trkpt>
      <trkpt lat="47.96723" lon="1.62093">
        <ele>122.956946</ele>
        <time>2024-07-30T19:12:43.008Z</time>
      </trkpt>
      <trkpt lat="47.9665" lon="1.62028">
        <ele>123.415698</ele>
        <time>2024-07-30T19:12:57.624Z</time>
      </trkpt>
      <trkpt lat="47.96601" lon="1.61968">
        <ele>123.730375</ele>
        <time>2024-07-30T19:13:08.174Z</time>
      </trkpt>
      <trkpt lat="47.96576" lon="1.61951">
        <ele>123.778784</ele>
        <time>2024-07-30T19:13:12.765Z</time>
      </trkpt>
      <trkpt lat="47.96365" lon="1.61873">
        <ele>124.031363</ele>
        <time>2024-07-30T19:13:45.640Z</time>
      </trkpt>
      <trkpt lat="47.95979" lon="1.61733">
        <ele>123.846916</ele>
        <time>2024-07-30T19:14:44.517Z</time>
      </trkpt>
      <trkpt lat="47.95744" lon="1.61671">
        <ele>122.997467</ele>
        <time>2024-07-30T19:15:16.718Z</time>
      </trkpt>
      <trkpt lat="47.95654" lon="1.6165">
        <ele>122.624733</ele>
        <time>2024-07-30T19:15:28.248Z</time>
      </trkpt>
      <trkpt lat="47.95518" lon="1.61619">
        <ele>122.286128</ele>
        <time>2024-07-30T19:15:47.780Z</time>
      </trkpt>
      <trkpt lat="47.95387" lon="1.61587">
        <ele>122.512837</ele>
        <time>2024-07-30T19:16:08.951Z</time>
      </trkpt>
      <trkpt lat="47.95257" lon="1.61549">
        <ele>122.901827</ele>
        <time>2024-07-30T19:16:29.933Z</time>
      </trkpt>
      <trkpt lat="47.95264" lon="1.6153">
        <ele>122.945747</ele>
        <time>2024-07-30T19:16:33.008Z</time>
      </trkpt>
      <trkpt lat="47.95313" lon="1.61489">
        <ele>123.123925</ele>
        <time>2024-07-30T19:16:44.961Z</time>
      </trkpt>
      <trkpt lat="47.95323" lon="1.6148">
        <ele>123.166444</ele>
        <time>2024-07-30T19:16:47.593Z</time>
      </trkpt>
      <trkpt lat="47.95415" lon="1.61409">
        <ele>123.546883</ele>
        <time>2024-07-30T19:17:10.677Z</time>
      </trkpt>
      <trkpt lat="47.95424" lon="1.61402">
        <ele>123.583393</ele>
        <time>2024-07-30T19:17:12.800Z</time>
      </trkpt>
      <trkpt lat="47.95458" lon="1.61382">
        <ele>123.716256</ele>
        <time>2024-07-30T19:17:20.452Z</time>
      </trkpt>
      <trkpt lat="47.95484" lon="1.61366">
        <ele>123.691648</ele>
        <time>2024-07-30T19:17:26.331Z</time>
      </trkpt>
      <trkpt lat="47.95522" lon="1.61324">
        <ele>123.602</ele>
        <time>2024-07-30T19:17:35.895Z</time>
      </trkpt>
      <trkpt lat="47.95594" lon="1.61176">
        <ele>123.399857</ele>
        <time>2024-07-30T19:17:58.891Z</time>
      </trkpt>
      <trkpt lat="47.95615" lon="1.61144">
        <ele>123.406861</ele>
        <time>2024-07-30T19:18:04.513Z</time>
      </trkpt>
      <trkpt lat="47.95782" lon="1.61048">
        <ele>123.50506</ele>
        <time>2024-07-30T19:18:41.993Z</time>
      </trkpt>
      <trkpt lat="47.95808" lon="1.61036">
        <ele>123.547591</ele>
        <time>2024-07-30T19:18:47.940Z</time>
      </trkpt>
      <trkpt lat="47.95921" lon="1.60967">
        <ele>123.664609</ele>
        <time>2024-07-30T19:19:13.407Z</time>
      </trkpt>
      <trkpt lat="47.95975" lon="1.60932">
        <ele>123.392459</ele>
        <time>2024-07-30T19:19:25.192Z</time>
      </trkpt>
      <trkpt lat="47.96087" lon="1.60815">
        <ele>122.716726</ele>
        <time>2024-07-30T19:19:49.596Z</time>
      </trkpt>
      <trkpt lat="47.96131" lon="1.60786">
        <ele>122.417725</ele>
        <time>2024-07-30T19:19:57.990Z</time>
      </trkpt>
      <trkpt lat="47.96201" lon="1.60752">
        <ele>121.951015</ele>
        <time>2024-07-30T19:20:11.452Z</time>
      </trkpt>
      <trkpt lat="47.96344" lon="1.60694">
        <ele>121.524797</ele>
        <time>2024-07-30T19:20:39.874Z</time>
      </trkpt>
      <trkpt lat="47.96467" lon="1.60629">
        <ele>121.34347</ele>
        <time>2024-07-30T19:21:06.262Z</time>
      </trkpt>
      <trkpt lat="47.9651" lon="1.6061">
        <ele>121.304489</ele>
        <time>2024-07-30T19:21:15.058Z</time>
      </trkpt>
      <trkpt lat="47.96532" lon="1.60604">
        <ele>121.285485</ele>
        <time>2024-07-30T19:21:19.323Z</time>
      </trkpt>
      <trkpt lat="47.96706" lon="1.60552">
        <ele>121.228042</ele>
        <time>2024-07-30T19:21:54.659Z</time>
      </trkpt>
      <trkpt lat="47.96778" lon="1.60523">
        <ele>121.264853</ele>
        <time>2024-07-30T19:22:10.338Z</time>
      </trkpt>
      <trkpt lat="47.9682" lon="1.605">
        <ele>121.33517</ele>
        <time>2024-07-30T19:22:19.570Z</time>
      </trkpt>
      <trkpt lat="47.96834" lon="1.60483">
        <ele>121.364911</ele>
        <time>2024-07-30T19:22:23.444Z</time>
      </trkpt>
      <trkpt lat="47.96861" lon="1.60429">
        <ele>121.435078</ele>
        <time>2024-07-30T19:22:32.596Z</time>
      </trkpt>
      <trkpt lat="47.96934" lon="1.60246">
        <ele>121.705312</ele>
        <time>2024-07-30T19:23:02.747Z</time>
      </trkpt>
      <trkpt lat="47.96956" lon="1.60217">
        <ele>121.764693</ele>
        <time>2024-07-30T19:23:08.860Z</time>
      </trkpt>
      <trkpt lat="47.97068" lon="1.60108">
        <ele>121.972861</ele>
        <time>2024-07-30T19:23:36.977Z</time>
      </trkpt>
      <trkpt lat="47.97142" lon="1.60028">
        <ele>122.086481</ele>
        <time>2024-07-30T19:23:55.776Z</time>
      </trkpt>
      <trkpt lat="47.9725" lon="1.59859">
        <ele>122.201717</ele>
        <time>2024-07-30T19:24:27.694Z</time>
      </trkpt>
      <trkpt lat="47.97275" lon="1.59832">
        <ele>122.223569</ele>
        <time>2024-07-30T19:24:34.158Z</time>
      </trkpt>
      <trkpt lat="47.97407" lon="1.59723">
        <ele>122.294757</ele>
        <time>2024-07-30T19:25:05.084Z</time>
      </trkpt>
      <trkpt lat="47.97437" lon="1.59692">
        <ele>122.291371</ele>
        <time>2024-07-30T19:25:12.342Z</time>
      </trkpt>
      <trkpt lat="47.97454" lon="1.59654">
        <ele>122.220599</ele>
        <time>2024-07-30T19:25:18.391Z</time>
      </trkpt>
      <trkpt lat="47.97517" lon="1.59472">
        <ele>121.902551</ele>
        <time>2024-07-30T19:25:44.757Z</time>
      </trkpt>
      <trkpt lat="47.97553" lon="1.59378">
        <ele>121.785938</ele>
        <time>2024-07-30T19:25:58.638Z</time>
      </trkpt>
      <trkpt lat="47.97594" lon="1.59292">
        <ele>121.674138</ele>
        <time>2024-07-30T19:26:12.575Z</time>
      </trkpt>
      <trkpt lat="47.97614" lon="1.59266">
        <ele>121.632634</ele>
        <time>2024-07-30T19:26:17.817Z</time>
      </trkpt>
      <trkpt lat="47.97622" lon="1.59253">
        <ele>121.61407</ele>
        <time>2024-07-30T19:26:20.114Z</time>
      </trkpt>
      <trkpt lat="47.97711" lon="1.59109">
        <ele>121.62801</ele>
        <time>2024-07-30T19:26:46.829Z</time>
      </trkpt>
      <trkpt lat="47.97722" lon="1.59085">
        <ele>121.630848</ele>
        <time>2024-07-30T19:26:50.792Z</time>
      </trkpt>
      <trkpt lat="47.97748" lon="1.59026">
        <ele>121.646471</ele>
        <time>2024-07-30T19:27:00.590Z</time>
      </trkpt>
      <trkpt lat="47.97766" lon="1.59004">
        <ele>121.662545</ele>
        <time>2024-07-30T19:27:05.234Z</time>
      </trkpt>
      <trkpt lat="47.97799" lon="1.58983">
        <ele>121.688062</ele>
        <time>2024-07-30T19:27:12.648Z</time>
      </trkpt>
      <trkpt lat="47.97934" lon="1.5893">
        <ele>121.709354</ele>
        <time>2024-07-30T19:27:41.127Z</time>
      </trkpt>
      <trkpt lat="47.97949" lon="1.5891">
        <ele>121.677643</ele>
        <time>2024-07-30T19:27:45.275Z</time>
      </trkpt>
      <trkpt lat="47.98092" lon="1.5834">
        <ele>121.084489</ele>
        <time>2024-07-30T19:29:04.730Z</time>
      </trkpt>
      <trkpt lat="47.98102" lon="1.58306">
        <ele>121.05713</ele>
        <time>2024-07-30T19:29:09.520Z</time>
      </trkpt>
      <trkpt lat="47.98118" lon="1.58247">
        <ele>121.007944</ele>
        <time>2024-07-30T19:29:18.189Z</time>
      </trkpt>
      <trkpt lat="47.98159" lon="1.58129">
        <ele>121.251589</ele>
        <time>2024-07-30T19:29:36.705Z</time>
      </trkpt>
      <trkpt lat="47.98173" lon="1.58084">
        <ele>121.358897</ele>
        <time>2024-07-30T19:29:43.807Z</time>
      </trkpt>
      <trkpt lat="47.98177" lon="1.58053">
        <ele>121.427551</ele>
        <time>2024-07-30T19:29:48.380Z</time>
      </trkpt>
      <trkpt lat="47.98175" lon="1.5795">
        <ele>121.681631</ele>
        <time>2024-07-30T19:30:04.042Z</time>
      </trkpt>
      <trkpt lat="47.98177" lon="1.57847">
        <ele>121.994823</ele>
        <time>2024-07-30T19:30:19.652Z</time>
      </trkpt>
      <trkpt lat="47.98167" lon="1.57779">
        <ele>122.209608</ele>
        <time>2024-07-30T19:30:30.181Z</time>
      </trkpt>
      <trkpt lat="47.98165" lon="1.57758">
        <ele>122.273715</ele>
        <time>2024-07-30T19:30:33.305Z</time>
      </trkpt>
      <trkpt lat="47.98167" lon="1.57738">
        <ele>122.334397</ele>
        <time>2024-07-30T19:30:36.272Z</time>
      </trkpt>
      <trkpt lat="47.98321" lon="1.5766">
        <ele>122.141239</ele>
        <time>2024-07-30T19:31:08.527Z</time>
      </trkpt>
      <trkpt lat="47.98372" lon="1.57638">
        <ele>121.948388</ele>
        <time>2024-07-30T19:31:18.148Z</time>
      </trkpt>
      <trkpt lat="47.98407" lon="1.57638">
        <ele>121.726319</ele>
        <time>2024-07-30T19:31:24.349Z</time>
      </trkpt>
      <trkpt lat="47.98504" lon="1.5765">
        <ele>121.098172</ele>
        <time>2024-07-30T19:31:41.902Z</time>
      </trkpt>
      <trkpt lat="47.98542" lon="1.5765">
        <ele>120.928511</ele>
        <time>2024-07-30T19:31:48.904Z</time>
      </trkpt>
      <trkpt lat="47.98621" lon="1.57638">
        <ele>120.924554</ele>
        <time>2024-07-30T19:32:04.340Z</time>
      </trkpt>
      <trkpt lat="47.98726" lon="1.57609">
        <ele>121.053969</ele>
        <time>2024-07-30T19:32:27.043Z</time>
      </trkpt>
      <trkpt lat="47.98814" lon="1.57568">
        <ele>121.760048</ele>
        <time>2024-07-30T19:32:48.410Z</time>
      </trkpt>
      <trkpt lat="47.98853" lon="1.57545">
        <ele>122.082345</ele>
        <time>2024-07-30T19:32:58.479Z</time>
      </trkpt>
      <trkpt lat="47.99066" lon="1.57437">
        <ele>124.242027</ele>
        <time>2024-07-30T19:33:53.275Z</time>
      </trkpt>
      <trkpt lat="47.99203" lon="1.57384">
        <ele>125.337697</ele>
        <time>2024-07-30T19:34:26.949Z</time>
      </trkpt>
      <trkpt lat="47.99279" lon="1.57361">
        <ele>125.334399</ele>
        <time>2024-07-30T19:34:42.916Z</time>
      </trkpt>
      <trkpt lat="47.99388" lon="1.57329">
        <ele>124.996989</ele>
        <time>2024-07-30T19:35:03.711Z</time>
      </trkpt>
      <trkpt lat="47.99428" lon="1.57313">
        <ele>124.811619</ele>
        <time>2024-07-30T19:35:11.045Z</time>
      </trkpt>
      <trkpt lat="47.99467" lon="1.57297">
        <ele>124.60772</ele>
        <time>2024-07-30T19:35:18.049Z</time>
      </trkpt>
      <trkpt lat="47.9982" lon="1.57107">
        <ele>123.302954</ele>
        <time>2024-07-30T19:36:29.666Z</time>
      </trkpt>
      <trkpt lat="47.99835" lon="1.57097">
        <ele>123.270724</ele>
        <time>2024-07-30T19:36:32.902Z</time>
      </trkpt>
      <trkpt lat="47.99843" lon="1.57089">
        <ele>123.251696</ele>
        <time>2024-07-30T19:36:34.811Z</time>
      </trkpt>
      <trkpt lat="48.0004" lon="1.56696">
        <ele>122.951226</ele>
        <time>2024-07-30T19:37:39.801Z</time>
      </trkpt>
      <trkpt lat="48.00063" lon="1.56651">
        <ele>122.97752</ele>
        <time>2024-07-30T19:37:47.566Z</time>
      </trkpt>
      <trkpt lat="48.00308" lon="1.56159">
        <ele>124.38273</ele>
        <time>2024-07-30T19:39:15.779Z</time>
      </trkpt>
      <trkpt lat="48.00452" lon="1.55862">
        <ele>126.576551</ele>
        <time>2024-07-30T19:40:15.666Z</time>
      </trkpt>
      <trkpt lat="48.00483" lon="1.55806">
        <ele>126.962125</ele>
        <time>2024-07-30T19:40:27.304Z</time>
      </trkpt>
      <trkpt lat="48.00519" lon="1.5575">
        <ele>127.370587</ele>
        <time>2024-07-30T19:40:39.331Z</time>
      </trkpt>
      <trkpt lat="48.00743" lon="1.55413">
        <ele>128.63189</ele>
        <time>2024-07-30T19:41:47.930Z</time>
      </trkpt>
      <trkpt lat="48.0076" lon="1.55384">
        <ele>128.715312</ele>
        <time>2024-07-30T19:41:53.443Z</time>
      </trkpt>
      <trkpt lat="48.00796" lon="1.5531">
        <ele>128.90087</ele>
        <time>2024-07-30T19:42:06.574Z</time>
      </trkpt>
      <trkpt lat="48.00813" lon="1.55272">
        <ele>128.989667</ele>
        <time>2024-07-30T19:42:13.267Z</time>
      </trkpt>
      <trkpt lat="48.00841" lon="1.55212">
        <ele>129.127788</ele>
        <time>2024-07-30T19:42:23.472Z</time>
      </trkpt>
      <trkpt lat="48.00865" lon="1.55165">
        <ele>129.238932</ele>
        <time>2024-07-30T19:42:31.998Z</time>
      </trkpt>
      <trkpt lat="48.00874" lon="1.55154">
        <ele>129.271848</ele>
        <time>2024-07-30T19:42:34.499Z</time>
      </trkpt>
      <trkpt lat="48.0091" lon="1.55131">
        <ele>129.364669</ele>
        <time>2024-07-30T19:42:43.032Z</time>
      </trkpt>
      <trkpt lat="48.00941" lon="1.55126">
        <ele>129.391303</ele>
        <time>2024-07-30T19:42:49.557Z</time>
      </trkpt>
      <trkpt lat="48.00965" lon="1.55045">
        <ele>129.442595</ele>
        <time>2024-07-30T19:42:58.828Z</time>
      </trkpt>
      <trkpt lat="48.0088" lon="1.55005">
        <ele>129.485553</ele>
        <time>2024-07-30T19:43:11.605Z</time>
      </trkpt>
      <trkpt lat="48.00837" lon="1.54975">
        <ele>129.333678</ele>
        <time>2024-07-30T19:43:18.484Z</time>
      </trkpt>
      <trkpt lat="48.00804" lon="1.54952">
        <ele>129.218854</ele>
        <time>2024-07-30T19:43:23.419Z</time>
      </trkpt>
      <trkpt lat="48.00781" lon="1.54933">
        <ele>129.135832</ele>
        <time>2024-07-30T19:43:26.946Z</time>
      </trkpt>
      <trkpt lat="48.00507" lon="1.5472">
        <ele>128.115445</ele>
        <time>2024-07-30T19:44:08.369Z</time>
      </trkpt>
      <trkpt lat="48.00482" lon="1.54707">
        <ele>128.085767</ele>
        <time>2024-07-30T19:44:12.250Z</time>
      </trkpt>
      <trkpt lat="48.00469" lon="1.54694">
        <ele>128.068365</ele>
        <time>2024-07-30T19:44:14.621Z</time>
      </trkpt>
      <trkpt lat="48.00428" lon="1.54658">
        <ele>128.015323</ele>
        <time>2024-07-30T19:44:21.856Z</time>
      </trkpt>
      <trkpt lat="48.00405" lon="1.54631">
        <ele>127.992819</ele>
        <time>2024-07-30T19:44:26.442Z</time>
      </trkpt>
      <trkpt lat="48.0038" lon="1.54596">
        <ele>128.003046</ele>
        <time>2024-07-30T19:44:31.796Z</time>
      </trkpt>
      <trkpt lat="48.00346" lon="1.54536">
        <ele>128.018856</ele>
        <time>2024-07-30T19:44:39.934Z</time>
      </trkpt>
      <trkpt lat="48.00299" lon="1.54425">
        <ele>128.038572</ele>
        <time>2024-07-30T19:44:52.873Z</time>
      </trkpt>
      <trkpt lat="48.00252" lon="1.54331">
        <ele>127.799093</ele>
        <time>2024-07-30T19:45:03.670Z</time>
      </trkpt>
      <trkpt lat="48.00162" lon="1.54114">
        <ele>127.295156</ele>
        <time>2024-07-30T19:45:26.855Z</time>
      </trkpt>
      <trkpt lat="48.0008" lon="1.5391">
        <ele>126.695936</ele>
        <time>2024-07-30T19:45:49.388Z</time>
      </trkpt>
      <trkpt lat="48.00059" lon="1.53865">
        <ele>126.483517</ele>
        <time>2024-07-30T19:45:54.369Z</time>
      </trkpt>
      <trkpt lat="48.00002" lon="1.5375">
        <ele>125.898483</ele>
        <time>2024-07-30T19:46:06.438Z</time>
      </trkpt>
      <trkpt lat="47.99975" lon="1.537">
        <ele>125.279561</ele>
        <time>2024-07-30T19:46:11.502Z</time>
      </trkpt>
      <trkpt lat="47.99965" lon="1.5367">
        <ele>124.951716</ele>
        <time>2024-07-30T19:46:14.133Z</time>
      </trkpt>
      <trkpt lat="47.99962" lon="1.53641">
        <ele>124.66011</ele>
        <time>2024-07-30T19:46:16.447Z</time>
      </trkpt>
      <trkpt lat="47.99974" lon="1.53437">
        <ele>122.819162</ele>
        <time>2024-07-30T19:46:31.882Z</time>
      </trkpt>
      <trkpt lat="47.99986" lon="1.53237">
        <ele>121.304655</ele>
        <time>2024-07-30T19:46:47.971Z</time>
      </trkpt>
      <trkpt lat="48.00018" lon="1.52641">
        <ele>121.902535</ele>
        <time>2024-07-30T19:47:51.029Z</time>
      </trkpt>
      <trkpt lat="48.00023" lon="1.52587">
        <ele>121.969292</ele>
        <time>2024-07-30T19:47:57.004Z</time>
      </trkpt>
      <trkpt lat="48.00026" lon="1.52573">
        <ele>121.98697</ele>
        <time>2024-07-30T19:47:58.550Z</time>
      </trkpt>
      <trkpt lat="48.00032" lon="1.52557">
        <ele>122.010146</ele>
        <time>2024-07-30T19:48:00.570Z</time>
      </trkpt>
      <trkpt lat="48.00064" lon="1.52503">
        <ele>122.099601</ele>
        <time>2024-07-30T19:48:08.180Z</time>
      </trkpt>
      <trkpt lat="48.00185" lon="1.52305">
        <ele>122.173549</ele>
        <time>2024-07-30T19:48:34.058Z</time>
      </trkpt>
      <trkpt lat="48.00195" lon="1.52288">
        <ele>122.175155</ele>
        <time>2024-07-30T19:48:36.204Z</time>
      </trkpt>
      <trkpt lat="48.00539" lon="1.51528">
        <ele>124.642585</ele>
        <time>2024-07-30T19:50:17.393Z</time>
      </trkpt>
      <trkpt lat="48.00556" lon="1.5149">
        <ele>124.791585</ele>
        <time>2024-07-30T19:50:22.920Z</time>
      </trkpt>
      <trkpt lat="48.00585" lon="1.51438">
        <ele>125.011517</ele>
        <time>2024-07-30T19:50:30.848Z</time>
      </trkpt>
      <trkpt lat="48.0062" lon="1.51278">
        <ele>125.151614</ele>
        <time>2024-07-30T19:50:48.956Z</time>
      </trkpt>
      <trkpt lat="48.00622" lon="1.51271">
        <ele>125.144392</ele>
        <time>2024-07-30T19:50:49.694Z</time>
      </trkpt>
      <trkpt lat="48.00665" lon="1.51101">
        <ele>124.947592</ele>
        <time>2024-07-30T19:51:06.025Z</time>
      </trkpt>
      <trkpt lat="48.00682" lon="1.51049">
        <ele>124.801477</ele>
        <time>2024-07-30T19:51:11.154Z</time>
      </trkpt>
      <trkpt lat="48.00758" lon="1.50804">
        <ele>124.215329</ele>
        <time>2024-07-30T19:51:35.807Z</time>
      </trkpt>
      <trkpt lat="48.00829" lon="1.50557">
        <ele>124.088954</ele>
        <time>2024-07-30T19:52:01.587Z</time>
      </trkpt>
      <trkpt lat="48.00739" lon="1.50466">
        <ele>124.326743</ele>
        <time>2024-07-30T19:52:19.258Z</time>
      </trkpt>
      <trkpt lat="48.00676" lon="1.5039">
        <ele>124.524377</ele>
        <time>2024-07-30T19:52:32.665Z</time>
      </trkpt>
      <trkpt lat="48.0056" lon="1.50241">
        <ele>124.882617</ele>
        <time>2024-07-30T19:52:56.378Z</time>
      </trkpt>
      <trkpt lat="48.00438" lon="1.50088">
        <ele>125.163062</ele>
        <time>2024-07-30T19:53:20.691Z</time>
      </trkpt>
      <trkpt lat="48.00287" lon="1.4997">
        <ele>125.70891</ele>
        <time>2024-07-30T19:53:48.321Z</time>
      </trkpt>
      <trkpt lat="48.00253" lon="1.49937">
        <ele>125.884798</ele>
        <time>2024-07-30T19:53:55.049Z</time>
      </trkpt>
      <trkpt lat="48.00233" lon="1.49912">
        <ele>126.000483</ele>
        <time>2024-07-30T19:53:59.286Z</time>
      </trkpt>
      <trkpt lat="48.00189" lon="1.49843">
        <ele>126.279676</ele>
        <time>2024-07-30T19:54:09.900Z</time>
      </trkpt>
      <trkpt lat="48.00173" lon="1.49811">
        <ele>126.394704</ele>
        <time>2024-07-30T19:54:14.381Z</time>
      </trkpt>
      <trkpt lat="48.00162" lon="1.49774">
        <ele>126.512869</ele>
        <time>2024-07-30T19:54:19.034Z</time>
      </trkpt>
      <trkpt lat="48.00151" lon="1.49722">
        <ele>126.664628</ele>
        <time>2024-07-30T19:54:25.364Z</time>
      </trkpt>
      <trkpt lat="48.00149" lon="1.49686">
        <ele>126.764794</ele>
        <time>2024-07-30T19:54:29.481Z</time>
      </trkpt>
      <trkpt lat="48.00136" lon="1.4969">
        <ele>126.820844</ele>
        <time>2024-07-30T19:54:31.740Z</time>
      </trkpt>
      <trkpt lat="48.00124" lon="1.49686">
        <ele>126.871313</ele>
        <time>2024-07-30T19:54:33.783Z</time>
      </trkpt>
      <trkpt lat="48.00075" lon="1.49655">
        <ele>127.093948</ele>
        <time>2024-07-30T19:54:42.299Z</time>
      </trkpt>
      <trkpt lat="48.00063" lon="1.49653">
        <ele>127.14491</ele>
        <time>2024-07-30T19:54:44.221Z</time>
      </trkpt>
      <trkpt lat="48.00058" lon="1.49639">
        <ele>127.186947</ele>
        <time>2024-07-30T19:54:45.810Z</time>
      </trkpt>
      <trkpt lat="48.00051" lon="1.49631">
        <ele>127.224054</ele>
        <time>2024-07-30T19:54:47.189Z</time>
      </trkpt>
      <trkpt lat="48.00017" lon="1.49607">
        <ele>127.301718</ele>
        <time>2024-07-30T19:54:53.255Z</time>
      </trkpt>
      <trkpt lat="47.99984" lon="1.4958">
        <ele>127.376355</ele>
        <time>2024-07-30T19:54:59.073Z</time>
      </trkpt>
      <trkpt lat="47.9997" lon="1.49549">
        <ele>127.42632</ele>
        <time>2024-07-30T19:55:02.894Z</time>
      </trkpt>
      <trkpt lat="47.99966" lon="1.49515">
        <ele>127.473602</ele>
        <time>2024-07-30T19:55:06.510Z</time>
      </trkpt>
      <trkpt lat="47.9997" lon="1.49396">
        <ele>127.642048</ele>
        <time>2024-07-30T19:55:18.668Z</time>
      </trkpt>
      <trkpt lat="47.9997" lon="1.4927">
        <ele>127.844251</ele>
        <time>2024-07-30T19:55:32.010Z</time>
      </trkpt>
      <trkpt lat="47.99948" lon="1.49148">
        <ele>128.011654</ele>
        <time>2024-07-30T19:55:45.737Z</time>
      </trkpt>
      <trkpt lat="47.99911" lon="1.49031">
        <ele>127.95333</ele>
        <time>2024-07-30T19:55:58.868Z</time>
      </trkpt>
      <trkpt lat="47.99785" lon="1.48717">
        <ele>127.405287</ele>
        <time>2024-07-30T19:56:32.286Z</time>
      </trkpt>
      <trkpt lat="47.99688" lon="1.48498">
        <ele>127.349078</ele>
        <time>2024-07-30T19:56:58.153Z</time>
      </trkpt>
      <trkpt lat="47.99568" lon="1.48235">
        <ele>127.613953</ele>
        <time>2024-07-30T19:57:31.259Z</time>
      </trkpt>
      <trkpt lat="47.99546" lon="1.4821">
        <ele>127.651454</ele>
        <time>2024-07-30T19:57:35.453Z</time>
      </trkpt>
      <trkpt lat="47.99528" lon="1.48184">
        <ele>127.686523</ele>
        <time>2024-07-30T19:57:39.385Z</time>
      </trkpt>
      <trkpt lat="47.99113" lon="1.47549">
        <ele>128.533425</ele>
        <time>2024-07-30T19:59:10.577Z</time>
      </trkpt>
      <trkpt lat="47.99094" lon="1.47524">
        <ele>128.574784</ele>
        <time>2024-07-30T19:59:14.568Z</time>
      </trkpt>
      <trkpt lat="47.99054" lon="1.47478">
        <ele>128.642064</ele>
        <time>2024-07-30T19:59:22.541Z</time>
      </trkpt>
      <trkpt lat="47.99001" lon="1.47429">
        <ele>128.684239</ele>
        <time>2024-07-30T19:59:32.223Z</time>
      </trkpt>
      <trkpt lat="47.98937" lon="1.47371">
        <ele>128.7347</ele>
        <time>2024-07-30T19:59:43.497Z</time>
      </trkpt>
      <trkpt lat="47.9875" lon="1.47132">
        <ele>128.585427</ele>
        <time>2024-07-30T20:00:18.818Z</time>
      </trkpt>
      <trkpt lat="47.98653" lon="1.47009">
        <ele>128.663389</ele>
        <time>2024-07-30T20:00:38.143Z</time>
      </trkpt>
      <trkpt lat="47.98639" lon="1.46995">
        <ele>128.679353</ele>
        <time>2024-07-30T20:00:40.707Z</time>
      </trkpt>
      <trkpt lat="47.986" lon="1.46958">
        <ele>128.805384</ele>
        <time>2024-07-30T20:00:48.129Z</time>
      </trkpt>
      <trkpt lat="47.98479" lon="1.46862">
        <ele>129.160149</ele>
        <time>2024-07-30T20:01:10.315Z</time>
      </trkpt>
      <trkpt lat="47.98517" lon="1.46706">
        <ele>129.175586</ele>
        <time>2024-07-30T20:01:27.381Z</time>
      </trkpt>
      <trkpt lat="47.98516" lon="1.46673">
        <ele>129.178697</ele>
        <time>2024-07-30T20:01:30.576Z</time>
      </trkpt>
      <trkpt lat="47.98512" lon="1.46642">
        <ele>129.181596</ele>
        <time>2024-07-30T20:01:33.487Z</time>
      </trkpt>
      <trkpt lat="47.9851" lon="1.46632">
        <ele>129.182623</ele>
        <time>2024-07-30T20:01:34.495Z</time>
      </trkpt>
      <trkpt lat="47.98503" lon="1.46597">
        <ele>129.092154</ele>
        <time>2024-07-30T20:01:37.764Z</time>
      </trkpt>
      <trkpt lat="47.98496" lon="1.46578">
        <ele>128.982271</ele>
        <time>2024-07-30T20:01:39.726Z</time>
      </trkpt>
      <trkpt lat="47.98479" lon="1.46546">
        <ele>128.779464</ele>
        <time>2024-07-30T20:01:43.283Z</time>
      </trkpt>
      <trkpt lat="47.9847" lon="1.46533">
        <ele>128.684277</ele>
        <time>2024-07-30T20:01:44.927Z</time>
      </trkpt>
      <trkpt lat="47.98412" lon="1.46474">
        <ele>128.158332</ele>
        <time>2024-07-30T20:01:53.700Z</time>
      </trkpt>
      <trkpt lat="47.9835" lon="1.46408">
        <ele>127.497779</ele>
        <time>2024-07-30T20:02:02.899Z</time>
      </trkpt>
      <trkpt lat="47.98334" lon="1.46372">
        <ele>127.195696</ele>
        <time>2024-07-30T20:02:06.449Z</time>
      </trkpt>
      <trkpt lat="47.98326" lon="1.46343">
        <ele>126.975178</ele>
        <time>2024-07-30T20:02:09.048Z</time>
      </trkpt>
      <trkpt lat="47.98325" lon="1.46303">
        <ele>126.693655</ele>
        <time>2024-07-30T20:02:12.328Z</time>
      </trkpt>
      <trkpt lat="47.98324" lon="1.46251">
        <ele>126.330792</ele>
        <time>2024-07-30T20:02:16.521Z</time>
      </trkpt>
      <trkpt lat="47.98329" lon="1.46131">
        <ele>125.528964</ele>
        <time>2024-07-30T20:02:26.129Z</time>
      </trkpt>
      <trkpt lat="47.98332" lon="1.46026">
        <ele>124.854701</ele>
        <time>2024-07-30T20:02:34.674Z</time>
      </trkpt>
      <trkpt lat="47.98333" lon="1.45987">
        <ele>124.603222</ele>
        <time>2024-07-30T20:02:37.940Z</time>
      </trkpt>
      <trkpt lat="47.98333" lon="1.45873">
        <ele>124.095809</ele>
        <time>2024-07-30T20:02:47.695Z</time>
      </trkpt>
      <trkpt lat="47.98336" lon="1.4583">
        <ele>123.988987</ele>
        <time>2024-07-30T20:02:51.507Z</time>
      </trkpt>
      <trkpt lat="47.98344" lon="1.45708">
        <ele>123.685403</ele>
        <time>2024-07-30T20:03:02.874Z</time>
      </trkpt>
      <trkpt lat="47.98374" lon="1.45363">
        <ele>123.455062</ele>
        <time>2024-07-30T20:03:36.467Z</time>
      </trkpt>
      <trkpt lat="47.98379" lon="1.45303">
        <ele>123.588744</ele>
        <time>2024-07-30T20:03:42.683Z</time>
      </trkpt>
      <trkpt lat="47.98394" lon="1.45081">
        <ele>124.21048</ele>
        <time>2024-07-30T20:04:07.909Z</time>
      </trkpt>
      <trkpt lat="47.98385" lon="1.44761">
        <ele>125.776437</ele>
        <time>2024-07-30T20:04:46.490Z</time>
      </trkpt>
      <trkpt lat="47.98374" lon="1.44557">
        <ele>126.797681</ele>
        <time>2024-07-30T20:05:10.883Z</time>
      </trkpt>
      <trkpt lat="47.98373" lon="1.44505">
        <ele>127.03429</ele>
        <time>2024-07-30T20:05:17.002Z</time>
      </trkpt>
      <trkpt lat="47.98386" lon="1.44027">
        <ele>128.963426</ele>
        <time>2024-07-30T20:06:12.421Z</time>
      </trkpt>
      <trkpt lat="47.98387" lon="1.43818">
        <ele>129.251594</ele>
        <time>2024-07-30T20:06:34.441Z</time>
      </trkpt>
      <trkpt lat="47.98394" lon="1.43727">
        <ele>129.151344</ele>
        <time>2024-07-30T20:06:43.128Z</time>
      </trkpt>
      <trkpt lat="47.9847" lon="1.43391">
        <ele>128.434184</ele>
        <time>2024-07-30T20:07:14.865Z</time>
      </trkpt>
      <trkpt lat="47.98519" lon="1.43161">
        <ele>128.094564</ele>
        <time>2024-07-30T20:07:39.013Z</time>
      </trkpt>
      <trkpt lat="47.98606" lon="1.42732">
        <ele>126.681021</ele>
        <time>2024-07-30T20:08:19.726Z</time>
      </trkpt>
      <trkpt lat="47.98615" lon="1.42676">
        <ele>125.982387</ele>
        <time>2024-07-30T20:08:24.210Z</time>
      </trkpt>
      <trkpt lat="47.98631" lon="1.42561">
        <ele>124.569622</ele>
        <time>2024-07-30T20:08:32.756Z</time>
      </trkpt>
      <trkpt lat="47.9866" lon="1.4242">
        <ele>122.888573</ele>
        <time>2024-07-30T20:08:43.149Z</time>
      </trkpt>
      <trkpt lat="47.98668" lon="1.42374">
        <ele>122.358787</ele>
        <time>2024-07-30T20:08:46.610Z</time>
      </trkpt>
      <trkpt lat="47.98672" lon="1.42326">
        <ele>121.831543</ele>
        <time>2024-07-30T20:08:50.208Z</time>
      </trkpt>
      <trkpt lat="47.98677" lon="1.42161">
        <ele>121.295035</ele>
        <time>2024-07-30T20:09:04.453Z</time>
      </trkpt>
      <trkpt lat="47.98692" lon="1.41613">
        <ele>125.947423</ele>
        <time>2024-07-30T20:10:22.078Z</time>
      </trkpt>
      <trkpt lat="47.98694" lon="1.41489">
        <ele>126.916381</ele>
        <time>2024-07-30T20:10:38.375Z</time>
      </trkpt>
      <trkpt lat="47.98699" lon="1.41328">
        <ele>127.617081</ele>
        <time>2024-07-30T20:10:57.015Z</time>
      </trkpt>
      <trkpt lat="47.98705" lon="1.41239">
        <ele>127.834439</ele>
        <time>2024-07-30T20:11:06.580Z</time>
      </trkpt>
      <trkpt lat="47.98724" lon="1.40996">
        <ele>128.069363</ele>
        <time>2024-07-30T20:11:31.256Z</time>
      </trkpt>
      <trkpt lat="47.98729" lon="1.40878">
        <ele>128.099179</ele>
        <time>2024-07-30T20:11:43.019Z</time>
      </trkpt>
      <trkpt lat="47.98725" lon="1.40489">
        <ele>128.137144</ele>
        <time>2024-07-30T20:12:21.497Z</time>
      </trkpt>
      <trkpt lat="47.98723" lon="1.40301">
        <ele>128.197195</ele>
        <time>2024-07-30T20:12:40.534Z</time>
      </trkpt>
      <trkpt lat="47.9873" lon="1.40174">
        <ele>128.252744</ele>
        <time>2024-07-30T20:12:53.548Z</time>
      </trkpt>
      <trkpt lat="47.98742" lon="1.40011">
        <ele>128.207318</ele>
        <time>2024-07-30T20:13:09.802Z</time>
      </trkpt>
      <trkpt lat="47.98751" lon="1.39858">
        <ele>128.050045</ele>
        <time>2024-07-30T20:13:24.372Z</time>
      </trkpt>
      <trkpt lat="47.98765" lon="1.39129">
        <ele>126.621756</ele>
        <time>2024-07-30T20:14:31.675Z</time>
      </trkpt>
      <trkpt lat="47.98771" lon="1.39092">
        <ele>126.547511</ele>
        <time>2024-07-30T20:14:35.305Z</time>
      </trkpt>
      <trkpt lat="47.98773" lon="1.39061">
        <ele>126.487789</ele>
        <time>2024-07-30T20:14:38.229Z</time>
      </trkpt>
      <trkpt lat="47.98767" lon="1.38986">
        <ele>126.297916</ele>
        <time>2024-07-30T20:14:45.228Z</time>
      </trkpt>
      <trkpt lat="47.98774" lon="1.38506">
        <ele>124.487712</ele>
        <time>2024-07-30T20:15:27.321Z</time>
      </trkpt>
      <trkpt lat="47.98767" lon="1.38177">
        <ele>122.98568</ele>
        <time>2024-07-30T20:15:54.393Z</time>
      </trkpt>
      <trkpt lat="47.98765" lon="1.37943">
        <ele>123.403598</ele>
        <time>2024-07-30T20:16:21.790Z</time>
      </trkpt>
      <trkpt lat="47.98769" lon="1.37526">
        <ele>123.100688</ele>
        <time>2024-07-30T20:17:05.617Z</time>
      </trkpt>
      <trkpt lat="47.98774" lon="1.37459">
        <ele>122.743056</ele>
        <time>2024-07-30T20:17:10.772Z</time>
      </trkpt>
      <trkpt lat="47.98801" lon="1.37348">
        <ele>121.504519</ele>
        <time>2024-07-30T20:17:19.182Z</time>
      </trkpt>
      <trkpt lat="47.98809" lon="1.37307">
        <ele>120.88158</ele>
        <time>2024-07-30T20:17:22.174Z</time>
      </trkpt>
      <trkpt lat="47.98809" lon="1.37277">
        <ele>120.445009</ele>
        <time>2024-07-30T20:17:24.269Z</time>
      </trkpt>
      <trkpt lat="47.98795" lon="1.37154">
        <ele>118.637875</ele>
        <time>2024-07-30T20:17:33.123Z</time>
      </trkpt>
      <trkpt lat="47.9877" lon="1.36812">
        <ele>117.695441</ele>
        <time>2024-07-30T20:18:03.342Z</time>
      </trkpt>
      <trkpt lat="47.9877" lon="1.36811">
        <ele>117.705316</ele>
        <time>2024-07-30T20:18:03.578Z</time>
      </trkpt>
      <trkpt lat="47.98765" lon="1.36655">
        <ele>118.66437</ele>
        <time>2024-07-30T20:18:24.907Z</time>
      </trkpt>
      <trkpt lat="47.98759" lon="1.3657">
        <ele>119.288784</ele>
        <time>2024-07-30T20:18:37.559Z</time>
      </trkpt>
      <trkpt lat="47.98749" lon="1.3647">
        <ele>120.13895</ele>
        <time>2024-07-30T20:18:52.383Z</time>
      </trkpt>
      <trkpt lat="47.98655" lon="1.35712">
        <ele>123.611507</ele>
        <time>2024-07-30T20:20:23.235Z</time>
      </trkpt>
      <trkpt lat="47.9863" lon="1.35495">
        <ele>123.116058</ele>
        <time>2024-07-30T20:20:42.372Z</time>
      </trkpt>
      <trkpt lat="47.98615" lon="1.35388">
        <ele>122.394925</ele>
        <time>2024-07-30T20:20:51.219Z</time>
      </trkpt>
      <trkpt lat="47.98573" lon="1.35174">
        <ele>120.787913</ele>
        <time>2024-07-30T20:21:09.149Z</time>
      </trkpt>
      <trkpt lat="47.98538" lon="1.34983">
        <ele>119.52442</ele>
        <time>2024-07-30T20:21:24.909Z</time>
      </trkpt>
      <trkpt lat="47.98513" lon="1.34864">
        <ele>119.172871</ele>
        <time>2024-07-30T20:21:35.416Z</time>
      </trkpt>
      <trkpt lat="47.98508" lon="1.34848">
        <ele>119.121975</ele>
        <time>2024-07-30T20:21:37.232Z</time>
      </trkpt>
      <trkpt lat="47.98434" lon="1.34717">
        <ele>120.059768</ele>
        <time>2024-07-30T20:21:56.992Z</time>
      </trkpt>
      <trkpt lat="47.98398" lon="1.34637">
        <ele>121.158547</ele>
        <time>2024-07-30T20:22:11.966Z</time>
      </trkpt>
      <trkpt lat="47.98364" lon="1.34576">
        <ele>122.090223</ele>
        <time>2024-07-30T20:22:25.693Z</time>
      </trkpt>
      <trkpt lat="47.98358" lon="1.34565">
        <ele>122.299282</ele>
        <time>2024-07-30T20:22:28.089Z</time>
      </trkpt>
      <trkpt lat="47.98332" lon="1.3449">
        <ele>123.54232</ele>
        <time>2024-07-30T20:22:43.137Z</time>
      </trkpt>
      <trkpt lat="47.98305" lon="1.34408">
        <ele>124.87424</ele>
        <time>2024-07-30T20:22:57.554Z</time>
      </trkpt>
      <trkpt lat="47.98302" lon="1.34399">
        <ele>125.012888</ele>
        <time>2024-07-30T20:22:59.027Z</time>
      </trkpt>
      <trkpt lat="47.98282" lon="1.34334">
        <ele>125.960105</ele>
        <time>2024-07-30T20:23:09.133Z</time>
      </trkpt>
      <trkpt lat="47.98264" lon="1.34281">
        <ele>126.164941</ele>
        <time>2024-07-30T20:23:16.726Z</time>
      </trkpt>
      <trkpt lat="47.9824" lon="1.34222">
        <ele>126.410101</ele>
        <time>2024-07-30T20:23:24.790Z</time>
      </trkpt>
      <trkpt lat="47.98225" lon="1.34188">
        <ele>126.549157</ele>
        <time>2024-07-30T20:23:29.064Z</time>
      </trkpt>
      <trkpt lat="47.98232" lon="1.34128">
        <ele>126.763648</ele>
        <time>2024-07-30T20:23:35.048Z</time>
      </trkpt>
      <trkpt lat="47.98235" lon="1.34116">
        <ele>126.809908</ele>
        <time>2024-07-30T20:23:36.275Z</time>
      </trkpt>
      <trkpt lat="47.98246" lon="1.34096">
        <ele>126.844846</ele>
        <time>2024-07-30T20:23:38.744Z</time>
      </trkpt>
      <trkpt lat="47.98373" lon="1.33914">
        <ele>126.235181</ele>
        <time>2024-07-30T20:24:02.705Z</time>
      </trkpt>
      <trkpt lat="47.98404" lon="1.33859">
        <ele>125.952432</ele>
        <time>2024-07-30T20:24:08.987Z</time>
      </trkpt>
      <trkpt lat="47.98432" lon="1.33798">
        <ele>125.661631</ele>
        <time>2024-07-30T20:24:15.467Z</time>
      </trkpt>
      <trkpt lat="47.98459" lon="1.33713">
        <ele>125.293093</ele>
        <time>2024-07-30T20:24:23.661Z</time>
      </trkpt>
      <trkpt lat="47.98486" lon="1.33625">
        <ele>124.798617</ele>
        <time>2024-07-30T20:24:32.035Z</time>
      </trkpt>
      <trkpt lat="47.98517" lon="1.33504">
        <ele>124.075214</ele>
        <time>2024-07-30T20:24:43.149Z</time>
      </trkpt>
      <trkpt lat="47.98542" lon="1.33382">
        <ele>123.13011</ele>
        <time>2024-07-30T20:24:53.190Z</time>
      </trkpt>
      <trkpt lat="47.98549" lon="1.33315">
        <ele>122.478647</ele>
        <time>2024-07-30T20:24:58.369Z</time>
      </trkpt>
      <trkpt lat="47.9856" lon="1.33145">
        <ele>120.95297</ele>
        <time>2024-07-30T20:25:11.375Z</time>
      </trkpt>
      <trkpt lat="47.9857" lon="1.32873">
        <ele>119.584981</ele>
        <time>2024-07-30T20:25:34.563Z</time>
      </trkpt>
      <trkpt lat="47.98577" lon="1.32502">
        <ele>118.862171</ele>
        <time>2024-07-30T20:26:12.905Z</time>
      </trkpt>
      <trkpt lat="47.98587" lon="1.3232">
        <ele>117.56003</ele>
        <time>2024-07-30T20:26:26.777Z</time>
      </trkpt>
      <trkpt lat="47.98589" lon="1.32254">
        <ele>116.711501</ele>
        <time>2024-07-30T20:26:31.571Z</time>
      </trkpt>
      <trkpt lat="47.98586" lon="1.32202">
        <ele>116.051335</ele>
        <time>2024-07-30T20:26:35.339Z</time>
      </trkpt>
      <trkpt lat="47.98578" lon="1.32143">
        <ele>115.274939</ele>
        <time>2024-07-30T20:26:39.843Z</time>
      </trkpt>
      <trkpt lat="47.98568" lon="1.32096">
        <ele>114.69772</ele>
        <time>2024-07-30T20:26:43.434Z</time>
      </trkpt>
      <trkpt lat="47.98545" lon="1.32015">
        <ele>114.046143</ele>
        <time>2024-07-30T20:26:50.100Z</time>
      </trkpt>
      <trkpt lat="47.98517" lon="1.31944">
        <ele>113.436694</ele>
        <time>2024-07-30T20:26:57.009Z</time>
      </trkpt>
      <trkpt lat="47.98488" lon="1.31889">
        <ele>112.92126</ele>
        <time>2024-07-30T20:27:03.161Z</time>
      </trkpt>
      <trkpt lat="47.98451" lon="1.31831">
        <ele>112.193022</ele>
        <time>2024-07-30T20:27:10.144Z</time>
      </trkpt>
      <trkpt lat="47.98427" lon="1.31781">
        <ele>111.596567</ele>
        <time>2024-07-30T20:27:15.115Z</time>
      </trkpt>
      <trkpt lat="47.98409" lon="1.31726">
        <ele>111.018907</ele>
        <time>2024-07-30T20:27:19.677Z</time>
      </trkpt>
      <trkpt lat="47.98388" lon="1.31635">
        <ele>110.001459</ele>
        <time>2024-07-30T20:27:26.902Z</time>
      </trkpt>
      <trkpt lat="47.98385" lon="1.31596">
        <ele>109.307516</ele>
        <time>2024-07-30T20:27:29.672Z</time>
      </trkpt>
      <trkpt lat="47.98385" lon="1.31544">
        <ele>108.369054</ele>
        <time>2024-07-30T20:27:33.347Z</time>
      </trkpt>
      <trkpt lat="47.98394" lon="1.31451">
        <ele>106.697572</ele>
        <time>2024-07-30T20:27:39.757Z</time>
      </trkpt>
      <trkpt lat="47.98392" lon="1.31412">
        <ele>105.997192</ele>
        <time>2024-07-30T20:27:42.460Z</time>
      </trkpt>
      <trkpt lat="47.98386" lon="1.31371">
        <ele>105.316248</ele>
        <time>2024-07-30T20:27:45.310Z</time>
      </trkpt>
      <trkpt lat="47.98368" lon="1.31301">
        <ele>104.516717</ele>
        <time>2024-07-30T20:27:50.656Z</time>
      </trkpt>
      <trkpt lat="47.98363" lon="1.31266">
        <ele>104.135357</ele>
        <time>2024-07-30T20:27:53.302Z</time>
      </trkpt>
      <trkpt lat="47.98364" lon="1.31236">
        <ele>103.822628</ele>
        <time>2024-07-30T20:27:55.532Z</time>
      </trkpt>
      <trkpt lat="47.98369" lon="1.31209">
        <ele>103.522195</ele>
        <time>2024-07-30T20:27:57.770Z</time>
      </trkpt>
      <trkpt lat="47.98373" lon="1.31196">
        <ele>103.371922</ele>
        <time>2024-07-30T20:27:58.937Z</time>
      </trkpt>
      <trkpt lat="47.98377" lon="1.31186">
        <ele>103.242014</ele>
        <time>2024-07-30T20:27:59.891Z</time>
      </trkpt>
      <trkpt lat="47.98403" lon="1.31145">
        <ele>102.650322</ele>
        <time>2024-07-30T20:28:04.662Z</time>
      </trkpt>
      <trkpt lat="47.98471" lon="1.31074">
        <ele>102.541506</ele>
        <time>2024-07-30T20:28:16.987Z</time>
      </trkpt>
      <trkpt lat="47.98544" lon="1.31006">
        <ele>102.530662</ele>
        <time>2024-07-30T20:28:30.524Z</time>
      </trkpt>
      <trkpt lat="47.98613" lon="1.30924">
        <ele>102.410926</ele>
        <time>2024-07-30T20:28:43.446Z</time>
      </trkpt>
      <trkpt lat="47.98652" lon="1.30877">
        <ele>102.327693</ele>
        <time>2024-07-30T20:28:50.463Z</time>
      </trkpt>
      <trkpt lat="47.98659" lon="1.30868">
        <ele>102.311753</ele>
        <time>2024-07-30T20:28:51.761Z</time>
      </trkpt>
      <trkpt lat="47.98732" lon="1.30788">
        <ele>102.232385</ele>
        <time>2024-07-30T20:29:04.131Z</time>
      </trkpt>
      <trkpt lat="47.98732" lon="1.30756">
        <ele>102.233389</ele>
        <time>2024-07-30T20:29:07.172Z</time>
      </trkpt>
      <trkpt lat="47.9872" lon="1.30658">
        <ele>102.236422</ele>
        <time>2024-07-30T20:29:17.108Z</time>
      </trkpt>
      <trkpt lat="47.98716" lon="1.30544">
        <ele>102.286588</ele>
        <time>2024-07-30T20:29:29.522Z</time>
      </trkpt>
      <trkpt lat="47.987" lon="1.30436">
        <ele>102.426608</ele>
        <time>2024-07-30T20:29:41.325Z</time>
      </trkpt>
      <trkpt lat="47.98693" lon="1.30388">
        <ele>102.488444</ele>
        <time>2024-07-30T20:29:46.223Z</time>
      </trkpt>
      <trkpt lat="47.98679" lon="1.30319">
        <ele>102.58748</ele>
        <time>2024-07-30T20:29:53.367Z</time>
      </trkpt>
      <trkpt lat="47.98644" lon="1.30157">
        <ele>103.735385</ele>
        <time>2024-07-30T20:30:11.830Z</time>
      </trkpt>
      <trkpt lat="47.98609" lon="1.30005">
        <ele>105.610843</ele>
        <time>2024-07-30T20:30:36.952Z</time>
      </trkpt>
      <trkpt lat="47.98598" lon="1.29969">
        <ele>106.364365</ele>
        <time>2024-07-30T20:30:44.253Z</time>
      </trkpt>
      <trkpt lat="47.98544" lon="1.29861">
        <ele>108.922456</ele>
        <time>2024-07-30T20:31:09.467Z</time>
      </trkpt>
      <trkpt lat="47.98539" lon="1.29835">
        <ele>109.438973</ele>
        <time>2024-07-30T20:31:14.285Z</time>
      </trkpt>
      <trkpt lat="47.98536" lon="1.29809">
        <ele>109.772729</ele>
        <time>2024-07-30T20:31:19.102Z</time>
      </trkpt>
      <trkpt lat="47.98534" lon="1.29734">
        <ele>110.656637</ele>
        <time>2024-07-30T20:31:31.753Z</time>
      </trkpt>
      <trkpt lat="47.98531" lon="1.29514">
        <ele>112.840466</ele>
        <time>2024-07-30T20:32:00.458Z</time>
      </trkpt>
      <trkpt lat="47.98529" lon="1.29456">
        <ele>113.052513</ele>
        <time>2024-07-30T20:32:07.077Z</time>
      </trkpt>
      <trkpt lat="47.98521" lon="1.29259">
        <ele>113.524491</ele>
        <time>2024-07-30T20:32:28.583Z</time>
      </trkpt>
      <trkpt lat="47.98514" lon="1.29159">
        <ele>113.180581</ele>
        <time>2024-07-30T20:32:38.128Z</time>
      </trkpt>
      <trkpt lat="47.98513" lon="1.29082">
        <ele>112.921852</ele>
        <time>2024-07-30T20:32:44.585Z</time>
      </trkpt>
      <trkpt lat="47.98547" lon="1.28712">
        <ele>109.379172</ele>
        <time>2024-07-30T20:33:13.721Z</time>
      </trkpt>
      <trkpt lat="47.98558" lon="1.28613">
        <ele>107.773543</ele>
        <time>2024-07-30T20:33:20.914Z</time>
      </trkpt>
      <trkpt lat="47.98565" lon="1.28569">
        <ele>107.052431</ele>
        <time>2024-07-30T20:33:24.003Z</time>
      </trkpt>
      <trkpt lat="47.98572" lon="1.28529">
        <ele>106.392986</ele>
        <time>2024-07-30T20:33:26.845Z</time>
      </trkpt>
      <trkpt lat="47.98574" lon="1.28499">
        <ele>105.903766</ele>
        <time>2024-07-30T20:33:28.938Z</time>
      </trkpt>
      <trkpt lat="47.9857" lon="1.28433">
        <ele>104.832193</ele>
        <time>2024-07-30T20:33:33.500Z</time>
      </trkpt>
      <trkpt lat="47.98568" lon="1.28357">
        <ele>103.601277</ele>
        <time>2024-07-30T20:33:38.787Z</time>
      </trkpt>
      <trkpt lat="47.98573" lon="1.28256">
        <ele>101.97646</ele>
        <time>2024-07-30T20:33:45.962Z</time>
      </trkpt>
      <trkpt lat="47.98584" lon="1.28191">
        <ele>101.467495</ele>
        <time>2024-07-30T20:33:51.153Z</time>
      </trkpt>
      <trkpt lat="47.98584" lon="1.2818">
        <ele>101.449968</ele>
        <time>2024-07-30T20:33:52.081Z</time>
      </trkpt>
      <trkpt lat="47.98581" lon="1.28167">
        <ele>101.429787</ele>
        <time>2024-07-30T20:33:53.137Z</time>
      </trkpt>
      <trkpt lat="47.98574" lon="1.28155">
        <ele>101.404729</ele>
        <time>2024-07-30T20:33:54.465Z</time>
      </trkpt>
      <trkpt lat="47.98574" lon="1.28115">
        <ele>101.342295</ele>
        <time>2024-07-30T20:33:58.277Z</time>
      </trkpt>
      <trkpt lat="47.98575" lon="1.28012">
        <ele>101.181585</ele>
        <time>2024-07-30T20:34:09.401Z</time>
      </trkpt>
      <trkpt lat="47.9858" lon="1.27957">
        <ele>101.143736</ele>
        <time>2024-07-30T20:34:15.941Z</time>
      </trkpt>
      <trkpt lat="47.98586" lon="1.27926">
        <ele>101.263242</ele>
        <time>2024-07-30T20:34:19.938Z</time>
      </trkpt>
      <trkpt lat="47.98626" lon="1.27769">
        <ele>101.886501</ele>
        <time>2024-07-30T20:34:40.252Z</time>
      </trkpt>
      <trkpt lat="47.98634" lon="1.27728">
        <ele>102.047474</ele>
        <time>2024-07-30T20:34:45.051Z</time>
      </trkpt>
      <trkpt lat="47.98663" lon="1.27484">
        <ele>101.446944</ele>
        <time>2024-07-30T20:35:07.625Z</time>
      </trkpt>
      <trkpt lat="47.98666" lon="1.27446">
        <ele>101.331433</ele>
        <time>2024-07-30T20:35:10.732Z</time>
      </trkpt>
      <trkpt lat="47.98664" lon="1.2744">
        <ele>101.28741</ele>
        <time>2024-07-30T20:35:11.271Z</time>
      </trkpt>
      <trkpt lat="47.98661" lon="1.27383">
        <ele>100.91225</ele>
        <time>2024-07-30T20:35:15.830Z</time>
      </trkpt>
      <trkpt lat="47.98659" lon="1.27353">
        <ele>100.716932</ele>
        <time>2024-07-30T20:35:18.207Z</time>
      </trkpt>
      <trkpt lat="47.98637" lon="1.27097">
        <ele>99.529071</ele>
        <time>2024-07-30T20:35:39.315Z</time>
      </trkpt>
      <trkpt lat="47.98623" lon="1.26994">
        <ele>99.460215</ele>
        <time>2024-07-30T20:35:49.422Z</time>
      </trkpt>
      <trkpt lat="47.98572" lon="1.26772">
        <ele>100.504445</ele>
        <time>2024-07-30T20:36:18.602Z</time>
      </trkpt>
      <trkpt lat="47.98555" lon="1.26711">
        <ele>100.967456</ele>
        <time>2024-07-30T20:36:27.616Z</time>
      </trkpt>
      <trkpt lat="47.9852" lon="1.26601">
        <ele>101.681263</ele>
        <time>2024-07-30T20:36:43.592Z</time>
      </trkpt>
      <trkpt lat="47.985" lon="1.26511">
        <ele>102.163546</ele>
        <time>2024-07-30T20:36:55.185Z</time>
      </trkpt>
      <trkpt lat="47.98494" lon="1.26492">
        <ele>102.27236</ele>
        <time>2024-07-30T20:36:57.718Z</time>
      </trkpt>
      <trkpt lat="47.98479" lon="1.26463">
        <ele>102.460467</ele>
        <time>2024-07-30T20:37:01.961Z</time>
      </trkpt>
      <trkpt lat="47.98388" lon="1.2633">
        <ele>102.369628</ele>
        <time>2024-07-30T20:37:21.052Z</time>
      </trkpt>
      <trkpt lat="47.98358" lon="1.26273">
        <ele>102.222767</ele>
        <time>2024-07-30T20:37:27.405Z</time>
      </trkpt>
      <trkpt lat="47.98321" lon="1.26172">
        <ele>101.600086</ele>
        <time>2024-07-30T20:37:36.865Z</time>
      </trkpt>
      <trkpt lat="47.98308" lon="1.26109">
        <ele>101.094479</ele>
        <time>2024-07-30T20:37:42.051Z</time>
      </trkpt>
      <trkpt lat="47.98303" lon="1.26075">
        <ele>100.830965</ele>
        <time>2024-07-30T20:37:44.749Z</time>
      </trkpt>
      <trkpt lat="47.98295" lon="1.26049">
        <ele>100.610017</ele>
        <time>2024-07-30T20:37:46.977Z</time>
      </trkpt>
      <trkpt lat="47.98287" lon="1.26034">
        <ele>100.459158</ele>
        <time>2024-07-30T20:37:48.518Z</time>
      </trkpt>
      <trkpt lat="47.98237" lon="1.25995">
        <ele>99.900539</ele>
        <time>2024-07-30T20:37:55.087Z</time>
      </trkpt>
      <trkpt lat="47.98069" lon="1.25881">
        <ele>98.797833</ele>
        <time>2024-07-30T20:38:18.838Z</time>
      </trkpt>
      <trkpt lat="47.98214" lon="1.25657">
        <ele>99.592441</ele>
        <time>2024-07-30T20:38:54.356Z</time>
      </trkpt>
      <trkpt lat="47.98232" lon="1.25626">
        <ele>99.768943</ele>
        <time>2024-07-30T20:38:59.208Z</time>
      </trkpt>
      <trkpt lat="47.98346" lon="1.25368">
        <ele>100.762026</ele>
        <time>2024-07-30T20:39:35.483Z</time>
      </trkpt>
      <trkpt lat="47.98396" lon="1.25289">
        <ele>100.96828</ele>
        <time>2024-07-30T20:39:46.117Z</time>
      </trkpt>
      <trkpt lat="47.98397" lon="1.25285">
        <ele>100.949616</ele>
        <time>2024-07-30T20:39:46.530Z</time>
      </trkpt>
      <trkpt lat="47.98409" lon="1.25263">
        <ele>100.833192</ele>
        <time>2024-07-30T20:39:49.141Z</time>
      </trkpt>
      <trkpt lat="47.9844" lon="1.25168">
        <ele>100.403295</ele>
        <time>2024-07-30T20:39:58.225Z</time>
      </trkpt>
      <trkpt lat="47.98469" lon="1.25092">
        <ele>100.050583</ele>
        <time>2024-07-30T20:40:05.437Z</time>
      </trkpt>
      <trkpt lat="47.98526" lon="1.24976">
        <ele>99.566831</ele>
        <time>2024-07-30T20:40:17.596Z</time>
      </trkpt>
      <trkpt lat="47.98591" lon="1.24853">
        <ele>99.083841</ele>
        <time>2024-07-30T20:40:31.849Z</time>
      </trkpt>
      <trkpt lat="47.98612" lon="1.2482">
        <ele>99.187813</ele>
        <time>2024-07-30T20:40:36.594Z</time>
      </trkpt>
      <trkpt lat="47.98636" lon="1.24791">
        <ele>99.337402</ele>
        <time>2024-07-30T20:40:41.590Z</time>
      </trkpt>
      <trkpt lat="47.98675" lon="1.24755">
        <ele>99.563419</ele>
        <time>2024-07-30T20:40:49.489Z</time>
      </trkpt>
      <trkpt lat="47.98687" lon="1.24744">
        <ele>99.633652</ele>
        <time>2024-07-30T20:40:51.886Z</time>
      </trkpt>
      <trkpt lat="47.98712" lon="1.2473">
        <ele>99.762698</ele>
        <time>2024-07-30T20:40:56.563Z</time>
      </trkpt>
      <trkpt lat="47.98754" lon="1.24718">
        <ele>100.009823</ele>
        <time>2024-07-30T20:41:04.274Z</time>
      </trkpt>
      <trkpt lat="47.98773" lon="1.24709">
        <ele>100.232977</ele>
        <time>2024-07-30T20:41:08.041Z</time>
      </trkpt>
      <trkpt lat="47.98822" lon="1.24669">
        <ele>100.858791</ele>
        <time>2024-07-30T20:41:19.055Z</time>
      </trkpt>
      <trkpt lat="47.98901" lon="1.24567">
        <ele>101.995617</ele>
        <time>2024-07-30T20:41:39.785Z</time>
      </trkpt>
      <trkpt lat="47.98989" lon="1.24498">
        <ele>102.652969</ele>
        <time>2024-07-30T20:41:58.206Z</time>
      </trkpt>
      <trkpt lat="47.99024" lon="1.24461">
        <ele>102.932968</ele>
        <time>2024-07-30T20:42:05.448Z</time>
      </trkpt>
      <trkpt lat="47.99051" lon="1.2443">
        <ele>103.100906</ele>
        <time>2024-07-30T20:42:10.953Z</time>
      </trkpt>
      <trkpt lat="47.99104" lon="1.24354">
        <ele>102.110849</ele>
        <time>2024-07-30T20:42:20.523Z</time>
      </trkpt>
      <trkpt lat="47.99174" lon="1.24277">
        <ele>100.954674</ele>
        <time>2024-07-30T20:42:29.928Z</time>
      </trkpt>
      <trkpt lat="47.99164" lon="1.24253">
        <ele>100.693139</ele>
        <time>2024-07-30T20:42:31.926Z</time>
      </trkpt>
      <trkpt lat="47.99157" lon="1.24217">
        <ele>100.215486</ele>
        <time>2024-07-30T20:42:34.634Z</time>
      </trkpt>
      <trkpt lat="47.99155" lon="1.24135">
        <ele>99.172419</ele>
        <time>2024-07-30T20:42:40.555Z</time>
      </trkpt>
      <trkpt lat="47.99159" lon="1.24104">
        <ele>98.771255</ele>
        <time>2024-07-30T20:42:42.832Z</time>
      </trkpt>
      <trkpt lat="47.9919" lon="1.23956">
        <ele>97.192697</ele>
        <time>2024-07-30T20:42:54.571Z</time>
      </trkpt>
      <trkpt lat="47.99196" lon="1.23935">
        <ele>97.130278</ele>
        <time>2024-07-30T20:42:56.484Z</time>
      </trkpt>
      <trkpt lat="47.99206" lon="1.23917">
        <ele>97.063739</ele>
        <time>2024-07-30T20:42:58.633Z</time>
      </trkpt>
      <trkpt lat="47.99231" lon="1.23882">
        <ele>96.923831</ele>
        <time>2024-07-30T20:43:03.564Z</time>
      </trkpt>
      <trkpt lat="47.99266" lon="1.23848">
        <ele>96.752498</ele>
        <time>2024-07-30T20:43:09.795Z</time>
      </trkpt>
      <trkpt lat="47.99485" lon="1.2364">
        <ele>96.806166</ele>
        <time>2024-07-30T20:43:49.470Z</time>
      </trkpt>
      <trkpt lat="47.99503" lon="1.23621">
        <ele>96.82592</ele>
        <time>2024-07-30T20:43:52.895Z</time>
      </trkpt>
      <trkpt lat="47.99505" lon="1.23619">
        <ele>96.828305</ele>
        <time>2024-07-30T20:43:53.315Z</time>
      </trkpt>
      <trkpt lat="47.9952" lon="1.23601">
        <ele>96.84504</ele>
        <time>2024-07-30T20:43:56.212Z</time>
      </trkpt>
      <trkpt lat="47.99538" lon="1.23581">
        <ele>96.864754</ele>
        <time>2024-07-30T20:43:59.607Z</time>
      </trkpt>
      <trkpt lat="47.99541" lon="1.23578">
        <ele>96.867993</ele>
        <time>2024-07-30T20:44:00.176Z</time>
      </trkpt>
      <trkpt lat="47.99568" lon="1.23542">
        <ele>96.899982</ele>
        <time>2024-07-30T20:44:05.390Z</time>
      </trkpt>
      <trkpt lat="47.99585" lon="1.23513">
        <ele>96.923082</ele>
        <time>2024-07-30T20:44:09.117Z</time>
      </trkpt>
      <trkpt lat="47.99597" lon="1.23485">
        <ele>96.978135</ele>
        <time>2024-07-30T20:44:12.417Z</time>
      </trkpt>
      <trkpt lat="47.9961" lon="1.23455">
        <ele>97.126678</ele>
        <time>2024-07-30T20:44:16.128Z</time>
      </trkpt>
      <trkpt lat="47.99626" lon="1.23426">
        <ele>97.281247</ele>
        <time>2024-07-30T20:44:20.186Z</time>
      </trkpt>
      <trkpt lat="47.99631" lon="1.23419">
        <ele>97.323012</ele>
        <time>2024-07-30T20:44:21.404Z</time>
      </trkpt>
      <trkpt lat="47.99622" lon="1.23367">
        <ele>97.542261</ele>
        <time>2024-07-30T20:44:27.440Z</time>
      </trkpt>
      <trkpt lat="47.99586" lon="1.23252">
        <ele>98.068556</ele>
        <time>2024-07-30T20:44:43.159Z</time>
      </trkpt>
      <trkpt lat="47.99578" lon="1.23211">
        <ele>98.32445</ele>
        <time>2024-07-30T20:44:49.045Z</time>
      </trkpt>
      <trkpt lat="47.99573" lon="1.23191">
        <ele>98.44789</ele>
        <time>2024-07-30T20:44:51.741Z</time>
      </trkpt>
      <trkpt lat="47.99574" lon="1.23177">
        <ele>98.529587</ele>
        <time>2024-07-30T20:44:53.637Z</time>
      </trkpt>
      <trkpt lat="47.99556" lon="1.23088">
        <ele>99.080389</ele>
        <time>2024-07-30T20:45:05.707Z</time>
      </trkpt>
      <trkpt lat="47.99552" lon="1.2307">
        <ele>99.188775</ele>
        <time>2024-07-30T20:45:08.056Z</time>
      </trkpt>
      <trkpt lat="47.99584" lon="1.23066">
        <ele>99.473077</ele>
        <time>2024-07-30T20:45:13.650Z</time>
      </trkpt>
      <trkpt lat="47.99622" lon="1.23059">
        <ele>99.709807</ele>
        <time>2024-07-30T20:45:19.438Z</time>
      </trkpt>
      <trkpt lat="47.99666" lon="1.23042">
        <ele>99.902881</ele>
        <time>2024-07-30T20:45:26.161Z</time>
      </trkpt>
      <trkpt lat="47.99694" lon="1.23036">
        <ele>100.022798</ele>
        <time>2024-07-30T20:45:30.496Z</time>
      </trkpt>
      <trkpt lat="47.99746" lon="1.2303">
        <ele>100.243441</ele>
        <time>2024-07-30T20:45:38.918Z</time>
      </trkpt>
      <trkpt lat="47.99755" lon="1.23027">
        <ele>100.285508</ele>
        <time>2024-07-30T20:45:40.442Z</time>
      </trkpt>
      <trkpt lat="47.99789" lon="1.23006">
        <ele>100.528992</ele>
        <time>2024-07-30T20:45:47.417Z</time>
      </trkpt>
      <trkpt lat="47.99845" lon="1.22967">
        <ele>101.18658</ele>
        <time>2024-07-30T20:46:00.069Z</time>
      </trkpt>
      <trkpt lat="47.99848" lon="1.22972">
        <ele>101.228622</ele>
        <time>2024-07-30T20:46:00.691Z</time>
      </trkpt>
      <trkpt lat="47.99852" lon="1.22974">
        <ele>101.275143</ele>
        <time>2024-07-30T20:46:01.381Z</time>
      </trkpt>
      <trkpt lat="47.99941" lon="1.2292">
        <ele>102.300009</ele>
        <time>2024-07-30T20:46:20.372Z</time>
      </trkpt>
      <trkpt lat="47.99954" lon="1.22972">
        <ele>102.403375</ele>
        <time>2024-07-30T20:46:27.044Z</time>
      </trkpt>
      <trkpt lat="47.99976" lon="1.23013">
        <ele>102.504612</ele>
        <time>2024-07-30T20:46:32.910Z</time>
      </trkpt>
      <trkpt lat="47.99999" lon="1.23028">
        <ele>102.57531</ele>
        <time>2024-07-30T20:46:36.582Z</time>
      </trkpt>
      <trkpt lat="48.00089" lon="1.23003">
        <ele>102.873266</ele>
        <time>2024-07-30T20:46:49.348Z</time>
      </trkpt>
      <trkpt lat="48.00141" lon="1.23002">
        <ele>103.23869</ele>
        <time>2024-07-30T20:46:58.082Z</time>
      </trkpt>
      <trkpt lat="48.00176" lon="1.22994">
        <ele>103.490716</ele>
        <time>2024-07-30T20:47:04.924Z</time>
      </trkpt>
      <trkpt lat="48.00179" lon="1.22993">
        <ele>103.517262</ele>
        <time>2024-07-30T20:47:05.645Z</time>
      </trkpt>
      <trkpt lat="48.00242" lon="1.22984">
        <ele>103.961714</ele>
        <time>2024-07-30T20:47:17.546Z</time>
      </trkpt>
      <trkpt lat="48.00302" lon="1.22992">
        <ele>104.194439</ele>
        <time>2024-07-30T20:47:28.520Z</time>
      </trkpt>
      <trkpt lat="48.00335" lon="1.23003">
        <ele>104.282945</ele>
        <time>2024-07-30T20:47:34.248Z</time>
      </trkpt>
      <trkpt lat="48.00479" lon="1.23047">
        <ele>104.375491</ele>
        <time>2024-07-30T20:47:55.382Z</time>
      </trkpt>
      <trkpt lat="48.00533" lon="1.23073">
        <ele>104.160705</ele>
        <time>2024-07-30T20:48:02.951Z</time>
      </trkpt>
      <trkpt lat="48.00584" lon="1.2311">
        <ele>103.942605</ele>
        <time>2024-07-30T20:48:10.599Z</time>
      </trkpt>
      <trkpt lat="48.00694" lon="1.23169">
        <ele>103.59486</ele>
        <time>2024-07-30T20:48:25.688Z</time>
      </trkpt>
      <trkpt lat="48.00769" lon="1.23231">
        <ele>103.358446</ele>
        <time>2024-07-30T20:48:38.299Z</time>
      </trkpt>
      <trkpt lat="48.00804" lon="1.23246">
        <ele>103.387154</ele>
        <time>2024-07-30T20:48:44.204Z</time>
      </trkpt>
      <trkpt lat="48.00925" lon="1.23315">
        <ele>103.489498</ele>
        <time>2024-07-30T20:49:11.772Z</time>
      </trkpt>
      <trkpt lat="48.00956" lon="1.23336">
        <ele>103.394294</ele>
        <time>2024-07-30T20:49:18.446Z</time>
      </trkpt>
      <trkpt lat="48.01035" lon="1.23399">
        <ele>102.94595</ele>
        <time>2024-07-30T20:49:33.728Z</time>
      </trkpt>
      <trkpt lat="48.01122" lon="1.23484">
        <ele>104.341389</ele>
        <time>2024-07-30T20:49:53.282Z</time>
      </trkpt>
      <trkpt lat="48.01125" lon="1.23502">
        <ele>104.958043</ele>
        <time>2024-07-30T20:49:56.480Z</time>
      </trkpt>
      <trkpt lat="48.01128" lon="1.23502">
        <ele>105.0899</ele>
        <time>2024-07-30T20:49:57.002Z</time>
      </trkpt>
      <trkpt lat="48.01131" lon="1.23495">
        <ele>105.352172</ele>
        <time>2024-07-30T20:49:58.050Z</time>
      </trkpt>
      <trkpt lat="48.01138" lon="1.23492">
        <ele>105.71648</ele>
        <time>2024-07-30T20:49:59.700Z</time>
      </trkpt>
      <trkpt lat="48.01165" lon="1.23506">
        <ele>107.15878</ele>
        <time>2024-07-30T20:50:09.519Z</time>
      </trkpt>
      <trkpt lat="48.0119" lon="1.23521">
        <ele>108.528324</ele>
        <time>2024-07-30T20:50:20.835Z</time>
      </trkpt>
      <trkpt lat="48.01258" lon="1.23577">
        <ele>113.086075</ele>
        <time>2024-07-30T20:51:00.141Z</time>
      </trkpt>
      <trkpt lat="48.01263" lon="1.23579">
        <ele>113.544516</ele>
        <time>2024-07-30T20:51:02.797Z</time>
      </trkpt>
      <trkpt lat="48.01274" lon="1.23578">
        <ele>114.603105</ele>
        <time>2024-07-30T20:51:09.183Z</time>
      </trkpt>
      <trkpt lat="48.01292" lon="1.23561">
        <ele>116.557739</ele>
        <time>2024-07-30T20:51:20.934Z</time>
      </trkpt>
      <trkpt lat="48.01304" lon="1.2355">
        <ele>117.821391</ele>
        <time>2024-07-30T20:51:28.684Z</time>
      </trkpt>
      <trkpt lat="48.01347" lon="1.23533">
        <ele>121.899891</ele>
        <time>2024-07-30T20:51:53.108Z</time>
      </trkpt>
      <trkpt lat="48.01388" lon="1.23523">
        <ele>125.715482</ele>
        <time>2024-07-30T20:52:14.977Z</time>
      </trkpt>
      <trkpt lat="48.014" lon="1.23524">
        <ele>126.791103</ele>
        <time>2024-07-30T20:52:20.848Z</time>
      </trkpt>
      <trkpt lat="48.01432" lon="1.23521">
        <ele>128.917264</ele>
        <time>2024-07-30T20:52:36.718Z</time>
      </trkpt>
      <trkpt lat="48.01456" lon="1.23507">
        <ele>129.993754</ele>
        <time>2024-07-30T20:52:47.411Z</time>
      </trkpt>
      <trkpt lat="48.01467" lon="1.23502">
        <ele>130.474552</ele>
        <time>2024-07-30T20:52:51.312Z</time>
      </trkpt>
      <trkpt lat="48.01492" lon="1.23557">
        <ele>132.335717</ele>
        <time>2024-07-30T20:53:04.402Z</time>
      </trkpt>
      <trkpt lat="48.01495" lon="1.23562">
        <ele>132.520382</ele>
        <time>2024-07-30T20:53:05.553Z</time>
      </trkpt>
      <trkpt lat="48.01518" lon="1.23596">
        <ele>133.855816</ele>
        <time>2024-07-30T20:53:13.550Z</time>
      </trkpt>
      <trkpt lat="48.0155" lon="1.23627">
        <ele>135.406139</ele>
        <time>2024-07-30T20:53:22.068Z</time>
      </trkpt>
      <trkpt lat="48.0159" lon="1.2365">
        <ele>136.080926</ele>
        <time>2024-07-30T20:53:31.280Z</time>
      </trkpt>
      <trkpt lat="48.01622" lon="1.23693">
        <ele>136.543959</ele>
        <time>2024-07-30T20:53:39.588Z</time>
      </trkpt>
      <trkpt lat="48.01658" lon="1.2374">
        <ele>137.058155</ele>
        <time>2024-07-30T20:53:48.109Z</time>
      </trkpt>
      <trkpt lat="48.01689" lon="1.23791">
        <ele>137.559093</ele>
        <time>2024-07-30T20:53:56.223Z</time>
      </trkpt>
      <trkpt lat="48.0176" lon="1.2389">
        <ele>138.179834</ele>
        <time>2024-07-30T20:54:13.150Z</time>
      </trkpt>
      <trkpt lat="48.01844" lon="1.24026">
        <ele>138.662777</ele>
        <time>2024-07-30T20:54:34.497Z</time>
      </trkpt>
      <trkpt lat="48.01898" lon="1.24093">
        <ele>138.544413</ele>
        <time>2024-07-30T20:54:44.732Z</time>
      </trkpt>
      <trkpt lat="48.0191" lon="1.24128">
        <ele>138.500153</ele>
        <time>2024-07-30T20:54:48.226Z</time>
      </trkpt>
      <trkpt lat="48.01921" lon="1.24198">
        <ele>138.418602</ele>
        <time>2024-07-30T20:54:54.445Z</time>
      </trkpt>
      <trkpt lat="48.01934" lon="1.24232">
        <ele>138.27076</ele>
        <time>2024-07-30T20:54:57.702Z</time>
      </trkpt>
      <trkpt lat="48.0195" lon="1.24255">
        <ele>138.142917</ele>
        <time>2024-07-30T20:55:00.391Z</time>
      </trkpt>
      <trkpt lat="48.02004" lon="1.24307">
        <ele>137.772234</ele>
        <time>2024-07-30T20:55:08.252Z</time>
      </trkpt>
      <trkpt lat="48.02039" lon="1.2435">
        <ele>137.509965</ele>
        <time>2024-07-30T20:55:14.368Z</time>
      </trkpt>
      <trkpt lat="48.02073" lon="1.24415">
        <ele>137.628128</ele>
        <time>2024-07-30T20:55:22.933Z</time>
      </trkpt>
      <trkpt lat="48.021" lon="1.2446">
        <ele>137.940208</ele>
        <time>2024-07-30T20:55:29.968Z</time>
      </trkpt>
      <trkpt lat="48.02139" lon="1.24512">
        <ele>138.347393</ele>
        <time>2024-07-30T20:55:39.911Z</time>
      </trkpt>
      <trkpt lat="48.02173" lon="1.24543">
        <ele>138.653335</ele>
        <time>2024-07-30T20:55:47.688Z</time>
      </trkpt>
      <trkpt lat="48.02259" lon="1.24602">
        <ele>139.407532</ele>
        <time>2024-07-30T20:56:05.993Z</time>
      </trkpt>
      <trkpt lat="48.023" lon="1.24622">
        <ele>139.757222</ele>
        <time>2024-07-30T20:56:14.157Z</time>
      </trkpt>
      <trkpt lat="48.02357" lon="1.24681">
        <ele>140.036487</ele>
        <time>2024-07-30T20:56:25.695Z</time>
      </trkpt>
      <trkpt lat="48.02391" lon="1.24693">
        <ele>139.538974</ele>
        <time>2024-07-30T20:56:30.673Z</time>
      </trkpt>
      <trkpt lat="48.02426" lon="1.24698">
        <ele>139.039764</ele>
        <time>2024-07-30T20:56:35.151Z</time>
      </trkpt>
      <trkpt lat="48.02539" lon="1.24762">
        <ele>136.495558</ele>
        <time>2024-07-30T20:56:48.136Z</time>
      </trkpt>
      <trkpt lat="48.02594" lon="1.248">
        <ele>133.480395</ele>
        <time>2024-07-30T20:56:54.027Z</time>
      </trkpt>
      <trkpt lat="48.02671" lon="1.24965">
        <ele>125.944563</ele>
        <time>2024-07-30T20:57:06.346Z</time>
      </trkpt>
      <trkpt lat="48.02738" lon="1.25087">
        <ele>118.357064</ele>
        <time>2024-07-30T20:57:15.689Z</time>
      </trkpt>
      <trkpt lat="48.02796" lon="1.25241">
        <ele>110.866003</ele>
        <time>2024-07-30T20:57:26.291Z</time>
      </trkpt>
      <trkpt lat="48.02798" lon="1.25263">
        <ele>109.953895</ele>
        <time>2024-07-30T20:57:27.688Z</time>
      </trkpt>
      <trkpt lat="48.02798" lon="1.25271">
        <ele>109.638415</ele>
        <time>2024-07-30T20:57:28.181Z</time>
      </trkpt>
      <trkpt lat="48.0279" lon="1.253">
        <ele>108.401423</ele>
        <time>2024-07-30T20:57:30.089Z</time>
      </trkpt>
      <trkpt lat="48.02785" lon="1.25338">
        <ele>106.829129</ele>
        <time>2024-07-30T20:57:32.573Z</time>
      </trkpt>
      <trkpt lat="48.02776" lon="1.25453">
        <ele>103.927262</ele>
        <time>2024-07-30T20:57:40.069Z</time>
      </trkpt>
      <trkpt lat="48.02772" lon="1.25484">
        <ele>103.401433</ele>
        <time>2024-07-30T20:57:42.290Z</time>
      </trkpt>
      <trkpt lat="48.02768" lon="1.25499">
        <ele>103.129719</ele>
        <time>2024-07-30T20:57:43.438Z</time>
      </trkpt>
      <trkpt lat="48.02758" lon="1.255">
        <ele>102.895334</ele>
        <time>2024-07-30T20:57:44.452Z</time>
      </trkpt>
      <trkpt lat="48.02728" lon="1.25484">
        <ele>102.118995</ele>
        <time>2024-07-30T20:57:47.968Z</time>
      </trkpt>
      <trkpt lat="48.02712" lon="1.25488">
        <ele>101.720038</ele>
        <time>2024-07-30T20:57:49.874Z</time>
      </trkpt>
      <trkpt lat="48.02718" lon="1.25507">
        <ele>101.370871</ele>
        <time>2024-07-30T20:57:51.559Z</time>
      </trkpt>
      <trkpt lat="48.0273" lon="1.25583">
        <ele>100.808714</ele>
        <time>2024-07-30T20:57:58.034Z</time>
      </trkpt>
      <trkpt lat="48.02739" lon="1.25633">
        <ele>100.962303</ele>
        <time>2024-07-30T20:58:02.950Z</time>
      </trkpt>
      <trkpt lat="48.0275" lon="1.25701">
        <ele>101.169472</ele>
        <time>2024-07-30T20:58:10.637Z</time>
      </trkpt>
      <trkpt lat="48.0277" lon="1.25887">
        <ele>102.376748</ele>
        <time>2024-07-30T20:58:36.488Z</time>
      </trkpt>
      <trkpt lat="48.02781" lon="1.25923">
        <ele>102.816791</ele>
        <time>2024-07-30T20:58:42.555Z</time>
      </trkpt>
      <trkpt lat="48.02856" lon="1.26046">
        <ele>104.64509</ele>
        <time>2024-07-30T20:59:07.109Z</time>
      </trkpt>
      <trkpt lat="48.02905" lon="1.26124">
        <ele>105.518405</ele>
        <time>2024-07-30T20:59:21.505Z</time>
      </trkpt>
      <trkpt lat="48.02938" lon="1.26179">
        <ele>106.115826</ele>
        <time>2024-07-30T20:59:30.897Z</time>
      </trkpt>
      <trkpt lat="48.0295" lon="1.26199">
        <ele>106.336043</ele>
        <time>2024-07-30T20:59:34.306Z</time>
      </trkpt>
      <trkpt lat="48.02974" lon="1.26251">
        <ele>106.82878</ele>
        <time>2024-07-30T20:59:42.181Z</time>
      </trkpt>
      <trkpt lat="48.03054" lon="1.26471">
        <ele>108.547898</ele>
        <time>2024-07-30T21:00:13.440Z</time>
      </trkpt>
      <trkpt lat="48.03108" lon="1.26578">
        <ele>109.752343</ele>
        <time>2024-07-30T21:00:31.190Z</time>
      </trkpt>
      <trkpt lat="48.03155" lon="1.26659">
        <ele>110.720741</ele>
        <time>2024-07-30T21:00:46.086Z</time>
      </trkpt>
      <trkpt lat="48.03177" lon="1.26682">
        <ele>111.103808</ele>
        <time>2024-07-30T21:00:51.735Z</time>
      </trkpt>
      <trkpt lat="48.03192" lon="1.26692">
        <ele>111.39563</ele>
        <time>2024-07-30T21:00:55.381Z</time>
      </trkpt>
      <trkpt lat="48.03336" lon="1.26767">
        <ele>114.031102</ele>
        <time>2024-07-30T21:01:28.920Z</time>
      </trkpt>
      <trkpt lat="48.03394" lon="1.26803">
        <ele>114.883697</ele>
        <time>2024-07-30T21:01:42.318Z</time>
      </trkpt>
      <trkpt lat="48.03509" lon="1.26903">
        <ele>116.428159</ele>
        <time>2024-07-30T21:02:08.973Z</time>
      </trkpt>
      <trkpt lat="48.03553" lon="1.26938">
        <ele>116.250549</ele>
        <time>2024-07-30T21:02:16.771Z</time>
      </trkpt>
      <trkpt lat="48.03563" lon="1.26941">
        <ele>116.211194</ele>
        <time>2024-07-30T21:02:18.319Z</time>
      </trkpt>
      <trkpt lat="48.03572" lon="1.26938">
        <ele>116.177521</ele>
        <time>2024-07-30T21:02:19.603Z</time>
      </trkpt>
      <trkpt lat="48.03588" lon="1.26921">
        <ele>116.109536</ele>
        <time>2024-07-30T21:02:22.097Z</time>
      </trkpt>
      <trkpt lat="48.03593" lon="1.26932">
        <ele>116.077288</ele>
        <time>2024-07-30T21:02:23.225Z</time>
      </trkpt>
      <trkpt lat="48.03606" lon="1.26946">
        <ele>116.020624</ele>
        <time>2024-07-30T21:02:25.192Z</time>
      </trkpt>
      <trkpt lat="48.03626" lon="1.26984">
        <ele>115.901742</ele>
        <time>2024-07-30T21:02:29.134Z</time>
      </trkpt>
      <trkpt lat="48.03635" lon="1.27005">
        <ele>115.843353</ele>
        <time>2024-07-30T21:02:31.040Z</time>
      </trkpt>
      <trkpt lat="48.03636" lon="1.2702">
        <ele>115.722843</ele>
        <time>2024-07-30T21:02:32.279Z</time>
      </trkpt>
      <trkpt lat="48.03622" lon="1.27062">
        <ele>115.055869</ele>
        <time>2024-07-30T21:02:35.897Z</time>
      </trkpt>
      <trkpt lat="48.03591" lon="1.27119">
        <ele>114.012817</ele>
        <time>2024-07-30T21:02:41.203Z</time>
      </trkpt>
      <trkpt lat="48.03584" lon="1.27141">
        <ele>113.678032</ele>
        <time>2024-07-30T21:02:42.874Z</time>
      </trkpt>
      <trkpt lat="48.03575" lon="1.27162">
        <ele>113.313517</ele>
        <time>2024-07-30T21:02:44.670Z</time>
      </trkpt>
      <trkpt lat="48.03537" lon="1.27209">
        <ele>112.280111</ele>
        <time>2024-07-30T21:02:49.818Z</time>
      </trkpt>
      <trkpt lat="48.03531" lon="1.27225">
        <ele>112.023534</ele>
        <time>2024-07-30T21:02:51.137Z</time>
      </trkpt>
      <trkpt lat="48.0353" lon="1.2724">
        <ele>111.84167</ele>
        <time>2024-07-30T21:02:52.201Z</time>
      </trkpt>
      <trkpt lat="48.03532" lon="1.27251">
        <ele>111.697032</ele>
        <time>2024-07-30T21:02:53.053Z</time>
      </trkpt>
      <trkpt lat="48.03513" lon="1.27262">
        <ele>111.336894</ele>
        <time>2024-07-30T21:02:56.241Z</time>
      </trkpt>
      <trkpt lat="48.03425" lon="1.27436">
        <ele>108.720779</ele>
        <time>2024-07-30T21:03:20.003Z</time>
      </trkpt>
      <trkpt lat="48.03353" lon="1.27661">
        <ele>106.13263</ele>
        <time>2024-07-30T21:03:47.274Z</time>
      </trkpt>
      <trkpt lat="48.03312" lon="1.27816">
        <ele>104.677435</ele>
        <time>2024-07-30T21:04:05.703Z</time>
      </trkpt>
      <trkpt lat="48.03253" lon="1.27943">
        <ele>103.416223</ele>
        <time>2024-07-30T21:04:23.558Z</time>
      </trkpt>
      <trkpt lat="48.03204" lon="1.28016">
        <ele>102.696915</ele>
        <time>2024-07-30T21:04:35.475Z</time>
      </trkpt>
      <trkpt lat="48.03192" lon="1.28058">
        <ele>102.381775</ele>
        <time>2024-07-30T21:04:40.723Z</time>
      </trkpt>
      <trkpt lat="48.03183" lon="1.28096">
        <ele>102.105982</ele>
        <time>2024-07-30T21:04:45.325Z</time>
      </trkpt>
      <trkpt lat="48.03183" lon="1.28105">
        <ele>102.042276</ele>
        <time>2024-07-30T21:04:46.405Z</time>
      </trkpt>
      <trkpt lat="48.03204" lon="1.28156">
        <ele>101.656478</ele>
        <time>2024-07-30T21:04:53.415Z</time>
      </trkpt>
      <trkpt lat="48.0321" lon="1.28176">
        <ele>101.523999</ele>
        <time>2024-07-30T21:04:55.986Z</time>
      </trkpt>
      <trkpt lat="48.03212" lon="1.28199">
        <ele>101.386039</ele>
        <time>2024-07-30T21:04:58.676Z</time>
      </trkpt>
      <trkpt lat="48.03211" lon="1.28223">
        <ele>101.243024</ele>
        <time>2024-07-30T21:05:01.437Z</time>
      </trkpt>
      <trkpt lat="48.03204" lon="1.28262">
        <ele>101.005306</ele>
        <time>2024-07-30T21:05:06.025Z</time>
      </trkpt>
      <trkpt lat="48.03122" lon="1.28381">
        <ele>100.112941</ele>
        <time>2024-07-30T21:05:26.590Z</time>
      </trkpt>
      <trkpt lat="48.03083" lon="1.28412">
        <ele>99.918124</ele>
        <time>2024-07-30T21:05:34.876Z</time>
      </trkpt>
      <trkpt lat="48.03083" lon="1.28423">
        <ele>99.884716</ele>
        <time>2024-07-30T21:05:36.270Z</time>
      </trkpt>
      <trkpt lat="48.03084" lon="1.28445">
        <ele>99.818177</ele>
        <time>2024-07-30T21:05:39.041Z</time>
      </trkpt>
      <trkpt lat="48.03084" lon="1.28465">
        <ele>99.759037</ele>
        <time>2024-07-30T21:05:41.559Z</time>
      </trkpt>
      <trkpt lat="48.03091" lon="1.28474">
        <ele>99.719704</ele>
        <time>2024-07-30T21:05:43.185Z</time>
      </trkpt>
      <trkpt lat="48.0311" lon="1.2847">
        <ele>99.633048</ele>
        <time>2024-07-30T21:05:46.767Z</time>
      </trkpt>
      <trkpt lat="48.03214" lon="1.28435">
        <ele>99.409354</ele>
        <time>2024-07-30T21:06:07.544Z</time>
      </trkpt>
      <trkpt lat="48.0325" lon="1.28423">
        <ele>99.394049</ele>
        <time>2024-07-30T21:06:14.561Z</time>
      </trkpt>
      <trkpt lat="48.0326" lon="1.28426">
        <ele>99.389659</ele>
        <time>2024-07-30T21:06:16.654Z</time>
      </trkpt>
      <trkpt lat="48.03275" lon="1.28451">
        <ele>99.380577</ele>
        <time>2024-07-30T21:06:20.971Z</time>
      </trkpt>
      <trkpt lat="48.03283" lon="1.28439">
        <ele>99.375642</ele>
        <time>2024-07-30T21:06:22.751Z</time>
      </trkpt>
      <trkpt lat="48.03388" lon="1.28373">
        <ele>99.64623</ele>
        <time>2024-07-30T21:06:41.158Z</time>
      </trkpt>
      <trkpt lat="48.03473" lon="1.28347">
        <ele>99.973836</ele>
        <time>2024-07-30T21:06:55.710Z</time>
      </trkpt>
      <trkpt lat="48.03494" lon="1.28337">
        <ele>100.059811</ele>
        <time>2024-07-30T21:06:59.188Z</time>
      </trkpt>
      <trkpt lat="48.03531" lon="1.28315">
        <ele>100.2468</ele>
        <time>2024-07-30T21:07:05.794Z</time>
      </trkpt>
      <trkpt lat="48.03575" lon="1.28275">
        <ele>100.483005</ele>
        <time>2024-07-30T21:07:14.341Z</time>
      </trkpt>
      <trkpt lat="48.03624" lon="1.28234">
        <ele>100.745286</ele>
        <time>2024-07-30T21:07:23.832Z</time>
      </trkpt>
      <trkpt lat="48.03678" lon="1.28182">
        <ele>100.996067</ele>
        <time>2024-07-30T21:07:34.610Z</time>
      </trkpt>
      <trkpt lat="48.0373" lon="1.28111">
        <ele>101.229203</ele>
        <time>2024-07-30T21:07:45.942Z</time>
      </trkpt>
      <trkpt lat="48.03752" lon="1.2809">
        <ele>101.318657</ele>
        <time>2024-07-30T21:07:50.016Z</time>
      </trkpt>
      <trkpt lat="48.03797" lon="1.28054">
        <ele>101.47949</ele>
        <time>2024-07-30T21:07:58.033Z</time>
      </trkpt>
      <trkpt lat="48.03829" lon="1.28038">
        <ele>101.538186</ele>
        <time>2024-07-30T21:08:03.506Z</time>
      </trkpt>
      <trkpt lat="48.03883" lon="1.28016">
        <ele>101.63421</ele>
        <time>2024-07-30T21:08:12.352Z</time>
      </trkpt>
      <trkpt lat="48.03941" lon="1.28004">
        <ele>101.734064</ele>
        <time>2024-07-30T21:08:21.426Z</time>
      </trkpt>
      <trkpt lat="48.04008" lon="1.27978">
        <ele>101.724699</ele>
        <time>2024-07-30T21:08:31.746Z</time>
      </trkpt>
      <trkpt lat="48.04041" lon="1.27955">
        <ele>101.677093</ele>
        <time>2024-07-30T21:08:37.180Z</time>
      </trkpt>
      <trkpt lat="48.04122" lon="1.27886">
        <ele>101.555204</ele>
        <time>2024-07-30T21:08:50.279Z</time>
      </trkpt>
      <trkpt lat="48.04094" lon="1.27833">
        <ele>101.475509</ele>
        <time>2024-07-30T21:08:56.474Z</time>
      </trkpt>
      <trkpt lat="48.04084" lon="1.27816">
        <ele>101.448296</ele>
        <time>2024-07-30T21:08:58.504Z</time>
      </trkpt>
      <trkpt lat="48.04063" lon="1.27781">
        <ele>101.389227</ele>
        <time>2024-07-30T21:09:02.976Z</time>
      </trkpt>
      <trkpt lat="48.04047" lon="1.27762">
        <ele>101.351794</ele>
        <time>2024-07-30T21:09:05.872Z</time>
      </trkpt>
      <trkpt lat="48.04044" lon="1.27759">
        <ele>101.345741</ele>
        <time>2024-07-30T21:09:06.342Z</time>
      </trkpt>
      <trkpt lat="48.04052" lon="1.27745">
        <ele>101.323469</ele>
        <time>2024-07-30T21:09:08.021Z</time>
      </trkpt>
      <trkpt lat="48.04059" lon="1.27741">
        <ele>101.309761</ele>
        <time>2024-07-30T21:09:09.070Z</time>
      </trkpt>
      <trkpt lat="48.04132" lon="1.27726">
        <ele>101.217679</ele>
        <time>2024-07-30T21:09:19.798Z</time>
      </trkpt>
      <trkpt lat="48.04149" lon="1.27717">
        <ele>101.221019</ele>
        <time>2024-07-30T21:09:22.439Z</time>
      </trkpt>
      <trkpt lat="48.04196" lon="1.27676">
        <ele>101.231504</ele>
        <time>2024-07-30T21:09:30.781Z</time>
      </trkpt>
      <trkpt lat="48.04234" lon="1.27643">
        <ele>101.239894</ele>
        <time>2024-07-30T21:09:37.560Z</time>
      </trkpt>
      <trkpt lat="48.04342" lon="1.27539">
        <ele>101.252058</ele>
        <time>2024-07-30T21:09:56.052Z</time>
      </trkpt>
      <trkpt lat="48.0438" lon="1.27499">
        <ele>101.254367</ele>
        <time>2024-07-30T21:10:03.026Z</time>
      </trkpt>
      <trkpt lat="48.04425" lon="1.27444">
        <ele>101.303414</ele>
        <time>2024-07-30T21:10:11.958Z</time>
      </trkpt>
      <trkpt lat="48.04455" lon="1.27407">
        <ele>101.461655</ele>
        <time>2024-07-30T21:10:18.021Z</time>
      </trkpt>
      <trkpt lat="48.04599" lon="1.2723">
        <ele>102.286775</ele>
        <time>2024-07-30T21:10:49.509Z</time>
      </trkpt>
      <trkpt lat="48.04789" lon="1.27014">
        <ele>103.206399</ele>
        <time>2024-07-30T21:11:29.579Z</time>
      </trkpt>
      <trkpt lat="48.04809" lon="1.26986">
        <ele>103.273905</ele>
        <time>2024-07-30T21:11:33.593Z</time>
      </trkpt>
      <trkpt lat="48.04852" lon="1.26946">
        <ele>103.31835</ele>
        <time>2024-07-30T21:11:40.880Z</time>
      </trkpt>
      <trkpt lat="48.04983" lon="1.2687">
        <ele>102.84985</ele>
        <time>2024-07-30T21:11:59.745Z</time>
      </trkpt>
      <trkpt lat="48.05057" lon="1.26836">
        <ele>102.707905</ele>
        <time>2024-07-30T21:12:10.694Z</time>
      </trkpt>
      <trkpt lat="48.05099" lon="1.26834">
        <ele>102.663464</ele>
        <time>2024-07-30T21:12:16.707Z</time>
      </trkpt>
      <trkpt lat="48.05194" lon="1.26864">
        <ele>102.547718</ele>
        <time>2024-07-30T21:12:30.973Z</time>
      </trkpt>
      <trkpt lat="48.05244" lon="1.26888">
        <ele>102.435757</ele>
        <time>2024-07-30T21:12:38.617Z</time>
      </trkpt>
      <trkpt lat="48.05259" lon="1.26889">
        <ele>102.404637</ele>
        <time>2024-07-30T21:12:40.857Z</time>
      </trkpt>
      <trkpt lat="48.0527" lon="1.26885">
        <ele>102.379467</ele>
        <time>2024-07-30T21:12:42.662Z</time>
      </trkpt>
      <trkpt lat="48.05299" lon="1.26864">
        <ele>102.312856</ele>
        <time>2024-07-30T21:12:47.162Z</time>
      </trkpt>
      <trkpt lat="48.05339" lon="1.2684">
        <ele>102.219991</ele>
        <time>2024-07-30T21:13:02.791Z</time>
      </trkpt>
      <trkpt lat="48.05354" lon="1.26831">
        <ele>102.184487</ele>
        <time>2024-07-30T21:13:08.129Z</time>
      </trkpt>
      <trkpt lat="48.05377" lon="1.26818">
        <ele>102.08545</ele>
        <time>2024-07-30T21:13:16.756Z</time>
      </trkpt>
      <trkpt lat="48.05393" lon="1.26819">
        <ele>102.019507</ele>
        <time>2024-07-30T21:13:22.451Z</time>
      </trkpt>
      <trkpt lat="48.05404" lon="1.26828">
        <ele>101.968636</ele>
        <time>2024-07-30T21:13:24.124Z</time>
      </trkpt>
      <trkpt lat="48.05412" lon="1.26879">
        <ele>101.828536</ele>
        <time>2024-07-30T21:13:28.587Z</time>
      </trkpt>
      <trkpt lat="48.05418" lon="1.26889">
        <ele>101.790264</ele>
        <time>2024-07-30T21:13:29.798Z</time>
      </trkpt>
      <trkpt lat="48.05438" lon="1.26902">
        <ele>101.701706</ele>
        <time>2024-07-30T21:13:32.740Z</time>
      </trkpt>
      <trkpt lat="48.05532" lon="1.27007">
        <ele>101.529642</ele>
        <time>2024-07-30T21:13:49.564Z</time>
      </trkpt>
      <trkpt lat="48.05546" lon="1.27017">
        <ele>101.548314</ele>
        <time>2024-07-30T21:13:52.030Z</time>
      </trkpt>
      <trkpt lat="48.05565" lon="1.27021">
        <ele>101.570224</ele>
        <time>2024-07-30T21:13:54.887Z</time>
      </trkpt>
      <trkpt lat="48.0559" lon="1.27034">
        <ele>101.600098</ele>
        <time>2024-07-30T21:13:58.968Z</time>
      </trkpt>
      <trkpt lat="48.0561" lon="1.27054">
        <ele>101.627305</ele>
        <time>2024-07-30T21:14:02.773Z</time>
      </trkpt>
      <trkpt lat="48.05624" lon="1.27057">
        <ele>101.643615</ele>
        <time>2024-07-30T21:14:05.041Z</time>
      </trkpt>
      <trkpt lat="48.05652" lon="1.27088">
        <ele>101.709554</ele>
        <time>2024-07-30T21:14:10.593Z</time>
      </trkpt>
      <trkpt lat="48.05668" lon="1.27116">
        <ele>101.791515</ele>
        <time>2024-07-30T21:14:14.556Z</time>
      </trkpt>
      <trkpt lat="48.05676" lon="1.27129">
        <ele>101.831548</ele>
        <time>2024-07-30T21:14:16.551Z</time>
      </trkpt>
      <trkpt lat="48.05711" lon="1.27166">
        <ele>101.974413</ele>
        <time>2024-07-30T21:14:23.652Z</time>
      </trkpt>
      <trkpt lat="48.05727" lon="1.27197">
        <ele>102.063872</ele>
        <time>2024-07-30T21:14:28.012Z</time>
      </trkpt>
      <trkpt lat="48.05732" lon="1.27202">
        <ele>102.084543</ele>
        <time>2024-07-30T21:14:29.029Z</time>
      </trkpt>
      <trkpt lat="48.05741" lon="1.27206">
        <ele>102.11583</ele>
        <time>2024-07-30T21:14:30.510Z</time>
      </trkpt>
      <trkpt lat="48.05749" lon="1.27204">
        <ele>102.144455</ele>
        <time>2024-07-30T21:14:31.836Z</time>
      </trkpt>
      <trkpt lat="48.05786" lon="1.27187">
        <ele>102.273067</ele>
        <time>2024-07-30T21:14:37.955Z</time>
      </trkpt>
      <trkpt lat="48.05888" lon="1.27134">
        <ele>102.582838</ele>
        <time>2024-07-30T21:14:54.904Z</time>
      </trkpt>
      <trkpt lat="48.05916" lon="1.27115">
        <ele>102.669934</ele>
        <time>2024-07-30T21:14:59.763Z</time>
      </trkpt>
      <trkpt lat="48.05999" lon="1.27056">
        <ele>103.048067</ele>
        <time>2024-07-30T21:15:14.980Z</time>
      </trkpt>
      <trkpt lat="48.06082" lon="1.27013">
        <ele>103.494418</ele>
        <time>2024-07-30T21:15:29.575Z</time>
      </trkpt>
      <trkpt lat="48.06139" lon="1.26969">
        <ele>104.017931</ele>
        <time>2024-07-30T21:15:40.802Z</time>
      </trkpt>
      <trkpt lat="48.06144" lon="1.26968">
        <ele>104.097628</ele>
        <time>2024-07-30T21:15:41.798Z</time>
      </trkpt>
      <trkpt lat="48.06128" lon="1.26907">
        <ele>104.703745</ele>
        <time>2024-07-30T21:15:51.929Z</time>
      </trkpt>
      <trkpt lat="48.06104" lon="1.26849">
        <ele>105.339063</ele>
        <time>2024-07-30T21:16:03.645Z</time>
      </trkpt>
      <trkpt lat="48.06084" lon="1.26818">
        <ele>105.730767</ele>
        <time>2024-07-30T21:16:11.537Z</time>
      </trkpt>
      <trkpt lat="48.06072" lon="1.26787">
        <ele>106.067107</ele>
        <time>2024-07-30T21:16:18.723Z</time>
      </trkpt>
      <trkpt lat="48.06066" lon="1.26726">
        <ele>107.118055</ele>
        <time>2024-07-30T21:16:31.359Z</time>
      </trkpt>
      <trkpt lat="48.06039" lon="1.26668">
        <ele>108.482966</ele>
        <time>2024-07-30T21:16:44.524Z</time>
      </trkpt>
      <trkpt lat="48.06016" lon="1.26607">
        <ele>109.829042</ele>
        <time>2024-07-30T21:16:56.551Z</time>
      </trkpt>
      <trkpt lat="48.05987" lon="1.26548">
        <ele>111.239954</ele>
        <time>2024-07-30T21:17:14.788Z</time>
      </trkpt>
      <trkpt lat="48.05931" lon="1.2649">
        <ele>115.83895</ele>
        <time>2024-07-30T21:17:45.329Z</time>
      </trkpt>
      <trkpt lat="48.05913" lon="1.26479">
        <ele>117.189049</ele>
        <time>2024-07-30T21:17:53.709Z</time>
      </trkpt>
      <trkpt lat="48.05923" lon="1.26471">
        <ele>117.980572</ele>
        <time>2024-07-30T21:17:59.790Z</time>
      </trkpt>
      <trkpt lat="48.05935" lon="1.26468">
        <ele>118.84497</ele>
        <time>2024-07-30T21:18:06.311Z</time>
      </trkpt>
      <trkpt lat="48.05953" lon="1.26468">
        <ele>120.090686</ele>
        <time>2024-07-30T21:18:14.661Z</time>
      </trkpt>
      <trkpt lat="48.06006" lon="1.26484">
        <ele>123.932881</ele>
        <time>2024-07-30T21:18:43.920Z</time>
      </trkpt>
      <trkpt lat="48.06034" lon="1.26487">
        <ele>125.945726</ele>
        <time>2024-07-30T21:18:59.811Z</time>
      </trkpt>
      <trkpt lat="48.06046" lon="1.26484">
        <ele>126.810513</ele>
        <time>2024-07-30T21:19:06.585Z</time>
      </trkpt>
      <trkpt lat="48.06089" lon="1.26468">
        <ele>130.01676</ele>
        <time>2024-07-30T21:19:32.785Z</time>
      </trkpt>
      <trkpt lat="48.0616" lon="1.26405">
        <ele>136.004003</ele>
        <time>2024-07-30T21:20:10.901Z</time>
      </trkpt>
      <trkpt lat="48.06165" lon="1.26396">
        <ele>136.597182</ele>
        <time>2024-07-30T21:20:14.217Z</time>
      </trkpt>
      <trkpt lat="48.06197" lon="1.26417">
        <ele>137.811429</ele>
        <time>2024-07-30T21:20:25.255Z</time>
      </trkpt>
      <trkpt lat="48.0621" lon="1.26431">
        <ele>138.20869</ele>
        <time>2024-07-30T21:20:29.617Z</time>
      </trkpt>
      <trkpt lat="48.06248" lon="1.26473">
        <ele>139.438287</ele>
        <time>2024-07-30T21:20:41.594Z</time>
      </trkpt>
      <trkpt lat="48.06288" lon="1.26514">
        <ele>140.662353</ele>
        <time>2024-07-30T21:20:51.700Z</time>
      </trkpt>
      <trkpt lat="48.06314" lon="1.26534">
        <ele>141.41135</ele>
        <time>2024-07-30T21:20:56.985Z</time>
      </trkpt>
      <trkpt lat="48.0641" lon="1.26596">
        <ele>142.889122</ele>
        <time>2024-07-30T21:21:17.811Z</time>
      </trkpt>
      <trkpt lat="48.0645" lon="1.26623">
        <ele>143.457443</ele>
        <time>2024-07-30T21:21:26.870Z</time>
      </trkpt>
      <trkpt lat="48.06604" lon="1.26678">
        <ele>145.291709</ele>
        <time>2024-07-30T21:21:58.028Z</time>
      </trkpt>
      <trkpt lat="48.06663" lon="1.26717">
        <ele>146.008369</ele>
        <time>2024-07-30T21:22:10.182Z</time>
      </trkpt>
      <trkpt lat="48.067" lon="1.26741">
        <ele>146.150218</ele>
        <time>2024-07-30T21:22:17.525Z</time>
      </trkpt>
      <trkpt lat="48.0672" lon="1.26751">
        <ele>146.221916</ele>
        <time>2024-07-30T21:22:21.131Z</time>
      </trkpt>
      <trkpt lat="48.06743" lon="1.26757">
        <ele>146.302648</ele>
        <time>2024-07-30T21:22:25.122Z</time>
      </trkpt>
      <trkpt lat="48.06909" lon="1.26778">
        <ele>146.231206</ele>
        <time>2024-07-30T21:22:49.523Z</time>
      </trkpt>
      <trkpt lat="48.06947" lon="1.26775">
        <ele>146.018764</ele>
        <time>2024-07-30T21:22:54.217Z</time>
      </trkpt>
      <trkpt lat="48.06978" lon="1.26771">
        <ele>145.84973</ele>
        <time>2024-07-30T21:22:57.886Z</time>
      </trkpt>
      <trkpt lat="48.06991" lon="1.26773">
        <ele>145.775246</ele>
        <time>2024-07-30T21:22:59.494Z</time>
      </trkpt>
      <trkpt lat="48.07014" lon="1.26782">
        <ele>145.642442</ele>
        <time>2024-07-30T21:23:02.292Z</time>
      </trkpt>
      <trkpt lat="48.07156" lon="1.26856">
        <ele>145.591196</ele>
        <time>2024-07-30T21:23:23.704Z</time>
      </trkpt>
      <trkpt lat="48.07195" lon="1.26871">
        <ele>145.669477</ele>
        <time>2024-07-30T21:23:30.913Z</time>
      </trkpt>
      <trkpt lat="48.07231" lon="1.26879">
        <ele>146.022498</ele>
        <time>2024-07-30T21:23:37.671Z</time>
      </trkpt>
      <trkpt lat="48.07274" lon="1.26901">
        <ele>146.469826</ele>
        <time>2024-07-30T21:23:46.500Z</time>
      </trkpt>
      <trkpt lat="48.07294" lon="1.26922">
        <ele>146.704105</ele>
        <time>2024-07-30T21:23:51.286Z</time>
      </trkpt>
      <trkpt lat="48.07313" lon="1.26977">
        <ele>147.116498</ele>
        <time>2024-07-30T21:23:59.947Z</time>
      </trkpt>
      <trkpt lat="48.07327" lon="1.27005">
        <ele>147.339352</ele>
        <time>2024-07-30T21:24:04.240Z</time>
      </trkpt>
      <trkpt lat="48.07343" lon="1.27025">
        <ele>147.366853</ele>
        <time>2024-07-30T21:24:07.857Z</time>
      </trkpt>
      <trkpt lat="48.07372" lon="1.27049">
        <ele>147.408382</ele>
        <time>2024-07-30T21:24:13.328Z</time>
      </trkpt>
      <trkpt lat="48.074" lon="1.27073">
        <ele>147.448077</ele>
        <time>2024-07-30T21:24:18.095Z</time>
      </trkpt>
      <trkpt lat="48.07449" lon="1.27106">
        <ele>147.514104</ele>
        <time>2024-07-30T21:24:25.574Z</time>
      </trkpt>
      <trkpt lat="48.0748" lon="1.27121">
        <ele>147.554</ele>
        <time>2024-07-30T21:24:30.049Z</time>
      </trkpt>
      <trkpt lat="48.07505" lon="1.27129">
        <ele>147.582547</ele>
        <time>2024-07-30T21:24:33.646Z</time>
      </trkpt>
      <trkpt lat="48.07607" lon="1.27152">
        <ele>147.691714</ele>
        <time>2024-07-30T21:24:48.902Z</time>
      </trkpt>
      <trkpt lat="48.07677" lon="1.27172">
        <ele>147.840117</ele>
        <time>2024-07-30T21:25:00.456Z</time>
      </trkpt>
      <trkpt lat="48.07828" lon="1.27216">
        <ele>148.847174</ele>
        <time>2024-07-30T21:25:28.058Z</time>
      </trkpt>
      <trkpt lat="48.08133" lon="1.27296">
        <ele>150.371392</ele>
        <time>2024-07-30T21:26:20.557Z</time>
      </trkpt>
      <trkpt lat="48.0814" lon="1.27283">
        <ele>150.410848</ele>
        <time>2024-07-30T21:26:22.085Z</time>
      </trkpt>
      <trkpt lat="48.08201" lon="1.27298">
        <ele>150.62602</ele>
        <time>2024-07-30T21:26:31.491Z</time>
      </trkpt>
      <trkpt lat="48.08264" lon="1.27333">
        <ele>150.830241</ele>
        <time>2024-07-30T21:26:41.752Z</time>
      </trkpt>
      <trkpt lat="48.08317" lon="1.27378">
        <ele>151.019883</ele>
        <time>2024-07-30T21:26:51.527Z</time>
      </trkpt>
      <trkpt lat="48.08361" lon="1.27428">
        <ele>151.215239</ele>
        <time>2024-07-30T21:27:01.253Z</time>
      </trkpt>
      <trkpt lat="48.08378" lon="1.27452">
        <ele>151.338118</ele>
        <time>2024-07-30T21:27:05.360Z</time>
      </trkpt>
      <trkpt lat="48.08425" lon="1.27542">
        <ele>151.7444</ele>
        <time>2024-07-30T21:27:18.788Z</time>
      </trkpt>
      <trkpt lat="48.0845" lon="1.2758">
        <ele>151.931888</ele>
        <time>2024-07-30T21:27:24.625Z</time>
      </trkpt>
      <trkpt lat="48.0848" lon="1.2762">
        <ele>152.092212</ele>
        <time>2024-07-30T21:27:30.989Z</time>
      </trkpt>
      <trkpt lat="48.08512" lon="1.27654">
        <ele>152.047574</ele>
        <time>2024-07-30T21:27:36.901Z</time>
      </trkpt>
      <trkpt lat="48.08521" lon="1.27662">
        <ele>152.03552</ele>
        <time>2024-07-30T21:27:38.463Z</time>
      </trkpt>
      <trkpt lat="48.08536" lon="1.27674">
        <ele>152.015502</ele>
        <time>2024-07-30T21:27:41.014Z</time>
      </trkpt>
      <trkpt lat="48.08593" lon="1.2771">
        <ele>151.944789</ele>
        <time>2024-07-30T21:27:49.738Z</time>
      </trkpt>
      <trkpt lat="48.08615" lon="1.2773">
        <ele>151.915253</ele>
        <time>2024-07-30T21:27:53.334Z</time>
      </trkpt>
      <trkpt lat="48.08724" lon="1.27837">
        <ele>151.27604</ele>
        <time>2024-07-30T21:28:10.760Z</time>
      </trkpt>
      <trkpt lat="48.08774" lon="1.27909">
        <ele>150.887878</ele>
        <time>2024-07-30T21:28:19.613Z</time>
      </trkpt>
      <trkpt lat="48.08831" lon="1.27993">
        <ele>150.295968</ele>
        <time>2024-07-30T21:28:29.647Z</time>
      </trkpt>
      <trkpt lat="48.08869" lon="1.28044">
        <ele>149.917825</ele>
        <time>2024-07-30T21:28:36.059Z</time>
      </trkpt>
      <trkpt lat="48.08903" lon="1.2808">
        <ele>149.606941</ele>
        <time>2024-07-30T21:28:41.368Z</time>
      </trkpt>
      <trkpt lat="48.08951" lon="1.28124">
        <ele>149.196339</ele>
        <time>2024-07-30T21:28:48.624Z</time>
      </trkpt>
      <trkpt lat="48.09001" lon="1.2816">
        <ele>148.794209</ele>
        <time>2024-07-30T21:28:55.774Z</time>
      </trkpt>
      <trkpt lat="48.0904" lon="1.28174">
        <ele>148.505022</ele>
        <time>2024-07-30T21:29:00.909Z</time>
      </trkpt>
      <trkpt lat="48.09062" lon="1.28175">
        <ele>148.349361</ele>
        <time>2024-07-30T21:29:03.651Z</time>
      </trkpt>
      <trkpt lat="48.09094" lon="1.2817">
        <ele>148.099819</ele>
        <time>2024-07-30T21:29:07.801Z</time>
      </trkpt>
      <trkpt lat="48.09148" lon="1.28157">
        <ele>147.66747</ele>
        <time>2024-07-30T21:29:14.751Z</time>
      </trkpt>
      <trkpt lat="48.0916" lon="1.28154">
        <ele>147.573007</ele>
        <time>2024-07-30T21:29:16.264Z</time>
      </trkpt>
      <trkpt lat="48.09202" lon="1.28136">
        <ele>147.227829</ele>
        <time>2024-07-30T21:29:21.729Z</time>
      </trkpt>
      <trkpt lat="48.09212" lon="1.28127">
        <ele>147.135335</ele>
        <time>2024-07-30T21:29:23.177Z</time>
      </trkpt>
      <trkpt lat="48.09229" lon="1.28105">
        <ele>146.958123</ele>
        <time>2024-07-30T21:29:25.949Z</time>
      </trkpt>
      <trkpt lat="48.09268" lon="1.28013">
        <ele>146.305098</ele>
        <time>2024-07-30T21:29:34.958Z</time>
      </trkpt>
      <trkpt lat="48.09277" lon="1.28">
        <ele>146.189806</ele>
        <time>2024-07-30T21:29:36.512Z</time>
      </trkpt>
      <trkpt lat="48.09288" lon="1.27989">
        <ele>146.064971</ele>
        <time>2024-07-30T21:29:38.180Z</time>
      </trkpt>
      <trkpt lat="48.093" lon="1.27983">
        <ele>145.949376</ele>
        <time>2024-07-30T21:29:39.758Z</time>
      </trkpt>
      <trkpt lat="48.09313" lon="1.27982">
        <ele>145.829993</ele>
        <time>2024-07-30T21:29:41.381Z</time>
      </trkpt>
      <trkpt lat="48.09354" lon="1.2799">
        <ele>145.445645</ele>
        <time>2024-07-30T21:29:46.531Z</time>
      </trkpt>
      <trkpt lat="48.09456" lon="1.28015">
        <ele>144.708728</ele>
        <time>2024-07-30T21:29:58.988Z</time>
      </trkpt>
      <trkpt lat="48.09502" lon="1.28013">
        <ele>144.410672</ele>
        <time>2024-07-30T21:30:04.843Z</time>
      </trkpt>
      <trkpt lat="48.09558" lon="1.28005">
        <ele>144.051479</ele>
        <time>2024-07-30T21:30:12.631Z</time>
      </trkpt>
      <trkpt lat="48.09576" lon="1.28006">
        <ele>144.129753</ele>
        <time>2024-07-30T21:30:15.457Z</time>
      </trkpt>
      <trkpt lat="48.09595" lon="1.28016">
        <ele>144.261495</ele>
        <time>2024-07-30T21:30:18.844Z</time>
      </trkpt>
      <trkpt lat="48.09606" lon="1.28031">
        <ele>144.354786</ele>
        <time>2024-07-30T21:30:21.232Z</time>
      </trkpt>
      <trkpt lat="48.09606" lon="1.28046">
        <ele>144.420807</ele>
        <time>2024-07-30T21:30:22.975Z</time>
      </trkpt>
      <trkpt lat="48.09604" lon="1.28065">
        <ele>144.502314</ele>
        <time>2024-07-30T21:30:25.155Z</time>
      </trkpt>
      <trkpt lat="48.09601" lon="1.28076">
        <ele>144.555936</ele>
        <time>2024-07-30T21:30:26.611Z</time>
      </trkpt>
      <trkpt lat="48.09593" lon="1.28161">
        <ele>144.923246</ele>
        <time>2024-07-30T21:30:37.135Z</time>
      </trkpt>
      <trkpt lat="48.09592" lon="1.28186">
        <ele>145.028915</ele>
        <time>2024-07-30T21:30:40.230Z</time>
      </trkpt>
      <trkpt lat="48.09594" lon="1.28222">
        <ele>145.183347</ele>
        <time>2024-07-30T21:30:44.905Z</time>
      </trkpt>
      <trkpt lat="48.09595" lon="1.28282">
        <ele>145.228374</ele>
        <time>2024-07-30T21:30:52.647Z</time>
      </trkpt>
      <trkpt lat="48.09585" lon="1.28327">
        <ele>145.261904</ele>
        <time>2024-07-30T21:30:58.417Z</time>
      </trkpt>
      <trkpt lat="48.09572" lon="1.28356">
        <ele>145.28677</ele>
        <time>2024-07-30T21:31:02.266Z</time>
      </trkpt>
      <trkpt lat="48.09549" lon="1.28402">
        <ele>145.327092</ele>
        <time>2024-07-30T21:31:07.885Z</time>
      </trkpt>
      <trkpt lat="48.09527" lon="1.28457">
        <ele>145.37281</ele>
        <time>2024-07-30T21:31:13.332Z</time>
      </trkpt>
      <trkpt lat="48.09484" lon="1.28602">
        <ele>143.793331</ele>
        <time>2024-07-30T21:31:25.354Z</time>
      </trkpt>
      <trkpt lat="48.09477" lon="1.28639">
        <ele>143.393249</ele>
        <time>2024-07-30T21:31:28.243Z</time>
      </trkpt>
      <trkpt lat="48.09476" lon="1.28654">
        <ele>143.232034</ele>
        <time>2024-07-30T21:31:29.398Z</time>
      </trkpt>
      <trkpt lat="48.09482" lon="1.287">
        <ele>142.753211</ele>
        <time>2024-07-30T21:31:32.820Z</time>
      </trkpt>
      <trkpt lat="48.09497" lon="1.28741">
        <ele>142.289627</ele>
        <time>2024-07-30T21:31:36.303Z</time>
      </trkpt>
      <trkpt lat="48.09509" lon="1.28761">
        <ele>142.026761</ele>
        <time>2024-07-30T21:31:38.326Z</time>
      </trkpt>
      <trkpt lat="48.09582" lon="1.2886">
        <ele>140.599975</ele>
        <time>2024-07-30T21:31:49.636Z</time>
      </trkpt>
      <trkpt lat="48.096" lon="1.28889">
        <ele>140.206925</ele>
        <time>2024-07-30T21:31:52.923Z</time>
      </trkpt>
      <trkpt lat="48.09616" lon="1.28923">
        <ele>139.812738</ele>
        <time>2024-07-30T21:31:56.244Z</time>
      </trkpt>
      <trkpt lat="48.09665" lon="1.29039">
        <ele>138.509328</ele>
        <time>2024-07-30T21:32:07.433Z</time>
      </trkpt>
      <trkpt lat="48.09739" lon="1.29217">
        <ele>136.472702</ele>
        <time>2024-07-30T21:32:22.907Z</time>
      </trkpt>
      <trkpt lat="48.09816" lon="1.29422">
        <ele>135.139427</ele>
        <time>2024-07-30T21:32:41.212Z</time>
      </trkpt>
      <trkpt lat="48.09841" lon="1.29497">
        <ele>135.7307</ele>
        <time>2024-07-30T21:32:50.911Z</time>
      </trkpt>
      <trkpt lat="48.09846" lon="1.29516">
        <ele>135.880175</ele>
        <time>2024-07-30T21:32:53.739Z</time>
      </trkpt>
      <trkpt lat="48.09867" lon="1.29595">
        <ele>136.483454</ele>
        <time>2024-07-30T21:33:07.689Z</time>
      </trkpt>
      <trkpt lat="48.09868" lon="1.29605">
        <ele>136.557776</ele>
        <time>2024-07-30T21:33:09.585Z</time>
      </trkpt>
      <trkpt lat="48.09866" lon="1.29617">
        <ele>136.672938</ele>
        <time>2024-07-30T21:33:11.676Z</time>
      </trkpt>
      <trkpt lat="48.09818" lon="1.29731">
        <ele>139.521085</ele>
        <time>2024-07-30T21:33:38.544Z</time>
      </trkpt>
      <trkpt lat="48.09786" lon="1.29816">
        <ele>141.594765</ele>
        <time>2024-07-30T21:33:57.047Z</time>
      </trkpt>
      <trkpt lat="48.0973" lon="1.29983">
        <ele>143.867472</ele>
        <time>2024-07-30T21:34:26.211Z</time>
      </trkpt>
      <trkpt lat="48.09731" lon="1.29999">
        <ele>144.031697</ele>
        <time>2024-07-30T21:34:28.317Z</time>
      </trkpt>
      <trkpt lat="48.09694" lon="1.30033">
        <ele>144.686647</ele>
        <time>2024-07-30T21:34:36.252Z</time>
      </trkpt>
      <trkpt lat="48.09463" lon="1.30246">
        <ele>145.565797</ele>
        <time>2024-07-30T21:35:17.748Z</time>
      </trkpt>
      <trkpt lat="48.0951" lon="1.30317">
        <ele>145.727725</ele>
        <time>2024-07-30T21:35:32.111Z</time>
      </trkpt>
      <trkpt lat="48.09536" lon="1.30369">
        <ele>145.83343</ele>
        <time>2024-07-30T21:35:41.544Z</time>
      </trkpt>
      <trkpt lat="48.09557" lon="1.30419">
        <ele>145.882548</ele>
        <time>2024-07-30T21:35:49.967Z</time>
      </trkpt>
      <trkpt lat="48.09586" lon="1.30515">
        <ele>145.966918</ele>
        <time>2024-07-30T21:36:04.969Z</time>
      </trkpt>
      <trkpt lat="48.09612" lon="1.30635">
        <ele>145.997703</ele>
        <time>2024-07-30T21:36:21.995Z</time>
      </trkpt>
      <trkpt lat="48.09628" lon="1.30742">
        <ele>145.663508</ele>
        <time>2024-07-30T21:36:35.902Z</time>
      </trkpt>
      <trkpt lat="48.0963" lon="1.30861">
        <ele>145.303479</ele>
        <time>2024-07-30T21:36:50.438Z</time>
      </trkpt>
      <trkpt lat="48.09643" lon="1.30952">
        <ele>144.718792</ele>
        <time>2024-07-30T21:37:01.416Z</time>
      </trkpt>
      <trkpt lat="48.09627" lon="1.30965">
        <ele>144.520736</ele>
        <time>2024-07-30T21:37:04.619Z</time>
      </trkpt>
      <trkpt lat="48.0964" lon="1.31179">
        <ele>142.98904</ele>
        <time>2024-07-30T21:37:28.813Z</time>
      </trkpt>
      <trkpt lat="48.0965" lon="1.31239">
        <ele>142.585999</ele>
        <time>2024-07-30T21:37:35.717Z</time>
      </trkpt>
      <trkpt lat="48.09665" lon="1.3144">
        <ele>141.491481</ele>
        <time>2024-07-30T21:37:59.674Z</time>
      </trkpt>
      <trkpt lat="48.09682" lon="1.31446">
        <ele>141.474486</ele>
        <time>2024-07-30T21:38:02.925Z</time>
      </trkpt>
      <trkpt lat="48.09731" lon="1.31445">
        <ele>141.425664</ele>
        <time>2024-07-30T21:38:12.455Z</time>
      </trkpt>
      <trkpt lat="48.09805" lon="1.31432">
        <ele>141.351279</ele>
        <time>2024-07-30T21:38:27.904Z</time>
      </trkpt>
      <trkpt lat="48.09808" lon="1.31431">
        <ele>141.348096</ele>
        <time>2024-07-30T21:38:28.579Z</time>
      </trkpt>
      <trkpt lat="48.09926" lon="1.31386">
        <ele>142.028937</ele>
        <time>2024-07-30T21:38:56.099Z</time>
      </trkpt>
      <trkpt lat="48.1001" lon="1.31339">
        <ele>142.618818</ele>
        <time>2024-07-30T21:39:17.033Z</time>
      </trkpt>
      <trkpt lat="48.10127" lon="1.3128">
        <ele>143.604855</ele>
        <time>2024-07-30T21:39:46.239Z</time>
      </trkpt>
      <trkpt lat="48.10307" lon="1.31213">
        <ele>144.734701</ele>
        <time>2024-07-30T21:40:28.341Z</time>
      </trkpt>
      <trkpt lat="48.1033" lon="1.31213">
        <ele>144.863983</ele>
        <time>2024-07-30T21:40:33.371Z</time>
      </trkpt>
      <trkpt lat="48.10431" lon="1.31219">
        <ele>144.989184</ele>
        <time>2024-07-30T21:40:55.175Z</time>
      </trkpt>
      <trkpt lat="48.10651" lon="1.31234">
        <ele>144.513652</ele>
        <time>2024-07-30T21:41:37.681Z</time>
      </trkpt>
      <trkpt lat="48.10669" lon="1.31232">
        <ele>144.437591</ele>
        <time>2024-07-30T21:41:41.060Z</time>
      </trkpt>
      <trkpt lat="48.10727" lon="1.31209">
        <ele>144.049893</ele>
        <time>2024-07-30T21:41:51.682Z</time>
      </trkpt>
      <trkpt lat="48.10753" lon="1.31204">
        <ele>143.825647</ele>
        <time>2024-07-30T21:41:56.335Z</time>
      </trkpt>
      <trkpt lat="48.10856" lon="1.31202">
        <ele>142.957567</ele>
        <time>2024-07-30T21:42:14.185Z</time>
      </trkpt>
      <trkpt lat="48.10943" lon="1.31201">
        <ele>142.644299</ele>
        <time>2024-07-30T21:42:30.093Z</time>
      </trkpt>
      <trkpt lat="48.1102" lon="1.31192">
        <ele>142.456627</ele>
        <time>2024-07-30T21:42:45.136Z</time>
      </trkpt>
      <trkpt lat="48.11094" lon="1.31162">
        <ele>142.361045</ele>
        <time>2024-07-30T21:43:01.781Z</time>
      </trkpt>
      <trkpt lat="48.11135" lon="1.31137">
        <ele>142.344137</ele>
        <time>2024-07-30T21:43:11.300Z</time>
      </trkpt>
      <trkpt lat="48.11192" lon="1.31105">
        <ele>142.320366</ele>
        <time>2024-07-30T21:43:23.592Z</time>
      </trkpt>
      <trkpt lat="48.11204" lon="1.31089">
        <ele>142.314212</ele>
        <time>2024-07-30T21:43:26.677Z</time>
      </trkpt>
      <trkpt lat="48.11207" lon="1.31095">
        <ele>142.312394</ele>
        <time>2024-07-30T21:43:27.544Z</time>
      </trkpt>
      <trkpt lat="48.11205" lon="1.31101">
        <ele>142.310616</ele>
        <time>2024-07-30T21:43:28.389Z</time>
      </trkpt>
      <trkpt lat="48.11194" lon="1.31109">
        <ele>142.164772</ele>
        <time>2024-07-30T21:43:30.718Z</time>
      </trkpt>
      <trkpt lat="48.11176" lon="1.31129">
        <ele>141.741777</ele>
        <time>2024-07-30T21:43:34.675Z</time>
      </trkpt>
      <trkpt lat="48.11114" lon="1.31205">
        <ele>140.194123</ele>
        <time>2024-07-30T21:43:48.043Z</time>
      </trkpt>
      <trkpt lat="48.11067" lon="1.31244">
        <ele>139.155694</ele>
        <time>2024-07-30T21:43:56.235Z</time>
      </trkpt>
      <trkpt lat="48.10956" lon="1.31396">
        <ele>132.012656</ele>
        <time>2024-07-30T21:44:17.095Z</time>
      </trkpt>
      <trkpt lat="48.10932" lon="1.31472">
        <ele>128.994105</ele>
        <time>2024-07-30T21:44:24.143Z</time>
      </trkpt>
      <trkpt lat="48.10879" lon="1.31573">
        <ele>123.238753</ele>
        <time>2024-07-30T21:44:35.068Z</time>
      </trkpt>
      <trkpt lat="48.10864" lon="1.31628">
        <ele>120.586095</ele>
        <time>2024-07-30T21:44:40.180Z</time>
      </trkpt>
      <trkpt lat="48.10857" lon="1.31645">
        <ele>119.696418</ele>
        <time>2024-07-30T21:44:41.890Z</time>
      </trkpt>
      <trkpt lat="48.10877" lon="1.31659">
        <ele>118.157407</ele>
        <time>2024-07-30T21:44:44.919Z</time>
      </trkpt>
      <trkpt lat="48.10908" lon="1.31691">
        <ele>116.610112</ele>
        <time>2024-07-30T21:44:49.928Z</time>
      </trkpt>
      <trkpt lat="48.10991" lon="1.3175">
        <ele>113.49448</ele>
        <time>2024-07-30T21:45:02.907Z</time>
      </trkpt>
      <trkpt lat="48.11019" lon="1.31774">
        <ele>112.383934</ele>
        <time>2024-07-30T21:45:08.420Z</time>
      </trkpt>
      <trkpt lat="48.11035" lon="1.31824">
        <ele>111.326651</ele>
        <time>2024-07-30T21:45:14.488Z</time>
      </trkpt>
      <trkpt lat="48.1107" lon="1.31872">
        <ele>110.606953</ele>
        <time>2024-07-30T21:45:22.165Z</time>
      </trkpt>
      <trkpt lat="48.11109" lon="1.31919">
        <ele>109.845065</ele>
        <time>2024-07-30T21:45:30.245Z</time>
      </trkpt>
      <trkpt lat="48.11134" lon="1.31954">
        <ele>109.328162</ele>
        <time>2024-07-30T21:45:35.775Z</time>
      </trkpt>
      <trkpt lat="48.11146" lon="1.3198">
        <ele>109.014791</ele>
        <time>2024-07-30T21:45:39.178Z</time>
      </trkpt>
      <trkpt lat="48.1116" lon="1.3203">
        <ele>108.689186</ele>
        <time>2024-07-30T21:45:45.467Z</time>
      </trkpt>
      <trkpt lat="48.11167" lon="1.32063">
        <ele>108.611276</ele>
        <time>2024-07-30T21:45:49.600Z</time>
      </trkpt>
      <trkpt lat="48.11189" lon="1.32166">
        <ele>108.363252</ele>
        <time>2024-07-30T21:46:03.435Z</time>
      </trkpt>
      <trkpt lat="48.11194" lon="1.32203">
        <ele>108.276661</ele>
        <time>2024-07-30T21:46:08.687Z</time>
      </trkpt>
      <trkpt lat="48.11194" lon="1.32237">
        <ele>108.200549</ele>
        <time>2024-07-30T21:46:13.354Z</time>
      </trkpt>
      <trkpt lat="48.11189" lon="1.32315">
        <ele>108.223964</ele>
        <time>2024-07-30T21:46:24.614Z</time>
      </trkpt>
      <trkpt lat="48.11182" lon="1.32412">
        <ele>108.376183</ele>
        <time>2024-07-30T21:46:38.330Z</time>
      </trkpt>
      <trkpt lat="48.1118" lon="1.3249">
        <ele>108.498948</ele>
        <time>2024-07-30T21:46:49.451Z</time>
      </trkpt>
      <trkpt lat="48.1118" lon="1.32552">
        <ele>108.593603</ele>
        <time>2024-07-30T21:46:58.288Z</time>
      </trkpt>
      <trkpt lat="48.11187" lon="1.32628">
        <ele>108.704852</ele>
        <time>2024-07-30T21:47:09.089Z</time>
      </trkpt>
      <trkpt lat="48.11258" lon="1.32631">
        <ele>108.859098</ele>
        <time>2024-07-30T21:47:23.701Z</time>
      </trkpt>
      <trkpt lat="48.1126" lon="1.32631">
        <ele>108.862583</ele>
        <time>2024-07-30T21:47:24.044Z</time>
      </trkpt>
      <trkpt lat="48.11322" lon="1.32632">
        <ele>109.048452</ele>
        <time>2024-07-30T21:47:37.209Z</time>
      </trkpt>
      <trkpt lat="48.11334" lon="1.32635">
        <ele>109.10544</ele>
        <time>2024-07-30T21:47:39.822Z</time>
      </trkpt>
      <trkpt lat="48.11349" lon="1.32645">
        <ele>109.182452</ele>
        <time>2024-07-30T21:47:43.438Z</time>
      </trkpt>
      <trkpt lat="48.11381" lon="1.32685">
        <ele>109.38106</ele>
        <time>2024-07-30T21:47:52.868Z</time>
      </trkpt>
      <trkpt lat="48.11378" lon="1.32706">
        <ele>109.451713</ele>
        <time>2024-07-30T21:47:55.477Z</time>
      </trkpt>
      <trkpt lat="48.11376" lon="1.32788">
        <ele>109.708037</ele>
        <time>2024-07-30T21:48:05.026Z</time>
      </trkpt>
      <trkpt lat="48.11378" lon="1.32843">
        <ele>109.80922</ele>
        <time>2024-07-30T21:48:11.448Z</time>
      </trkpt>
      <trkpt lat="48.11395" lon="1.33021">
        <ele>109.859574</ele>
        <time>2024-07-30T21:48:29.243Z</time>
      </trkpt>
      <trkpt lat="48.11373" lon="1.33021">
        <ele>109.8689</ele>
        <time>2024-07-30T21:48:32.367Z</time>
      </trkpt>
      <trkpt lat="48.11347" lon="1.33021">
        <ele>109.8931</ele>
        <time>2024-07-30T21:48:35.913Z</time>
      </trkpt>
      <trkpt lat="48.11332" lon="1.3302">
        <ele>109.945613</ele>
        <time>2024-07-30T21:48:37.962Z</time>
      </trkpt>
      <trkpt lat="48.11291" lon="1.33017">
        <ele>110.085903</ele>
        <time>2024-07-30T21:48:43.417Z</time>
      </trkpt>
      <trkpt lat="48.11251" lon="1.33016">
        <ele>110.225454</ele>
        <time>2024-07-30T21:48:48.852Z</time>
      </trkpt>
      <trkpt lat="48.11111" lon="1.3301">
        <ele>111.742831</ele>
        <time>2024-07-30T21:49:16.233Z</time>
      </trkpt>
      <trkpt lat="48.1105" lon="1.33008">
        <ele>112.983457</ele>
        <time>2024-07-30T21:49:31.631Z</time>
      </trkpt>
      <trkpt lat="48.11016" lon="1.33008">
        <ele>113.672997</ele>
        <time>2024-07-30T21:49:40.062Z</time>
      </trkpt>
      <trkpt lat="48.10996" lon="1.33007">
        <ele>114.091209</ele>
        <time>2024-07-30T21:49:45.101Z</time>
      </trkpt>
      <trkpt lat="48.10971" lon="1.33007">
        <ele>114.467364</ele>
        <time>2024-07-30T21:49:51.028Z</time>
      </trkpt>
      <trkpt lat="48.10914" lon="1.33006">
        <ele>115.29188</ele>
        <time>2024-07-30T21:50:04.685Z</time>
      </trkpt>
      <trkpt lat="48.10838" lon="1.33005">
        <ele>116.396361</ele>
        <time>2024-07-30T21:50:19.626Z</time>
      </trkpt>
      <trkpt lat="48.10805" lon="1.33005">
        <ele>116.797336</ele>
        <time>2024-07-30T21:50:24.508Z</time>
      </trkpt>
      <trkpt lat="48.10791" lon="1.33005">
        <ele>116.85947</ele>
        <time>2024-07-30T21:50:26.529Z</time>
      </trkpt>
      <trkpt lat="48.10728" lon="1.33005">
        <ele>117.14518</ele>
        <time>2024-07-30T21:50:35.876Z</time>
      </trkpt>
      <trkpt lat="48.10731" lon="1.33072">
        <ele>117.350784</ele>
        <time>2024-07-30T21:50:43.350Z</time>
      </trkpt>
      <trkpt lat="48.10738" lon="1.33199">
        <ele>118.059568</ele>
        <time>2024-07-30T21:50:58.637Z</time>
      </trkpt>
      <trkpt lat="48.10735" lon="1.33375">
        <ele>119.703725</ele>
        <time>2024-07-30T21:51:22.766Z</time>
      </trkpt>
      <trkpt lat="48.10734" lon="1.33441">
        <ele>120.480053</ele>
        <time>2024-07-30T21:51:32.986Z</time>
      </trkpt>
      <trkpt lat="48.1073" lon="1.33481">
        <ele>121.125193</ele>
        <time>2024-07-30T21:51:39.324Z</time>
      </trkpt>
      <trkpt lat="48.10725" lon="1.33545">
        <ele>122.149848</ele>
        <time>2024-07-30T21:51:49.786Z</time>
      </trkpt>
      <trkpt lat="48.10719" lon="1.3359">
        <ele>122.867133</ele>
        <time>2024-07-30T21:51:57.090Z</time>
      </trkpt>
      <trkpt lat="48.10712" lon="1.33624">
        <ele>123.432103</ele>
        <time>2024-07-30T21:52:03.095Z</time>
      </trkpt>
      <trkpt lat="48.10713" lon="1.33637">
        <ele>123.641861</ele>
        <time>2024-07-30T21:52:05.312Z</time>
      </trkpt>
      <trkpt lat="48.10722" lon="1.33675">
        <ele>124.279688</ele>
        <time>2024-07-30T21:52:12.014Z</time>
      </trkpt>
      <trkpt lat="48.10763" lon="1.33797">
        <ele>127.040692</ele>
        <time>2024-07-30T21:52:36.146Z</time>
      </trkpt>
      <trkpt lat="48.10778" lon="1.33851">
        <ele>128.231355</ele>
        <time>2024-07-30T21:52:47.394Z</time>
      </trkpt>
      <trkpt lat="48.1079" lon="1.33932">
        <ele>129.916715</ele>
        <time>2024-07-30T21:53:02.866Z</time>
      </trkpt>
      <trkpt lat="48.10793" lon="1.34027">
        <ele>131.579724</ele>
        <time>2024-07-30T21:53:19.888Z</time>
      </trkpt>
      <trkpt lat="48.10778" lon="1.34145">
        <ele>133.684747</ele>
        <time>2024-07-30T21:53:40.200Z</time>
      </trkpt>
      <trkpt lat="48.10771" lon="1.34172">
        <ele>134.189887</ele>
        <time>2024-07-30T21:53:44.762Z</time>
      </trkpt>
      <trkpt lat="48.10765" lon="1.34193">
        <ele>134.589588</ele>
        <time>2024-07-30T21:53:48.368Z</time>
      </trkpt>
      <trkpt lat="48.10698" lon="1.34362">
        <ele>136.583754</ele>
        <time>2024-07-30T21:54:15.989Z</time>
      </trkpt>
      <trkpt lat="48.10656" lon="1.34442">
        <ele>137.495593</ele>
        <time>2024-07-30T21:54:29.067Z</time>
      </trkpt>
      <trkpt lat="48.10572" lon="1.34594">
        <ele>138.690109</ele>
        <time>2024-07-30T21:54:53.269Z</time>
      </trkpt>
      <trkpt lat="48.10555" lon="1.34636">
        <ele>138.980931</ele>
        <time>2024-07-30T21:54:59.187Z</time>
      </trkpt>
      <trkpt lat="48.10527" lon="1.34716">
        <ele>139.368692</ele>
        <time>2024-07-30T21:55:09.900Z</time>
      </trkpt>
      <trkpt lat="48.10484" lon="1.34884">
        <ele>140.121775</ele>
        <time>2024-07-30T21:55:30.622Z</time>
      </trkpt>
      <trkpt lat="48.10469" lon="1.34929">
        <ele>140.229404</ele>
        <time>2024-07-30T21:55:36.274Z</time>
      </trkpt>
      <trkpt lat="48.10444" lon="1.34979">
        <ele>140.363055</ele>
        <time>2024-07-30T21:55:43.236Z</time>
      </trkpt>
      <trkpt lat="48.10341" lon="1.35157">
        <ele>140.60529</ele>
        <time>2024-07-30T21:56:07.576Z</time>
      </trkpt>
      <trkpt lat="48.10325" lon="1.35173">
        <ele>140.578248</ele>
        <time>2024-07-30T21:56:10.420Z</time>
      </trkpt>
      <trkpt lat="48.10225" lon="1.35291">
        <ele>140.248664</ele>
        <time>2024-07-30T21:56:27.804Z</time>
      </trkpt>
      <trkpt lat="48.10191" lon="1.35343">
        <ele>139.859621</ele>
        <time>2024-07-30T21:56:34.197Z</time>
      </trkpt>
      <trkpt lat="48.10245" lon="1.35407">
        <ele>139.314123</ele>
        <time>2024-07-30T21:56:42.915Z</time>
      </trkpt>
      <trkpt lat="48.10271" lon="1.35442">
        <ele>139.039822</ele>
        <time>2024-07-30T21:56:47.121Z</time>
      </trkpt>
      <trkpt lat="48.10291" lon="1.35474">
        <ele>138.525561</ele>
        <time>2024-07-30T21:56:50.599Z</time>
      </trkpt>
      <trkpt lat="48.10317" lon="1.35533">
        <ele>137.652775</ele>
        <time>2024-07-30T21:56:55.953Z</time>
      </trkpt>
      <trkpt lat="48.10336" lon="1.35598">
        <ele>136.769446</ele>
        <time>2024-07-30T21:57:01.208Z</time>
      </trkpt>
      <trkpt lat="48.10394" lon="1.3582">
        <ele>133.956452</ele>
        <time>2024-07-30T21:57:18.101Z</time>
      </trkpt>
      <trkpt lat="48.10402" lon="1.35875">
        <ele>133.308051</ele>
        <time>2024-07-30T21:57:22.369Z</time>
      </trkpt>
      <trkpt lat="48.10407" lon="1.35955">
        <ele>132.643967</ele>
        <time>2024-07-30T21:57:29.151Z</time>
      </trkpt>
      <trkpt lat="48.10411" lon="1.35988">
        <ele>132.776466</ele>
        <time>2024-07-30T21:57:32.322Z</time>
      </trkpt>
      <trkpt lat="48.10417" lon="1.3601">
        <ele>132.868124</ele>
        <time>2024-07-30T21:57:34.817Z</time>
      </trkpt>
      <trkpt lat="48.10442" lon="1.36064">
        <ele>133.131023</ele>
        <time>2024-07-30T21:57:42.381Z</time>
      </trkpt>
      <trkpt lat="48.10452" lon="1.36092">
        <ele>133.254678</ele>
        <time>2024-07-30T21:57:46.128Z</time>
      </trkpt>
      <trkpt lat="48.10472" lon="1.36144">
        <ele>133.490091</ele>
        <time>2024-07-30T21:57:54.071Z</time>
      </trkpt>
      <trkpt lat="48.10504" lon="1.36213">
        <ele>134.021231</ele>
        <time>2024-07-30T21:58:06.107Z</time>
      </trkpt>
      <trkpt lat="48.10545" lon="1.36304">
        <ele>134.912033</ele>
        <time>2024-07-30T21:58:21.301Z</time>
      </trkpt>
      <trkpt lat="48.10568" lon="1.36368">
        <ele>135.513088</ele>
        <time>2024-07-30T21:58:30.582Z</time>
      </trkpt>
      <trkpt lat="48.10583" lon="1.36429">
        <ele>135.9234</ele>
        <time>2024-07-30T21:58:38.202Z</time>
      </trkpt>
      <trkpt lat="48.10591" lon="1.36495">
        <ele>136.14966</ele>
        <time>2024-07-30T21:58:45.904Z</time>
      </trkpt>
      <trkpt lat="48.10605" lon="1.36607">
        <ele>136.537511</ele>
        <time>2024-07-30T21:58:59.041Z</time>
      </trkpt>
      <trkpt lat="48.10624" lon="1.36688">
        <ele>136.610428</ele>
        <time>2024-07-30T21:59:08.592Z</time>
      </trkpt>
      <trkpt lat="48.10674" lon="1.36798">
        <ele>135.783224</ele>
        <time>2024-07-30T21:59:20.347Z</time>
      </trkpt>
      <trkpt lat="48.10682" lon="1.36821">
        <ele>135.62458</ele>
        <time>2024-07-30T21:59:22.375Z</time>
      </trkpt>
      <trkpt lat="48.10692" lon="1.3689">
        <ele>135.183889</ele>
        <time>2024-07-30T21:59:27.711Z</time>
      </trkpt>
      <trkpt lat="48.10721" lon="1.36878">
        <ele>134.46722</ele>
        <time>2024-07-30T21:59:30.988Z</time>
      </trkpt>
      <trkpt lat="48.10756" lon="1.36839">
        <ele>133.055491</ele>
        <time>2024-07-30T21:59:35.475Z</time>
      </trkpt>
      <trkpt lat="48.10766" lon="1.36832">
        <ele>132.679425</ele>
        <time>2024-07-30T21:59:36.642Z</time>
      </trkpt>
      <trkpt lat="48.10778" lon="1.36827">
        <ele>132.273147</ele>
        <time>2024-07-30T21:59:37.899Z</time>
      </trkpt>
      <trkpt lat="48.10779" lon="1.36827">
        <ele>132.253016</ele>
        <time>2024-07-30T21:59:37.959Z</time>
      </trkpt>
      <trkpt lat="48.10791" lon="1.36829">
        <ele>131.855574</ele>
        <time>2024-07-30T21:59:39.179Z</time>
      </trkpt>
      <trkpt lat="48.10805" lon="1.3683">
        <ele>131.385959</ele>
        <time>2024-07-30T21:59:40.599Z</time>
      </trkpt>
      <trkpt lat="48.10826" lon="1.36845">
        <ele>130.633895</ele>
        <time>2024-07-30T21:59:42.858Z</time>
      </trkpt>
      <trkpt lat="48.10836" lon="1.3686">
        <ele>130.171823</ele>
        <time>2024-07-30T21:59:44.234Z</time>
      </trkpt>
      <trkpt lat="48.10874" lon="1.3694">
        <ele>127.450711</ele>
        <time>2024-07-30T21:59:50.559Z</time>
      </trkpt>
      <trkpt lat="48.10896" lon="1.36992">
        <ele>125.435261</ele>
        <time>2024-07-30T21:59:54.529Z</time>
      </trkpt>
      <trkpt lat="48.10906" lon="1.3702">
        <ele>124.37854</ele>
        <time>2024-07-30T21:59:56.536Z</time>
      </trkpt>
      <trkpt lat="48.10938" lon="1.37114">
        <ele>120.922928</ele>
        <time>2024-07-30T22:00:03.038Z</time>
      </trkpt>
      <trkpt lat="48.1095" lon="1.3714">
        <ele>119.976244</ele>
        <time>2024-07-30T22:00:04.990Z</time>
      </trkpt>
      <trkpt lat="48.10965" lon="1.37167">
        <ele>119.015076</ele>
        <time>2024-07-30T22:00:07.218Z</time>
      </trkpt>
      <trkpt lat="48.10974" lon="1.37177">
        <ele>118.563521</ele>
        <time>2024-07-30T22:00:08.274Z</time>
      </trkpt>
      <trkpt lat="48.11014" lon="1.37196">
        <ele>116.872043</ele>
        <time>2024-07-30T22:00:12.237Z</time>
      </trkpt>
      <trkpt lat="48.11025" lon="1.372">
        <ele>116.399988</ele>
        <time>2024-07-30T22:00:13.380Z</time>
      </trkpt>
      <trkpt lat="48.11033" lon="1.37204">
        <ele>116.04149</ele>
        <time>2024-07-30T22:00:14.253Z</time>
      </trkpt>
      <trkpt lat="48.11085" lon="1.37227">
        <ele>113.863504</ele>
        <time>2024-07-30T22:00:19.551Z</time>
      </trkpt>
      <trkpt lat="48.11182" lon="1.3723">
        <ele>112.095793</ele>
        <time>2024-07-30T22:00:29.977Z</time>
      </trkpt>
      <trkpt lat="48.11192" lon="1.37235">
        <ele>111.960278</ele>
        <time>2024-07-30T22:00:31.402Z</time>
      </trkpt>
      <trkpt lat="48.11174" lon="1.37275">
        <ele>111.564228</ele>
        <time>2024-07-30T22:00:35.778Z</time>
      </trkpt>
      <trkpt lat="48.1117" lon="1.37298">
        <ele>111.371439</ele>
        <time>2024-07-30T22:00:37.937Z</time>
      </trkpt>
      <trkpt lat="48.1117" lon="1.37341">
        <ele>111.01394</ele>
        <time>2024-07-30T22:00:42.012Z</time>
      </trkpt>
      <trkpt lat="48.11176" lon="1.37363">
        <ele>110.81791</ele>
        <time>2024-07-30T22:00:44.286Z</time>
      </trkpt>
      <trkpt lat="48.11199" lon="1.37393">
        <ele>110.808753</ele>
        <time>2024-07-30T22:00:48.692Z</time>
      </trkpt>
      <trkpt lat="48.11214" lon="1.37446">
        <ele>110.797658</ele>
        <time>2024-07-30T22:00:54.192Z</time>
      </trkpt>
      <trkpt lat="48.11221" lon="1.3745">
        <ele>110.795431</ele>
        <time>2024-07-30T22:00:55.280Z</time>
      </trkpt>
      <trkpt lat="48.1129" lon="1.37438">
        <ele>110.775168</ele>
        <time>2024-07-30T22:01:05.216Z</time>
      </trkpt>
      <trkpt lat="48.11346" lon="1.37423">
        <ele>110.90649</ele>
        <time>2024-07-30T22:01:14.368Z</time>
      </trkpt>
      <trkpt lat="48.11358" lon="1.37424">
        <ele>110.979883</ele>
        <time>2024-07-30T22:01:16.443Z</time>
      </trkpt>
      <trkpt lat="48.11375" lon="1.3744">
        <ele>111.0982</ele>
        <time>2024-07-30T22:01:19.702Z</time>
      </trkpt>
      <trkpt lat="48.11405" lon="1.37487">
        <ele>111.359903</ele>
        <time>2024-07-30T22:01:27.222Z</time>
      </trkpt>
      <trkpt lat="48.11427" lon="1.37505">
        <ele>111.507575</ele>
        <time>2024-07-30T22:01:31.443Z</time>
      </trkpt>
      <trkpt lat="48.11434" lon="1.37514">
        <ele>111.562683</ele>
        <time>2024-07-30T22:01:33.090Z</time>
      </trkpt>
      <trkpt lat="48.1144" lon="1.37536">
        <ele>111.655615</ele>
        <time>2024-07-30T22:01:35.813Z</time>
      </trkpt>
      <trkpt lat="48.1145" lon="1.37616">
        <ele>112.25931</ele>
        <time>2024-07-30T22:01:45.732Z</time>
      </trkpt>
      <trkpt lat="48.11456" lon="1.37644">
        <ele>112.610644</ele>
        <time>2024-07-30T22:01:49.713Z</time>
      </trkpt>
      <trkpt lat="48.11465" lon="1.37669">
        <ele>112.950304</ele>
        <time>2024-07-30T22:01:53.631Z</time>
      </trkpt>
      <trkpt lat="48.11502" lon="1.3776">
        <ele>114.22052</ele>
        <time>2024-07-30T22:02:09.245Z</time>
      </trkpt>
      <trkpt lat="48.11576" lon="1.37929">
        <ele>117.67762</ele>
        <time>2024-07-30T22:02:43.293Z</time>
      </trkpt>
      <trkpt lat="48.11752" lon="1.38271">
        <ele>126.205578</ele>
        <time>2024-07-30T22:04:05.466Z</time>
      </trkpt>
      <trkpt lat="48.11763" lon="1.38317">
        <ele>126.190676</ele>
        <time>2024-07-30T22:04:12.224Z</time>
      </trkpt>
      <trkpt lat="48.11769" lon="1.38371">
        <ele>126.17432</ele>
        <time>2024-07-30T22:04:18.559Z</time>
      </trkpt>
      <trkpt lat="48.11774" lon="1.38392">
        <ele>126.167467</ele>
        <time>2024-07-30T22:04:20.752Z</time>
      </trkpt>
      <trkpt lat="48.11779" lon="1.38457">
        <ele>126.147739</ele>
        <time>2024-07-30T22:04:26.281Z</time>
      </trkpt>
      <trkpt lat="48.11786" lon="1.38574">
        <ele>124.316146</ele>
        <time>2024-07-30T22:04:34.253Z</time>
      </trkpt>
      <trkpt lat="48.11788" lon="1.38678">
        <ele>121.356189</ele>
        <time>2024-07-30T22:04:40.954Z</time>
      </trkpt>
      <trkpt lat="48.11785" lon="1.3871">
        <ele>120.452555</ele>
        <time>2024-07-30T22:04:42.953Z</time>
      </trkpt>
      <trkpt lat="48.11778" lon="1.38744">
        <ele>119.448064</ele>
        <time>2024-07-30T22:04:45.187Z</time>
      </trkpt>
      <trkpt lat="48.11751" lon="1.38843">
        <ele>116.812445</ele>
        <time>2024-07-30T22:04:51.842Z</time>
      </trkpt>
      <trkpt lat="48.11731" lon="1.38917">
        <ele>114.950801</ele>
        <time>2024-07-30T22:04:56.988Z</time>
      </trkpt>
      <trkpt lat="48.1167" lon="1.38928">
        <ele>112.848655</ele>
        <time>2024-07-30T22:05:03.424Z</time>
      </trkpt>
      <trkpt lat="48.11643" lon="1.38933">
        <ele>112.463112</ele>
        <time>2024-07-30T22:05:06.760Z</time>
      </trkpt>
      <trkpt lat="48.11622" lon="1.38936">
        <ele>112.777409</ele>
        <time>2024-07-30T22:05:09.533Z</time>
      </trkpt>
      <trkpt lat="48.11607" lon="1.38939">
        <ele>113.017004</ele>
        <time>2024-07-30T22:05:11.825Z</time>
      </trkpt>
      <trkpt lat="48.11384" lon="1.38985">
        <ele>117.266835</ele>
        <time>2024-07-30T22:06:09.059Z</time>
      </trkpt>
      <trkpt lat="48.11214" lon="1.3902">
        <ele>120.290895</ele>
        <time>2024-07-30T22:06:48.815Z</time>
      </trkpt>
      <trkpt lat="48.11226" lon="1.3907">
        <ele>120.697847</ele>
        <time>2024-07-30T22:06:54.687Z</time>
      </trkpt>
      <trkpt lat="48.11238" lon="1.39111">
        <ele>121.039842</ele>
        <time>2024-07-30T22:06:59.292Z</time>
      </trkpt>
      <trkpt lat="48.11295" lon="1.39248">
        <ele>122.040244</ele>
        <time>2024-07-30T22:07:16.584Z</time>
      </trkpt>
      <trkpt lat="48.11313" lon="1.39297">
        <ele>122.360239</ele>
        <time>2024-07-30T22:07:23.211Z</time>
      </trkpt>
      <trkpt lat="48.11316" lon="1.39311">
        <ele>122.440959</ele>
        <time>2024-07-30T22:07:25.047Z</time>
      </trkpt>
      <trkpt lat="48.11314" lon="1.3934">
        <ele>122.602647</ele>
        <time>2024-07-30T22:07:28.779Z</time>
      </trkpt>
      <trkpt lat="48.11293" lon="1.39425">
        <ele>123.371241</ele>
        <time>2024-07-30T22:07:41.760Z</time>
      </trkpt>
      <trkpt lat="48.11277" lon="1.39474">
        <ele>124.046753</ele>
        <time>2024-07-30T22:07:50.174Z</time>
      </trkpt>
      <trkpt lat="48.11251" lon="1.39538">
        <ele>124.978287</ele>
        <time>2024-07-30T22:08:02.126Z</time>
      </trkpt>
      <trkpt lat="48.11233" lon="1.39595">
        <ele>125.761946</ele>
        <time>2024-07-30T22:08:11.669Z</time>
      </trkpt>
      <trkpt lat="48.11201" lon="1.39757">
        <ele>127.476235</ele>
        <time>2024-07-30T22:08:35.326Z</time>
      </trkpt>
      <trkpt lat="48.11187" lon="1.39807">
        <ele>127.99057</ele>
        <time>2024-07-30T22:08:42.617Z</time>
      </trkpt>
      <trkpt lat="48.1114" lon="1.39933">
        <ele>129.112962</ele>
        <time>2024-07-30T22:09:01.572Z</time>
      </trkpt>
      <trkpt lat="48.11113" lon="1.39995">
        <ele>129.500955</ele>
        <time>2024-07-30T22:09:11.335Z</time>
      </trkpt>
      <trkpt lat="48.10991" lon="1.40127">
        <ele>129.715502</ele>
        <time>2024-07-30T22:09:36.036Z</time>
      </trkpt>
      <trkpt lat="48.10839" lon="1.40261">
        <ele>127.582612</ele>
        <time>2024-07-30T22:09:56.413Z</time>
      </trkpt>
      <trkpt lat="48.10724" lon="1.40372">
        <ele>124.882405</ele>
        <time>2024-07-30T22:10:11.103Z</time>
      </trkpt>
      <trkpt lat="48.10675" lon="1.40427">
        <ele>123.740349</ele>
        <time>2024-07-30T22:10:17.846Z</time>
      </trkpt>
      <trkpt lat="48.10568" lon="1.4055">
        <ele>121.251688</ele>
        <time>2024-07-30T22:10:33.070Z</time>
      </trkpt>
      <trkpt lat="48.10544" lon="1.40586">
        <ele>120.626884</ele>
        <time>2024-07-30T22:10:37.034Z</time>
      </trkpt>
      <trkpt lat="48.10502" lon="1.40658">
        <ele>119.44944</ele>
        <time>2024-07-30T22:10:44.141Z</time>
      </trkpt>
      <trkpt lat="48.10479" lon="1.4071">
        <ele>118.692477</ele>
        <time>2024-07-30T22:10:48.588Z</time>
      </trkpt>
      <trkpt lat="48.10467" lon="1.40747">
        <ele>118.236799</ele>
        <time>2024-07-30T22:10:51.600Z</time>
      </trkpt>
      <trkpt lat="48.10434" lon="1.40836">
        <ele>117.220267</ele>
        <time>2024-07-30T22:10:59.101Z</time>
      </trkpt>
      <trkpt lat="48.10408" lon="1.40892">
        <ele>116.539238</ele>
        <time>2024-07-30T22:11:04.379Z</time>
      </trkpt>
      <trkpt lat="48.10401" lon="1.40911">
        <ele>116.318713</ele>
        <time>2024-07-30T22:11:06.155Z</time>
      </trkpt>
      <trkpt lat="48.104" lon="1.40934">
        <ele>116.093464</ele>
        <time>2024-07-30T22:11:07.942Z</time>
      </trkpt>
      <trkpt lat="48.10404" lon="1.40951">
        <ele>115.907151</ele>
        <time>2024-07-30T22:11:09.442Z</time>
      </trkpt>
      <trkpt lat="48.10425" lon="1.40991">
        <ele>115.789733</ele>
        <time>2024-07-30T22:11:13.756Z</time>
      </trkpt>
      <trkpt lat="48.1043" lon="1.41016">
        <ele>115.792302</ele>
        <time>2024-07-30T22:11:16.077Z</time>
      </trkpt>
      <trkpt lat="48.10427" lon="1.41054">
        <ele>115.796116</ele>
        <time>2024-07-30T22:11:19.793Z</time>
      </trkpt>
      <trkpt lat="48.10418" lon="1.41093">
        <ele>115.800268</ele>
        <time>2024-07-30T22:11:23.997Z</time>
      </trkpt>
      <trkpt lat="48.10385" lon="1.41204">
        <ele>115.812512</ele>
        <time>2024-07-30T22:11:37.721Z</time>
      </trkpt>
      <trkpt lat="48.10371" lon="1.41357">
        <ele>116.063018</ele>
        <time>2024-07-30T22:11:55.117Z</time>
      </trkpt>
      <trkpt lat="48.10365" lon="1.41435">
        <ele>116.194247</ele>
        <time>2024-07-30T22:12:03.027Z</time>
      </trkpt>
      <trkpt lat="48.10368" lon="1.41466">
        <ele>116.246714</ele>
        <time>2024-07-30T22:12:06.019Z</time>
      </trkpt>
      <trkpt lat="48.10392" lon="1.41518">
        <ele>116.140727</ele>
        <time>2024-07-30T22:12:11.945Z</time>
      </trkpt>
      <trkpt lat="48.10418" lon="1.41585">
        <ele>115.967077</ele>
        <time>2024-07-30T22:12:19.026Z</time>
      </trkpt>
      <trkpt lat="48.1044" lon="1.41684">
        <ele>115.732473</ele>
        <time>2024-07-30T22:12:28.284Z</time>
      </trkpt>
      <trkpt lat="48.10444" lon="1.41743">
        <ele>115.649501</ele>
        <time>2024-07-30T22:12:33.519Z</time>
      </trkpt>
      <trkpt lat="48.10442" lon="1.41767">
        <ele>115.641361</ele>
        <time>2024-07-30T22:12:35.746Z</time>
      </trkpt>
      <trkpt lat="48.10426" lon="1.41873">
        <ele>115.605987</ele>
        <time>2024-07-30T22:12:46.370Z</time>
      </trkpt>
      <trkpt lat="48.10425" lon="1.41897">
        <ele>115.598295</ele>
        <time>2024-07-30T22:12:48.834Z</time>
      </trkpt>
      <trkpt lat="48.10427" lon="1.4192">
        <ele>115.590508</ele>
        <time>2024-07-30T22:12:51.268Z</time>
      </trkpt>
      <trkpt lat="48.10437" lon="1.4198">
        <ele>115.570409</ele>
        <time>2024-07-30T22:12:57.697Z</time>
      </trkpt>
      <trkpt lat="48.10442" lon="1.4203">
        <ele>115.596082</ele>
        <time>2024-07-30T22:13:03.079Z</time>
      </trkpt>
      <trkpt lat="48.1045" lon="1.42161">
        <ele>115.664922</ele>
        <time>2024-07-30T22:13:16.766Z</time>
      </trkpt>
      <trkpt lat="48.10452" lon="1.42193">
        <ele>115.681829</ele>
        <time>2024-07-30T22:13:19.956Z</time>
      </trkpt>
      <trkpt lat="48.1046" lon="1.42298">
        <ele>115.732963</ele>
        <time>2024-07-30T22:13:29.769Z</time>
      </trkpt>
      <trkpt lat="48.10479" lon="1.4238">
        <ele>115.771356</ele>
        <time>2024-07-30T22:13:37.792Z</time>
      </trkpt>
      <trkpt lat="48.10526" lon="1.42528">
        <ele>115.992741</ele>
        <time>2024-07-30T22:13:55.388Z</time>
      </trkpt>
      <trkpt lat="48.10571" lon="1.4264">
        <ele>116.687975</ele>
        <time>2024-07-30T22:14:11.422Z</time>
      </trkpt>
      <trkpt lat="48.10722" lon="1.42999">
        <ele>118.956231</ele>
        <time>2024-07-30T22:15:04.021Z</time>
      </trkpt>
      <trkpt lat="48.10834" lon="1.43274">
        <ele>120.106624</ele>
        <time>2024-07-30T22:15:37.251Z</time>
      </trkpt>
      <trkpt lat="48.10977" lon="1.43507">
        <ele>122.901224</ele>
        <time>2024-07-30T22:16:20.297Z</time>
      </trkpt>
      <trkpt lat="48.11" lon="1.43538">
        <ele>123.452599</ele>
        <time>2024-07-30T22:16:27.673Z</time>
      </trkpt>
      <trkpt lat="48.11042" lon="1.43612">
        <ele>124.622187</ele>
        <time>2024-07-30T22:16:43.294Z</time>
      </trkpt>
      <trkpt lat="48.11074" lon="1.4367">
        <ele>125.578249</ele>
        <time>2024-07-30T22:16:55.231Z</time>
      </trkpt>
      <trkpt lat="48.11149" lon="1.43768">
        <ele>127.479174</ele>
        <time>2024-07-30T22:17:17.678Z</time>
      </trkpt>
      <trkpt lat="48.11197" lon="1.43854">
        <ele>128.400572</ele>
        <time>2024-07-30T22:17:32.098Z</time>
      </trkpt>
      <trkpt lat="48.11209" lon="1.4387">
        <ele>128.573146</ele>
        <time>2024-07-30T22:17:35.278Z</time>
      </trkpt>
      <trkpt lat="48.11234" lon="1.43893">
        <ele>128.875302</ele>
        <time>2024-07-30T22:17:40.776Z</time>
      </trkpt>
      <trkpt lat="48.11251" lon="1.43905">
        <ele>129.074286</ele>
        <time>2024-07-30T22:17:44.436Z</time>
      </trkpt>
      <trkpt lat="48.11273" lon="1.43935">
        <ele>129.383408</ele>
        <time>2024-07-30T22:17:49.882Z</time>
      </trkpt>
      <trkpt lat="48.11343" lon="1.44081">
        <ele>130.031738</ele>
        <time>2024-07-30T22:18:10.489Z</time>
      </trkpt>
      <trkpt lat="48.11386" lon="1.44149">
        <ele>130.275398</ele>
        <time>2024-07-30T22:18:20.571Z</time>
      </trkpt>
      <trkpt lat="48.1145" lon="1.44233">
        <ele>130.143362</ele>
        <time>2024-07-30T22:18:32.486Z</time>
      </trkpt>
      <trkpt lat="48.11469" lon="1.44261">
        <ele>130.040482</ele>
        <time>2024-07-30T22:18:36.066Z</time>
      </trkpt>
      <trkpt lat="48.11488" lon="1.4429">
        <ele>129.934356</ele>
        <time>2024-07-30T22:18:39.834Z</time>
      </trkpt>
      <trkpt lat="48.11494" lon="1.44295">
        <ele>129.90893</ele>
        <time>2024-07-30T22:18:40.725Z</time>
      </trkpt>
      <trkpt lat="48.11522" lon="1.44318">
        <ele>129.789195</ele>
        <time>2024-07-30T22:18:45.035Z</time>
      </trkpt>
      <trkpt lat="48.11559" lon="1.44373">
        <ele>129.36278</ele>
        <time>2024-07-30T22:18:51.989Z</time>
      </trkpt>
      <trkpt lat="48.11588" lon="1.44426">
        <ele>128.780164</ele>
        <time>2024-07-30T22:18:57.642Z</time>
      </trkpt>
      <trkpt lat="48.11595" lon="1.44439">
        <ele>128.638222</ele>
        <time>2024-07-30T22:18:58.950Z</time>
      </trkpt>
      <trkpt lat="48.1161" lon="1.44448">
        <ele>128.435727</ele>
        <time>2024-07-30T22:19:00.843Z</time>
      </trkpt>
      <trkpt lat="48.11623" lon="1.44446">
        <ele>128.271638</ele>
        <time>2024-07-30T22:19:02.318Z</time>
      </trkpt>
      <trkpt lat="48.11639" lon="1.44436">
        <ele>128.045629</ele>
        <time>2024-07-30T22:19:04.347Z</time>
      </trkpt>
      <trkpt lat="48.11664" lon="1.44429">
        <ele>127.726848</ele>
        <time>2024-07-30T22:19:07.161Z</time>
      </trkpt>
      <trkpt lat="48.11672" lon="1.44438">
        <ele>127.594696</ele>
        <time>2024-07-30T22:19:08.343Z</time>
      </trkpt>
      <trkpt lat="48.11701" lon="1.44506">
        <ele>126.600082</ele>
        <time>2024-07-30T22:19:14.229Z</time>
      </trkpt>
      <trkpt lat="48.11723" lon="1.44537">
        <ele>125.960197</ele>
        <time>2024-07-30T22:19:17.530Z</time>
      </trkpt>
      <trkpt lat="48.11751" lon="1.44577">
        <ele>125.152172</ele>
        <time>2024-07-30T22:19:21.640Z</time>
      </trkpt>
      <trkpt lat="48.11805" lon="1.44641">
        <ele>123.71863</ele>
        <time>2024-07-30T22:19:29.025Z</time>
      </trkpt>
      <trkpt lat="48.11849" lon="1.44705">
        <ele>122.922936</ele>
        <time>2024-07-30T22:19:35.911Z</time>
      </trkpt>
      <trkpt lat="48.11884" lon="1.44776">
        <ele>122.192814</ele>
        <time>2024-07-30T22:19:43.003Z</time>
      </trkpt>
      <trkpt lat="48.1192" lon="1.44849">
        <ele>121.443426</ele>
        <time>2024-07-30T22:19:50.550Z</time>
      </trkpt>
      <trkpt lat="48.11982" lon="1.44961">
        <ele>120.732673</ele>
        <time>2024-07-30T22:20:03.092Z</time>
      </trkpt>
      <trkpt lat="48.12049" lon="1.45066">
        <ele>119.903468</ele>
        <time>2024-07-30T22:20:16.096Z</time>
      </trkpt>
      <trkpt lat="48.12057" lon="1.45082">
        <ele>119.64791</ele>
        <time>2024-07-30T22:20:17.688Z</time>
      </trkpt>
      <trkpt lat="48.12088" lon="1.45187">
        <ele>118.187937</ele>
        <time>2024-07-30T22:20:26.180Z</time>
      </trkpt>
      <trkpt lat="48.12103" lon="1.45221">
        <ele>117.655186</ele>
        <time>2024-07-30T22:20:29.143Z</time>
      </trkpt>
      <trkpt lat="48.12116" lon="1.45245">
        <ele>117.27056</ele>
        <time>2024-07-30T22:20:31.239Z</time>
      </trkpt>
      <trkpt lat="48.12137" lon="1.45286">
        <ele>116.604985</ele>
        <time>2024-07-30T22:20:34.879Z</time>
      </trkpt>
      <trkpt lat="48.12205" lon="1.45404">
        <ele>114.57133</ele>
        <time>2024-07-30T22:20:45.744Z</time>
      </trkpt>
      <trkpt lat="48.12256" lon="1.45519">
        <ele>113.365487</ele>
        <time>2024-07-30T22:20:56.502Z</time>
      </trkpt>
      <trkpt lat="48.12355" lon="1.4565">
        <ele>114.720434</ele>
        <time>2024-07-30T22:21:22.866Z</time>
      </trkpt>
      <trkpt lat="48.12386" lon="1.45683">
        <ele>115.200142</ele>
        <time>2024-07-30T22:21:32.276Z</time>
      </trkpt>
      <trkpt lat="48.12497" lon="1.4576">
        <ele>117.675685</ele>
        <time>2024-07-30T22:22:01.429Z</time>
      </trkpt>
      <trkpt lat="48.12507" lon="1.45774">
        <ele>117.958517</ele>
        <time>2024-07-30T22:22:04.493Z</time>
      </trkpt>
      <trkpt lat="48.12512" lon="1.4579">
        <ele>118.191762</ele>
        <time>2024-07-30T22:22:07.000Z</time>
      </trkpt>
      <trkpt lat="48.12513" lon="1.45809">
        <ele>118.441261</ele>
        <time>2024-07-30T22:22:09.651Z</time>
      </trkpt>
      <trkpt lat="48.12512" lon="1.4584">
        <ele>118.800426</ele>
        <time>2024-07-30T22:22:14.057Z</time>
      </trkpt>
      <trkpt lat="48.12496" lon="1.45962">
        <ele>120.033201</ele>
        <time>2024-07-30T22:22:30.853Z</time>
      </trkpt>
      <trkpt lat="48.1249" lon="1.46032">
        <ele>120.737028</ele>
        <time>2024-07-30T22:22:40.163Z</time>
      </trkpt>
      <trkpt lat="48.12483" lon="1.46077">
        <ele>121.196887</ele>
        <time>2024-07-30T22:22:46.558Z</time>
      </trkpt>
      <trkpt lat="48.12464" lon="1.46137">
        <ele>122.138675</ele>
        <time>2024-07-30T22:22:56.308Z</time>
      </trkpt>
      <trkpt lat="48.12462" lon="1.46205">
        <ele>123.156875</ele>
        <time>2024-07-30T22:23:06.998Z</time>
      </trkpt>
      <trkpt lat="48.12465" lon="1.46253">
        <ele>123.878546</ele>
        <time>2024-07-30T22:23:14.951Z</time>
      </trkpt>
      <trkpt lat="48.12469" lon="1.4629">
        <ele>124.438834</ele>
        <time>2024-07-30T22:23:21.313Z</time>
      </trkpt>
      <trkpt lat="48.12525" lon="1.46548">
        <ele>128.815913</ele>
        <time>2024-07-30T22:24:06.773Z</time>
      </trkpt>
      <trkpt lat="48.12544" lon="1.46593">
        <ele>129.702907</ele>
        <time>2024-07-30T22:24:15.189Z</time>
      </trkpt>
      <trkpt lat="48.12579" lon="1.46657">
        <ele>130.804162</ele>
        <time>2024-07-30T22:24:28.191Z</time>
      </trkpt>
      <trkpt lat="48.12638" lon="1.46746">
        <ele>132.409907</ele>
        <time>2024-07-30T22:24:47.056Z</time>
      </trkpt>
      <trkpt lat="48.12697" lon="1.46799">
        <ele>133.58484</ele>
        <time>2024-07-30T22:25:02.095Z</time>
      </trkpt>
      <trkpt lat="48.12727" lon="1.46834">
        <ele>134.046185</ele>
        <time>2024-07-30T22:25:09.742Z</time>
      </trkpt>
      <trkpt lat="48.12765" lon="1.46883">
        <ele>134.67127</ele>
        <time>2024-07-30T22:25:19.844Z</time>
      </trkpt>
      <trkpt lat="48.12782" lon="1.4692">
        <ele>135.044448</ele>
        <time>2024-07-30T22:25:25.632Z</time>
      </trkpt>
      <trkpt lat="48.12793" lon="1.46936">
        <ele>135.242527</ele>
        <time>2024-07-30T22:25:28.618Z</time>
      </trkpt>
      <trkpt lat="48.12848" lon="1.46987">
        <ele>135.713561</ele>
        <time>2024-07-30T22:25:39.892Z</time>
      </trkpt>
      <trkpt lat="48.12871" lon="1.47005">
        <ele>135.837763</ele>
        <time>2024-07-30T22:25:44.245Z</time>
      </trkpt>
      <trkpt lat="48.12894" lon="1.47016">
        <ele>135.950304</ele>
        <time>2024-07-30T22:25:48.120Z</time>
      </trkpt>
      <trkpt lat="48.12988" lon="1.47061">
        <ele>136.400963</ele>
        <time>2024-07-30T22:26:03.997Z</time>
      </trkpt>
      <trkpt lat="48.12982" lon="1.47106">
        <ele>136.497949</ele>
        <time>2024-07-30T22:26:08.926Z</time>
      </trkpt>
      <trkpt lat="48.12984" lon="1.47164">
        <ele>136.621828</ele>
        <time>2024-07-30T22:26:15.231Z</time>
      </trkpt>
      <trkpt lat="48.12985" lon="1.47171">
        <ele>136.636476</ele>
        <time>2024-07-30T22:26:15.989Z</time>
      </trkpt>
      <trkpt lat="48.13067" lon="1.47838">
        <ele>137.856989</ele>
        <time>2024-07-30T22:27:29.013Z</time>
      </trkpt>
      <trkpt lat="48.13085" lon="1.47935">
        <ele>137.17212</ele>
        <time>2024-07-30T22:27:37.588Z</time>
      </trkpt>
      <trkpt lat="48.1309" lon="1.47962">
        <ele>136.973869</ele>
        <time>2024-07-30T22:27:39.938Z</time>
      </trkpt>
      <trkpt lat="48.13212" lon="1.48555">
        <ele>132.553212</ele>
        <time>2024-07-30T22:28:29.123Z</time>
      </trkpt>
      <trkpt lat="48.13227" lon="1.48624">
        <ele>132.031894</ele>
        <time>2024-07-30T22:28:35.175Z</time>
      </trkpt>
      <trkpt lat="48.13241" lon="1.48673">
        <ele>131.721013</ele>
        <time>2024-07-30T22:28:39.690Z</time>
      </trkpt>
      <trkpt lat="48.13265" lon="1.4873">
        <ele>131.328014</ele>
        <time>2024-07-30T22:28:45.298Z</time>
      </trkpt>
      <trkpt lat="48.13296" lon="1.48804">
        <ele>130.817771</ele>
        <time>2024-07-30T22:28:52.648Z</time>
      </trkpt>
      <trkpt lat="48.13308" lon="1.4886">
        <ele>130.473212</ele>
        <time>2024-07-30T22:28:57.486Z</time>
      </trkpt>
      <trkpt lat="48.133" lon="1.4894">
        <ele>129.994119</ele>
        <time>2024-07-30T22:29:03.945Z</time>
      </trkpt>
      <trkpt lat="48.13275" lon="1.4894">
        <ele>129.771155</ele>
        <time>2024-07-30T22:29:07.018Z</time>
      </trkpt>
      <trkpt lat="48.13273" lon="1.48946">
        <ele>129.73417</ele>
        <time>2024-07-30T22:29:07.500Z</time>
      </trkpt>
      <trkpt lat="48.13277" lon="1.49068">
        <ele>129.011851</ele>
        <time>2024-07-30T22:29:17.696Z</time>
      </trkpt>
      <trkpt lat="48.13276" lon="1.4911">
        <ele>128.912919</ele>
        <time>2024-07-30T22:29:21.438Z</time>
      </trkpt>
      <trkpt lat="48.13268" lon="1.4914">
        <ele>128.8885</ele>
        <time>2024-07-30T22:29:24.500Z</time>
      </trkpt>
      <trkpt lat="48.13259" lon="1.4916">
        <ele>128.870009</ele>
        <time>2024-07-30T22:29:26.772Z</time>
      </trkpt>
      <trkpt lat="48.13223" lon="1.49216">
        <ele>128.810343</ele>
        <time>2024-07-30T22:29:34.337Z</time>
      </trkpt>
      <trkpt lat="48.13202" lon="1.49278">
        <ele>128.757365</ele>
        <time>2024-07-30T22:29:41.372Z</time>
      </trkpt>
      <trkpt lat="48.13184" lon="1.49313">
        <ele>128.746078</ele>
        <time>2024-07-30T22:29:45.992Z</time>
      </trkpt>
      <trkpt lat="48.12905" lon="1.49498">
        <ele>130.316652</ele>
        <time>2024-07-30T22:30:35.757Z</time>
      </trkpt>
      <trkpt lat="48.1287" lon="1.4951">
        <ele>130.590365</ele>
        <time>2024-07-30T22:30:43.273Z</time>
      </trkpt>
      <trkpt lat="48.12806" lon="1.49525">
        <ele>131.482082</ele>
        <time>2024-07-30T22:30:57.310Z</time>
      </trkpt>
      <trkpt lat="48.12784" lon="1.49535">
        <ele>131.835058</ele>
        <time>2024-07-30T22:31:02.438Z</time>
      </trkpt>
      <trkpt lat="48.1265" lon="1.49626">
        <ele>133.94956</ele>
        <time>2024-07-30T22:31:33.044Z</time>
      </trkpt>
      <trkpt lat="48.12633" lon="1.49633">
        <ele>134.166827</ele>
        <time>2024-07-30T22:31:36.267Z</time>
      </trkpt>
      <trkpt lat="48.1256" lon="1.49638">
        <ele>135.051449</ele>
        <time>2024-07-30T22:31:49.957Z</time>
      </trkpt>
      <trkpt lat="48.12543" lon="1.49641">
        <ele>135.255973</ele>
        <time>2024-07-30T22:31:53.311Z</time>
      </trkpt>
      <trkpt lat="48.12513" lon="1.49652">
        <ele>135.631663</ele>
        <time>2024-07-30T22:31:59.582Z</time>
      </trkpt>
      <trkpt lat="48.12416" lon="1.49712">
        <ele>136.896693</ele>
        <time>2024-07-30T22:32:20.784Z</time>
      </trkpt>
      <trkpt lat="48.12368" lon="1.49747">
        <ele>137.542509</ele>
        <time>2024-07-30T22:32:31.580Z</time>
      </trkpt>
      <trkpt lat="48.12364" lon="1.4975">
        <ele>137.597172</ele>
        <time>2024-07-30T22:32:32.426Z</time>
      </trkpt>
      <trkpt lat="48.12349" lon="1.49773">
        <ele>137.810984</ele>
        <time>2024-07-30T22:32:36.439Z</time>
      </trkpt>
      <trkpt lat="48.12342" lon="1.49794">
        <ele>137.865755</ele>
        <time>2024-07-30T22:32:39.309Z</time>
      </trkpt>
      <trkpt lat="48.12332" lon="1.49851">
        <ele>138.003709</ele>
        <time>2024-07-30T22:32:45.881Z</time>
      </trkpt>
      <trkpt lat="48.12337" lon="1.49866">
        <ele>138.043238</ele>
        <time>2024-07-30T22:32:47.663Z</time>
      </trkpt>
      <trkpt lat="48.12349" lon="1.49915">
        <ele>138.164075</ele>
        <time>2024-07-30T22:32:53.092Z</time>
      </trkpt>
      <trkpt lat="48.12349" lon="1.49931">
        <ele>138.200603</ele>
        <time>2024-07-30T22:32:54.734Z</time>
      </trkpt>
      <trkpt lat="48.12346" lon="1.49945">
        <ele>138.23621</ele>
        <time>2024-07-30T22:32:56.246Z</time>
      </trkpt>
      <trkpt lat="48.12336" lon="1.49972">
        <ele>138.306865</ele>
        <time>2024-07-30T22:32:59.148Z</time>
      </trkpt>
      <trkpt lat="48.12329" lon="1.49984">
        <ele>138.343714</ele>
        <time>2024-07-30T22:33:00.682Z</time>
      </trkpt>
      <trkpt lat="48.12321" lon="1.49993">
        <ele>138.378307</ele>
        <time>2024-07-30T22:33:02.082Z</time>
      </trkpt>
      <trkpt lat="48.12283" lon="1.50022">
        <ele>138.502866</ele>
        <time>2024-07-30T22:33:08.460Z</time>
      </trkpt>
      <trkpt lat="48.12311" lon="1.50077">
        <ele>138.626996</ele>
        <time>2024-07-30T22:33:15.846Z</time>
      </trkpt>
      <trkpt lat="48.12324" lon="1.50092">
        <ele>138.671736</ele>
        <time>2024-07-30T22:33:18.510Z</time>
      </trkpt>
      <trkpt lat="48.12346" lon="1.5011">
        <ele>138.73803</ele>
        <time>2024-07-30T22:33:22.458Z</time>
      </trkpt>
      <trkpt lat="48.1237" lon="1.50123">
        <ele>138.807486</ele>
        <time>2024-07-30T22:33:26.590Z</time>
      </trkpt>
      <trkpt lat="48.12403" lon="1.50161">
        <ele>138.897039</ele>
        <time>2024-07-30T22:33:33.622Z</time>
      </trkpt>
      <trkpt lat="48.12417" lon="1.50183">
        <ele>138.870761</ele>
        <time>2024-07-30T22:33:37.221Z</time>
      </trkpt>
      <trkpt lat="48.12433" lon="1.50214">
        <ele>138.837165</ele>
        <time>2024-07-30T22:33:41.567Z</time>
      </trkpt>
      <trkpt lat="48.12453" lon="1.50269">
        <ele>138.783227</ele>
        <time>2024-07-30T22:33:47.784Z</time>
      </trkpt>
      <trkpt lat="48.12459" lon="1.50298">
        <ele>138.75711</ele>
        <time>2024-07-30T22:33:50.622Z</time>
      </trkpt>
      <trkpt lat="48.12468" lon="1.50359">
        <ele>138.703998</ele>
        <time>2024-07-30T22:33:56.148Z</time>
      </trkpt>
      <trkpt lat="48.12471" lon="1.5041">
        <ele>138.57388</ele>
        <time>2024-07-30T22:34:00.470Z</time>
      </trkpt>
      <trkpt lat="48.12473" lon="1.5045">
        <ele>138.303401</ele>
        <time>2024-07-30T22:34:03.722Z</time>
      </trkpt>
      <trkpt lat="48.12477" lon="1.50504">
        <ele>137.944721</ele>
        <time>2024-07-30T22:34:08.043Z</time>
      </trkpt>
      <trkpt lat="48.12488" lon="1.50601">
        <ele>137.284678</ele>
        <time>2024-07-30T22:34:15.957Z</time>
      </trkpt>
      <trkpt lat="48.12484" lon="1.50682">
        <ele>136.824984</ele>
        <time>2024-07-30T22:34:22.405Z</time>
      </trkpt>
      <trkpt lat="48.12482" lon="1.50898">
        <ele>136.232611</ele>
        <time>2024-07-30T22:34:42.160Z</time>
      </trkpt>
      <trkpt lat="48.12475" lon="1.50931">
        <ele>136.139605</ele>
        <time>2024-07-30T22:34:45.610Z</time>
      </trkpt>
      <trkpt lat="48.12458" lon="1.50977">
        <ele>136.040103</ele>
        <time>2024-07-30T22:34:50.748Z</time>
      </trkpt>
      <trkpt lat="48.12438" lon="1.51031">
        <ele>135.921084</ele>
        <time>2024-07-30T22:34:56.784Z</time>
      </trkpt>
      <trkpt lat="48.1243" lon="1.5106">
        <ele>135.860292</ele>
        <time>2024-07-30T22:34:59.824Z</time>
      </trkpt>
      <trkpt lat="48.12427" lon="1.51096">
        <ele>135.791854</ele>
        <time>2024-07-30T22:35:03.211Z</time>
      </trkpt>
      <trkpt lat="48.12423" lon="1.51314">
        <ele>134.607329</ele>
        <time>2024-07-30T22:35:22.034Z</time>
      </trkpt>
      <trkpt lat="48.12421" lon="1.51433">
        <ele>133.688422</ele>
        <time>2024-07-30T22:35:31.498Z</time>
      </trkpt>
      <trkpt lat="48.1225" lon="1.51532">
        <ele>128.808897</ele>
        <time>2024-07-30T22:35:50.670Z</time>
      </trkpt>
      <trkpt lat="48.12237" lon="1.51541">
        <ele>128.32638</ele>
        <time>2024-07-30T22:35:52.100Z</time>
      </trkpt>
      <trkpt lat="48.12222" lon="1.51555">
        <ele>127.600414</ele>
        <time>2024-07-30T22:35:53.806Z</time>
      </trkpt>
      <trkpt lat="48.12179" lon="1.51582">
        <ele>125.701889</ele>
        <time>2024-07-30T22:35:58.218Z</time>
      </trkpt>
      <trkpt lat="48.121" lon="1.51603">
        <ele>122.367606</ele>
        <time>2024-07-30T22:36:05.868Z</time>
      </trkpt>
      <trkpt lat="48.12009" lon="1.51635">
        <ele>120.499168</ele>
        <time>2024-07-30T22:36:15.326Z</time>
      </trkpt>
      <trkpt lat="48.11999" lon="1.5164">
        <ele>120.394347</ele>
        <time>2024-07-30T22:36:16.533Z</time>
      </trkpt>
      <trkpt lat="48.1198" lon="1.51654">
        <ele>120.181126</ele>
        <time>2024-07-30T22:36:19.204Z</time>
      </trkpt>
      <trkpt lat="48.11974" lon="1.51664">
        <ele>120.096894</ele>
        <time>2024-07-30T22:36:20.316Z</time>
      </trkpt>
      <trkpt lat="48.11969" lon="1.51678">
        <ele>119.993004</ele>
        <time>2024-07-30T22:36:21.727Z</time>
      </trkpt>
      <trkpt lat="48.11954" lon="1.51743">
        <ele>119.536493</ele>
        <time>2024-07-30T22:36:29.651Z</time>
      </trkpt>
      <trkpt lat="48.11948" lon="1.5176">
        <ele>119.403165</ele>
        <time>2024-07-30T22:36:32.329Z</time>
      </trkpt>
      <trkpt lat="48.11862" lon="1.51931">
        <ele>122.156661</ele>
        <time>2024-07-30T22:37:06.792Z</time>
      </trkpt>
      <trkpt lat="48.11815" lon="1.52006">
        <ele>123.37552</ele>
        <time>2024-07-30T22:37:23.396Z</time>
      </trkpt>
      <trkpt lat="48.11601" lon="1.52308">
        <ele>126.477044</ele>
        <time>2024-07-30T22:38:18.778Z</time>
      </trkpt>
      <trkpt lat="48.11579" lon="1.52334">
        <ele>126.708745</ele>
        <time>2024-07-30T22:38:23.377Z</time>
      </trkpt>
      <trkpt lat="48.11531" lon="1.52381">
        <ele>126.882015</ele>
        <time>2024-07-30T22:38:32.545Z</time>
      </trkpt>
      <trkpt lat="48.11112" lon="1.5276">
        <ele>127.767492</ele>
        <time>2024-07-30T22:39:47.284Z</time>
      </trkpt>
      <trkpt lat="48.11067" lon="1.52803">
        <ele>128.271231</ele>
        <time>2024-07-30T22:39:56.822Z</time>
      </trkpt>
      <trkpt lat="48.11044" lon="1.52831">
        <ele>128.580961</ele>
        <time>2024-07-30T22:40:02.482Z</time>
      </trkpt>
      <trkpt lat="48.11008" lon="1.52881">
        <ele>129.086846</ele>
        <time>2024-07-30T22:40:12.183Z</time>
      </trkpt>
      <trkpt lat="48.10732" lon="1.53285">
        <ele>133.789302</ele>
        <time>2024-07-30T22:41:30.621Z</time>
      </trkpt>
      <trkpt lat="48.107" lon="1.53315">
        <ele>134.070904</ele>
        <time>2024-07-30T22:41:36.546Z</time>
      </trkpt>
      <trkpt lat="48.1068" lon="1.53357">
        <ele>134.016037</ele>
        <time>2024-07-30T22:41:41.709Z</time>
      </trkpt>
      <trkpt lat="48.10657" lon="1.53393">
        <ele>133.963468</ele>
        <time>2024-07-30T22:41:46.395Z</time>
      </trkpt>
      <trkpt lat="48.1065" lon="1.53412">
        <ele>133.94035</ele>
        <time>2024-07-30T22:41:48.344Z</time>
      </trkpt>
      <trkpt lat="48.10641" lon="1.5346">
        <ele>133.88775</ele>
        <time>2024-07-30T22:41:52.765Z</time>
      </trkpt>
      <trkpt lat="48.10589" lon="1.54081">
        <ele>132.421806</ele>
        <time>2024-07-30T22:42:49.329Z</time>
      </trkpt>
      <trkpt lat="48.1058" lon="1.5417">
        <ele>132.309402</ele>
        <time>2024-07-30T22:42:57.488Z</time>
      </trkpt>
      <trkpt lat="48.10556" lon="1.54325">
        <ele>132.111011</ele>
        <time>2024-07-30T22:43:12.651Z</time>
      </trkpt>
      <trkpt lat="48.10497" lon="1.54724">
        <ele>132.540002</ele>
        <time>2024-07-30T22:43:55.683Z</time>
      </trkpt>
      <trkpt lat="48.10468" lon="1.54899">
        <ele>132.765373</ele>
        <time>2024-07-30T22:44:13.702Z</time>
      </trkpt>
      <trkpt lat="48.10459" lon="1.54941">
        <ele>132.864017</ele>
        <time>2024-07-30T22:44:18.194Z</time>
      </trkpt>
      <trkpt lat="48.10411" lon="1.55095">
        <ele>133.242051</ele>
        <time>2024-07-30T22:44:36.646Z</time>
      </trkpt>
      <trkpt lat="48.10374" lon="1.55208">
        <ele>133.876121</ele>
        <time>2024-07-30T22:44:52.036Z</time>
      </trkpt>
      <trkpt lat="48.10327" lon="1.55349">
        <ele>134.741666</ele>
        <time>2024-07-30T22:45:11.462Z</time>
      </trkpt>
      <trkpt lat="48.10293" lon="1.55468">
        <ele>135.220167</ele>
        <time>2024-07-30T22:45:26.743Z</time>
      </trkpt>
      <trkpt lat="48.10268" lon="1.55592">
        <ele>135.688527</ele>
        <time>2024-07-30T22:45:40.953Z</time>
      </trkpt>
      <trkpt lat="48.10212" lon="1.55908">
        <ele>135.937572</ele>
        <time>2024-07-30T22:46:14.141Z</time>
      </trkpt>
      <trkpt lat="48.10205" lon="1.55973">
        <ele>135.898387</ele>
        <time>2024-07-30T22:46:20.615Z</time>
      </trkpt>
      <trkpt lat="48.102" lon="1.56059">
        <ele>135.846706</ele>
        <time>2024-07-30T22:46:29.049Z</time>
      </trkpt>
      <trkpt lat="48.10198" lon="1.56119">
        <ele>135.811142</ele>
        <time>2024-07-30T22:46:34.794Z</time>
      </trkpt>
      <trkpt lat="48.10195" lon="1.56353">
        <ele>135.193394</ele>
        <time>2024-07-30T22:46:56.072Z</time>
      </trkpt>
      <trkpt lat="48.10206" lon="1.56556">
        <ele>134.321853</ele>
        <time>2024-07-30T22:47:13.462Z</time>
      </trkpt>
      <trkpt lat="48.10195" lon="1.56715">
        <ele>133.599276</ele>
        <time>2024-07-30T22:47:26.879Z</time>
      </trkpt>
      <trkpt lat="48.10193" lon="1.56762">
        <ele>133.415502</ele>
        <time>2024-07-30T22:47:30.845Z</time>
      </trkpt>
      <trkpt lat="48.102" lon="1.56994">
        <ele>132.67234</ele>
        <time>2024-07-30T22:47:51.377Z</time>
      </trkpt>
      <trkpt lat="48.10204" lon="1.57098">
        <ele>132.586399</ele>
        <time>2024-07-30T22:48:01.261Z</time>
      </trkpt>
      <trkpt lat="48.10221" lon="1.57569">
        <ele>132.80852</ele>
        <time>2024-07-30T22:48:49.711Z</time>
      </trkpt>
      <trkpt lat="48.10226" lon="1.57975">
        <ele>133.287153</ele>
        <time>2024-07-30T22:49:31.617Z</time>
      </trkpt>
      <trkpt lat="48.10235" lon="1.58586">
        <ele>134.775824</ele>
        <time>2024-07-30T22:50:38.956Z</time>
      </trkpt>
      <trkpt lat="48.10239" lon="1.58824">
        <ele>134.849585</ele>
        <time>2024-07-30T22:51:02.683Z</time>
      </trkpt>
      <trkpt lat="48.10239" lon="1.58848">
        <ele>134.761046</ele>
        <time>2024-07-30T22:51:04.852Z</time>
      </trkpt>
      <trkpt lat="48.10241" lon="1.59052">
        <ele>133.997864</ele>
        <time>2024-07-30T22:51:22.541Z</time>
      </trkpt>
      <trkpt lat="48.10243" lon="1.59213">
        <ele>133.486668</ele>
        <time>2024-07-30T22:51:36.094Z</time>
      </trkpt>
      <trkpt lat="48.10246" lon="1.59289">
        <ele>133.25999</ele>
        <time>2024-07-30T22:51:43.004Z</time>
      </trkpt>
      <trkpt lat="48.10249" lon="1.59319">
        <ele>133.166938</ele>
        <time>2024-07-30T22:51:45.990Z</time>
      </trkpt>
      <trkpt lat="48.10261" lon="1.59394">
        <ele>133.059824</ele>
        <time>2024-07-30T22:51:53.658Z</time>
      </trkpt>
      <trkpt lat="48.10317" lon="1.59631">
        <ele>133.167626</ele>
        <time>2024-07-30T22:52:19.423Z</time>
      </trkpt>
      <trkpt lat="48.10321" lon="1.59647">
        <ele>133.143461</ele>
        <time>2024-07-30T22:52:21.196Z</time>
      </trkpt>
      <trkpt lat="48.10324" lon="1.59659">
        <ele>133.127524</ele>
        <time>2024-07-30T22:52:22.300Z</time>
      </trkpt>
      <trkpt lat="48.10404" lon="1.59995">
        <ele>132.576843</ele>
        <time>2024-07-30T22:52:55.413Z</time>
      </trkpt>
      <trkpt lat="48.10414" lon="1.60053">
        <ele>132.465893</ele>
        <time>2024-07-30T22:53:00.940Z</time>
      </trkpt>
      <trkpt lat="48.10414" lon="1.60115">
        <ele>132.352527</ele>
        <time>2024-07-30T22:53:06.595Z</time>
      </trkpt>
      <trkpt lat="48.10411" lon="1.6018">
        <ele>132.199665</ele>
        <time>2024-07-30T22:53:12.636Z</time>
      </trkpt>
      <trkpt lat="48.10357" lon="1.61069">
        <ele>130.236503</ele>
        <time>2024-07-30T22:54:33.649Z</time>
      </trkpt>
      <trkpt lat="48.10352" lon="1.61151">
        <ele>130.176662</ele>
        <time>2024-07-30T22:54:42.033Z</time>
      </trkpt>
      <trkpt lat="48.10341" lon="1.61226">
        <ele>130.186901</ele>
        <time>2024-07-30T22:54:49.912Z</time>
      </trkpt>
      <trkpt lat="48.10327" lon="1.613">
        <ele>130.327131</ele>
        <time>2024-07-30T22:54:58.144Z</time>
      </trkpt>
      <trkpt lat="48.10258" lon="1.61585">
        <ele>130.981369</ele>
        <time>2024-07-30T22:55:30.561Z</time>
      </trkpt>
      <trkpt lat="48.10239" lon="1.61662">
        <ele>131.192721</ele>
        <time>2024-07-30T22:55:39.694Z</time>
      </trkpt>
      <trkpt lat="48.10199" lon="1.61827">
        <ele>131.692329</ele>
        <time>2024-07-30T22:55:59.601Z</time>
      </trkpt>
      <trkpt lat="48.1019" lon="1.61875">
        <ele>131.840129</ele>
        <time>2024-07-30T22:56:05.152Z</time>
      </trkpt>
      <trkpt lat="48.10186" lon="1.61916">
        <ele>131.963824</ele>
        <time>2024-07-30T22:56:09.735Z</time>
      </trkpt>
      <trkpt lat="48.10185" lon="1.61986">
        <ele>132.127554</ele>
        <time>2024-07-30T22:56:17.190Z</time>
      </trkpt>
      <trkpt lat="48.1019" lon="1.6235">
        <ele>132.225141</ele>
        <time>2024-07-30T22:56:53.360Z</time>
      </trkpt>
      <trkpt lat="48.10186" lon="1.62479">
        <ele>132.253411</ele>
        <time>2024-07-30T22:57:06.289Z</time>
      </trkpt>
      <trkpt lat="48.10176" lon="1.62551">
        <ele>132.206206</ele>
        <time>2024-07-30T22:57:13.604Z</time>
      </trkpt>
      <trkpt lat="48.10093" lon="1.63031">
        <ele>131.563521</ele>
        <time>2024-07-30T22:58:00.096Z</time>
      </trkpt>
      <trkpt lat="48.10081" lon="1.63127">
        <ele>131.714533</ele>
        <time>2024-07-30T22:58:09.756Z</time>
      </trkpt>
      <trkpt lat="48.10022" lon="1.64146">
        <ele>133.367529</ele>
        <time>2024-07-30T22:59:58.461Z</time>
      </trkpt>
      <trkpt lat="48.10021" lon="1.64159">
        <ele>133.388957</ele>
        <time>2024-07-30T22:59:59.739Z</time>
      </trkpt>
      <trkpt lat="48.10019" lon="1.64202">
        <ele>133.459952</ele>
        <time>2024-07-30T23:00:03.979Z</time>
      </trkpt>
      <trkpt lat="48.10014" lon="1.64318">
        <ele>133.655026</ele>
        <time>2024-07-30T23:00:16.248Z</time>
      </trkpt>
      <trkpt lat="48.10016" lon="1.64354">
        <ele>133.71445</ele>
        <time>2024-07-30T23:00:20.178Z</time>
      </trkpt>
      <trkpt lat="48.10041" lon="1.64427">
        <ele>133.909437</ele>
        <time>2024-07-30T23:00:29.132Z</time>
      </trkpt>
      <trkpt lat="48.10051" lon="1.64474">
        <ele>134.037721</ele>
        <time>2024-07-30T23:00:34.616Z</time>
      </trkpt>
      <trkpt lat="48.10067" lon="1.64587">
        <ele>134.333217</ele>
        <time>2024-07-30T23:00:47.460Z</time>
      </trkpt>
      <trkpt lat="48.10062" lon="1.64596">
        <ele>134.363608</ele>
        <time>2024-07-30T23:00:48.845Z</time>
      </trkpt>
      <trkpt lat="48.10046" lon="1.64627">
        <ele>134.430107</ele>
        <time>2024-07-30T23:00:53.034Z</time>
      </trkpt>
      <trkpt lat="48.10034" lon="1.64653">
        <ele>134.421916</ele>
        <time>2024-07-30T23:00:56.482Z</time>
      </trkpt>
      <trkpt lat="48.0999" lon="1.64743">
        <ele>134.393216</ele>
        <time>2024-07-30T23:01:07.666Z</time>
      </trkpt>
      <trkpt lat="48.0993" lon="1.64867">
        <ele>134.28407</ele>
        <time>2024-07-30T23:01:21.589Z</time>
      </trkpt>
      <trkpt lat="48.09851" lon="1.65019">
        <ele>133.88884</ele>
        <time>2024-07-30T23:01:39.134Z</time>
      </trkpt>
      <trkpt lat="48.09805" lon="1.65098">
        <ele>133.844506</ele>
        <time>2024-07-30T23:01:49.049Z</time>
      </trkpt>
      <trkpt lat="48.09613" lon="1.65391">
        <ele>134.073264</ele>
        <time>2024-07-30T23:02:31.675Z</time>
      </trkpt>
      <trkpt lat="48.0932" lon="1.65869">
        <ele>133.467409</ele>
        <time>2024-07-30T23:03:33.356Z</time>
      </trkpt>
      <trkpt lat="48.09291" lon="1.65928">
        <ele>133.34638</ele>
        <time>2024-07-30T23:03:40.228Z</time>
      </trkpt>
      <trkpt lat="48.09279" lon="1.65963">
        <ele>133.282341</ele>
        <time>2024-07-30T23:03:43.898Z</time>
      </trkpt>
      <trkpt lat="48.09278" lon="1.65966">
        <ele>133.275841</ele>
        <time>2024-07-30T23:03:44.261Z</time>
      </trkpt>
      <trkpt lat="48.09223" lon="1.66124">
        <ele>132.833932</ele>
        <time>2024-07-30T23:04:00.666Z</time>
      </trkpt>
      <trkpt lat="48.09207" lon="1.66157">
        <ele>132.68701</ele>
        <time>2024-07-30T23:04:04.191Z</time>
      </trkpt>
      <trkpt lat="48.09181" lon="1.66201">
        <ele>132.472081</ele>
        <time>2024-07-30T23:04:09.283Z</time>
      </trkpt>
      <trkpt lat="48.09171" lon="1.66268">
        <ele>132.219048</ele>
        <time>2024-07-30T23:04:15.235Z</time>
      </trkpt>
      <trkpt lat="48.0916" lon="1.66297">
        <ele>132.081437</ele>
        <time>2024-07-30T23:04:18.043Z</time>
      </trkpt>
      <trkpt lat="48.0914" lon="1.66354">
        <ele>131.699643</ele>
        <time>2024-07-30T23:04:23.511Z</time>
      </trkpt>
      <trkpt lat="48.09096" lon="1.66441">
        <ele>131.046772</ele>
        <time>2024-07-30T23:04:32.459Z</time>
      </trkpt>
      <trkpt lat="48.09054" lon="1.66539">
        <ele>130.403183</ele>
        <time>2024-07-30T23:04:42.096Z</time>
      </trkpt>
      <trkpt lat="48.09037" lon="1.66585">
        <ele>130.182012</ele>
        <time>2024-07-30T23:04:46.602Z</time>
      </trkpt>
      <trkpt lat="48.0902" lon="1.66631">
        <ele>129.964008</ele>
        <time>2024-07-30T23:04:51.089Z</time>
      </trkpt>
      <trkpt lat="48.09018" lon="1.66652">
        <ele>129.878807</ele>
        <time>2024-07-30T23:04:52.858Z</time>
      </trkpt>
      <trkpt lat="48.0902" lon="1.66669">
        <ele>129.804702</ele>
        <time>2024-07-30T23:04:54.410Z</time>
      </trkpt>
      <trkpt lat="48.09042" lon="1.66795">
        <ele>129.359587</ele>
        <time>2024-07-30T23:05:05.790Z</time>
      </trkpt>
      <trkpt lat="48.09076" lon="1.67305">
        <ele>129.175871</ele>
        <time>2024-07-30T23:05:55.639Z</time>
      </trkpt>
      <trkpt lat="48.09084" lon="1.67398">
        <ele>129.628462</ele>
        <time>2024-07-30T23:06:06.639Z</time>
      </trkpt>
      <trkpt lat="48.09084" lon="1.67438">
        <ele>129.818575</ele>
        <time>2024-07-30T23:06:11.476Z</time>
      </trkpt>
      <trkpt lat="48.09074" lon="1.67648">
        <ele>130.831747</ele>
        <time>2024-07-30T23:06:37.984Z</time>
      </trkpt>
      <trkpt lat="48.09059" lon="1.67987">
        <ele>132.039215</ele>
        <time>2024-07-30T23:07:16.459Z</time>
      </trkpt>
      <trkpt lat="48.0906" lon="1.68195">
        <ele>132.106975</ele>
        <time>2024-07-30T23:07:37.203Z</time>
      </trkpt>
      <trkpt lat="48.09092" lon="1.68842">
        <ele>130.758681</ele>
        <time>2024-07-30T23:08:36.079Z</time>
      </trkpt>
      <trkpt lat="48.09096" lon="1.68917">
        <ele>130.605519</ele>
        <time>2024-07-30T23:08:43.096Z</time>
      </trkpt>
      <trkpt lat="48.09099" lon="1.68983">
        <ele>130.580399</ele>
        <time>2024-07-30T23:08:49.299Z</time>
      </trkpt>
      <trkpt lat="48.09097" lon="1.69032">
        <ele>130.561487</ele>
        <time>2024-07-30T23:08:54.089Z</time>
      </trkpt>
      <trkpt lat="48.09093" lon="1.69075">
        <ele>130.545208</ele>
        <time>2024-07-30T23:08:58.349Z</time>
      </trkpt>
      <trkpt lat="48.09075" lon="1.69198">
        <ele>130.531915</ele>
        <time>2024-07-30T23:09:11.182Z</time>
      </trkpt>
      <trkpt lat="48.09035" lon="1.69432">
        <ele>130.841064</ele>
        <time>2024-07-30T23:09:36.761Z</time>
      </trkpt>
      <trkpt lat="48.09033" lon="1.69441">
        <ele>130.84536</ele>
        <time>2024-07-30T23:09:37.787Z</time>
      </trkpt>
      <trkpt lat="48.09012" lon="1.69559">
        <ele>130.692006</ele>
        <time>2024-07-30T23:09:49.832Z</time>
      </trkpt>
      <trkpt lat="48.08986" lon="1.69679">
        <ele>130.5344</ele>
        <time>2024-07-30T23:10:01.277Z</time>
      </trkpt>
      <trkpt lat="48.0898" lon="1.69796">
        <ele>130.167193</ele>
        <time>2024-07-30T23:10:11.570Z</time>
      </trkpt>
      <trkpt lat="48.08955" lon="1.70001">
        <ele>129.470767</ele>
        <time>2024-07-30T23:10:29.805Z</time>
      </trkpt>
      <trkpt lat="48.08948" lon="1.70044">
        <ele>129.341425</ele>
        <time>2024-07-30T23:10:33.880Z</time>
      </trkpt>
      <trkpt lat="48.08944" lon="1.70064">
        <ele>129.281808</ele>
        <time>2024-07-30T23:10:35.759Z</time>
      </trkpt>
      <trkpt lat="48.08908" lon="1.70262">
        <ele>128.65859</ele>
        <time>2024-07-30T23:10:54.255Z</time>
      </trkpt>
      <trkpt lat="48.0889" lon="1.70339">
        <ele>128.361152</ele>
        <time>2024-07-30T23:11:01.517Z</time>
      </trkpt>
      <trkpt lat="48.08867" lon="1.70422">
        <ele>128.035065</ele>
        <time>2024-07-30T23:11:09.340Z</time>
      </trkpt>
      <trkpt lat="48.08851" lon="1.70467">
        <ele>127.849233</ele>
        <time>2024-07-30T23:11:13.724Z</time>
      </trkpt>
      <trkpt lat="48.08731" lon="1.70819">
        <ele>126.2983</ele>
        <time>2024-07-30T23:11:47.358Z</time>
      </trkpt>
      <trkpt lat="48.08719" lon="1.70865">
        <ele>126.214597</ele>
        <time>2024-07-30T23:11:51.840Z</time>
      </trkpt>
      <trkpt lat="48.0871" lon="1.70915">
        <ele>126.125156</ele>
        <time>2024-07-30T23:11:56.947Z</time>
      </trkpt>
      <trkpt lat="48.087" lon="1.70986">
        <ele>126.178807</ele>
        <time>2024-07-30T23:12:04.692Z</time>
      </trkpt>
      <trkpt lat="48.08696" lon="1.71026">
        <ele>126.428327</ele>
        <time>2024-07-30T23:12:09.323Z</time>
      </trkpt>
      <trkpt lat="48.08723" lon="1.71359">
        <ele>128.443878</ele>
        <time>2024-07-30T23:12:52.741Z</time>
      </trkpt>
      <trkpt lat="48.08724" lon="1.71389">
        <ele>128.617076</ele>
        <time>2024-07-30T23:12:56.422Z</time>
      </trkpt>
      <trkpt lat="48.08721" lon="1.71424">
        <ele>128.81992</ele>
        <time>2024-07-30T23:13:00.686Z</time>
      </trkpt>
      <trkpt lat="48.08715" lon="1.71459">
        <ele>129.028655</ele>
        <time>2024-07-30T23:13:04.953Z</time>
      </trkpt>
      <trkpt lat="48.0865" lon="1.71723">
        <ele>129.740453</ele>
        <time>2024-07-30T23:13:35.268Z</time>
      </trkpt>
      <trkpt lat="48.08622" lon="1.7182">
        <ele>129.825056</ele>
        <time>2024-07-30T23:13:46.136Z</time>
      </trkpt>
      <trkpt lat="48.08487" lon="1.72208">
        <ele>129.792991</ele>
        <time>2024-07-30T23:14:29.448Z</time>
      </trkpt>
      <trkpt lat="48.0846" lon="1.72292">
        <ele>129.520551</ele>
        <time>2024-07-30T23:14:37.920Z</time>
      </trkpt>
      <trkpt lat="48.08338" lon="1.72733">
        <ele>127.579913</ele>
        <time>2024-07-30T23:15:18.695Z</time>
      </trkpt>
      <trkpt lat="48.0832" lon="1.72807">
        <ele>127.368368</ele>
        <time>2024-07-30T23:15:25.747Z</time>
      </trkpt>
      <trkpt lat="48.08266" lon="1.73146">
        <ele>126.49272</ele>
        <time>2024-07-30T23:15:57.707Z</time>
      </trkpt>
      <trkpt lat="48.08212" lon="1.73381">
        <ele>126.367726</ele>
        <time>2024-07-30T23:16:20.485Z</time>
      </trkpt>
      <trkpt lat="48.08206" lon="1.73412">
        <ele>126.392229</ele>
        <time>2024-07-30T23:16:23.768Z</time>
      </trkpt>
      <trkpt lat="48.08202" lon="1.73474">
        <ele>126.439204</ele>
        <time>2024-07-30T23:16:30.783Z</time>
      </trkpt>
      <trkpt lat="48.08202" lon="1.73477">
        <ele>126.441644</ele>
        <time>2024-07-30T23:16:31.163Z</time>
      </trkpt>
      <trkpt lat="48.08201" lon="1.73527">
        <ele>126.653698</ele>
        <time>2024-07-30T23:16:37.255Z</time>
      </trkpt>
      <trkpt lat="48.082" lon="1.73537">
        <ele>126.734246</ele>
        <time>2024-07-30T23:16:38.585Z</time>
      </trkpt>
      <trkpt lat="48.08199" lon="1.73592">
        <ele>127.152724</ele>
        <time>2024-07-30T23:16:45.658Z</time>
      </trkpt>
      <trkpt lat="48.08199" lon="1.73626">
        <ele>127.410848</ele>
        <time>2024-07-30T23:16:50.107Z</time>
      </trkpt>
      <trkpt lat="48.08199" lon="1.73661">
        <ele>127.678928</ele>
        <time>2024-07-30T23:16:54.964Z</time>
      </trkpt>
      <trkpt lat="48.08204" lon="1.73723">
        <ele>128.162909</ele>
        <time>2024-07-30T23:17:03.550Z</time>
      </trkpt>
      <trkpt lat="48.08211" lon="1.73777">
        <ele>128.546089</ele>
        <time>2024-07-30T23:17:10.861Z</time>
      </trkpt>
      <trkpt lat="48.08227" lon="1.73933">
        <ele>129.048963</ele>
        <time>2024-07-30T23:17:30.376Z</time>
      </trkpt>
      <trkpt lat="48.08226" lon="1.73941">
        <ele>129.074066</ele>
        <time>2024-07-30T23:17:31.200Z</time>
      </trkpt>
      <trkpt lat="48.08197" lon="1.7399">
        <ele>129.282817</ele>
        <time>2024-07-30T23:17:37.636Z</time>
      </trkpt>
      <trkpt lat="48.08178" lon="1.74043">
        <ele>129.156821</ele>
        <time>2024-07-30T23:17:42.884Z</time>
      </trkpt>
      <trkpt lat="48.08156" lon="1.74087">
        <ele>128.75972</ele>
        <time>2024-07-30T23:17:47.485Z</time>
      </trkpt>
      <trkpt lat="48.08155" lon="1.74097">
        <ele>128.686047</ele>
        <time>2024-07-30T23:17:48.326Z</time>
      </trkpt>
      <trkpt lat="48.08141" lon="1.7412">
        <ele>128.464222</ele>
        <time>2024-07-30T23:17:50.787Z</time>
      </trkpt>
      <trkpt lat="48.08102" lon="1.74215">
        <ele>127.651102</ele>
        <time>2024-07-30T23:17:59.516Z</time>
      </trkpt>
      <trkpt lat="48.0808" lon="1.74247">
        <ele>127.284513</ele>
        <time>2024-07-30T23:18:02.974Z</time>
      </trkpt>
      <trkpt lat="48.08056" lon="1.74277">
        <ele>126.806093</ele>
        <time>2024-07-30T23:18:06.551Z</time>
      </trkpt>
      <trkpt lat="48.07972" lon="1.74361">
        <ele>125.287659</ele>
        <time>2024-07-30T23:18:17.994Z</time>
      </trkpt>
      <trkpt lat="48.0792" lon="1.74428">
        <ele>124.395018</ele>
        <time>2024-07-30T23:18:26.133Z</time>
      </trkpt>
      <trkpt lat="48.0779" lon="1.74604">
        <ele>122.739068</ele>
        <time>2024-07-30T23:18:47.804Z</time>
      </trkpt>
      <trkpt lat="48.07627" lon="1.74785">
        <ele>121.897442</ele>
        <time>2024-07-30T23:19:14.761Z</time>
      </trkpt>
      <trkpt lat="48.07567" lon="1.74855">
        <ele>121.937523</ele>
        <time>2024-07-30T23:19:26.010Z</time>
      </trkpt>
      <trkpt lat="48.07531" lon="1.74902">
        <ele>121.962732</ele>
        <time>2024-07-30T23:19:33.635Z</time>
      </trkpt>
      <trkpt lat="48.07516" lon="1.74929">
        <ele>122.136004</ele>
        <time>2024-07-30T23:19:37.666Z</time>
      </trkpt>
      <trkpt lat="48.07504" lon="1.74958">
        <ele>122.380758</ele>
        <time>2024-07-30T23:19:41.932Z</time>
      </trkpt>
      <trkpt lat="48.07463" lon="1.75092">
        <ele>123.413908</ele>
        <time>2024-07-30T23:20:01.207Z</time>
      </trkpt>
      <trkpt lat="48.07459" lon="1.75102">
        <ele>123.49858</ele>
        <time>2024-07-30T23:20:02.880Z</time>
      </trkpt>
      <trkpt lat="48.07437" lon="1.75156">
        <ele>123.936444</ele>
        <time>2024-07-30T23:20:11.456Z</time>
      </trkpt>
      <trkpt lat="48.07378" lon="1.75279">
        <ele>124.900794</ele>
        <time>2024-07-30T23:20:31.179Z</time>
      </trkpt>
      <trkpt lat="48.07288" lon="1.7552">
        <ele>126.167868</ele>
        <time>2024-07-30T23:21:02.698Z</time>
      </trkpt>
      <trkpt lat="48.07186" lon="1.75761">
        <ele>127.063773</ele>
        <time>2024-07-30T23:21:34.520Z</time>
      </trkpt>
      <trkpt lat="48.07153" lon="1.75826">
        <ele>127.30479</ele>
        <time>2024-07-30T23:21:43.568Z</time>
      </trkpt>
      <trkpt lat="48.07049" lon="1.76016">
        <ele>127.527339</ele>
        <time>2024-07-30T23:22:08.642Z</time>
      </trkpt>
      <trkpt lat="48.07011" lon="1.76076">
        <ele>127.587433</ele>
        <time>2024-07-30T23:22:16.690Z</time>
      </trkpt>
      <trkpt lat="48.0679" lon="1.76405">
        <ele>128.083658</ele>
        <time>2024-07-30T23:23:04.913Z</time>
      </trkpt>
      <trkpt lat="48.06746" lon="1.7647">
        <ele>128.321823</ele>
        <time>2024-07-30T23:23:15.117Z</time>
      </trkpt>
      <trkpt lat="48.0662" lon="1.76656">
        <ele>128.839696</ele>
        <time>2024-07-30T23:23:44.497Z</time>
      </trkpt>
      <trkpt lat="48.06568" lon="1.7673">
        <ele>128.815267</ele>
        <time>2024-07-30T23:23:55.187Z</time>
      </trkpt>
      <trkpt lat="48.06471" lon="1.76843">
        <ele>128.382633</ele>
        <time>2024-07-30T23:24:11.603Z</time>
      </trkpt>
      <trkpt lat="48.06365" lon="1.76955">
        <ele>127.568295</ele>
        <time>2024-07-30T23:24:28.060Z</time>
      </trkpt>
      <trkpt lat="48.06299" lon="1.77037">
        <ele>127.139397</ele>
        <time>2024-07-30T23:24:39.178Z</time>
      </trkpt>
      <trkpt lat="48.06257" lon="1.77096">
        <ele>126.851553</ele>
        <time>2024-07-30T23:24:46.734Z</time>
      </trkpt>
      <trkpt lat="48.06206" lon="1.77173">
        <ele>126.882281</ele>
        <time>2024-07-30T23:24:57.069Z</time>
      </trkpt>
      <trkpt lat="48.06156" lon="1.77268">
        <ele>127.11046</ele>
        <time>2024-07-30T23:25:10.406Z</time>
      </trkpt>
      <trkpt lat="48.06092" lon="1.77385">
        <ele>127.559404</ele>
        <time>2024-07-30T23:25:28.020Z</time>
      </trkpt>
      <trkpt lat="48.06061" lon="1.77446">
        <ele>127.8606</ele>
        <time>2024-07-30T23:25:37.044Z</time>
      </trkpt>
      <trkpt lat="48.06038" lon="1.77498">
        <ele>128.107878</ele>
        <time>2024-07-30T23:25:44.477Z</time>
      </trkpt>
      <trkpt lat="48.06019" lon="1.77549">
        <ele>128.322112</ele>
        <time>2024-07-30T23:25:51.079Z</time>
      </trkpt>
      <trkpt lat="48.05987" lon="1.77643">
        <ele>128.472711</ele>
        <time>2024-07-30T23:26:02.239Z</time>
      </trkpt>
      <trkpt lat="48.05925" lon="1.77829">
        <ele>128.745885</ele>
        <time>2024-07-30T23:26:23.333Z</time>
      </trkpt>
      <trkpt lat="48.05915" lon="1.7786">
        <ele>128.779379</ele>
        <time>2024-07-30T23:26:26.856Z</time>
      </trkpt>
      <trkpt lat="48.05858" lon="1.78002">
        <ele>128.940321</ele>
        <time>2024-07-30T23:26:43.879Z</time>
      </trkpt>
      <trkpt lat="48.05812" lon="1.78104">
        <ele>129.199128</ele>
        <time>2024-07-30T23:26:56.765Z</time>
      </trkpt>
      <trkpt lat="48.05674" lon="1.78377">
        <ele>130.065294</ele>
        <time>2024-07-30T23:27:34.777Z</time>
      </trkpt>
      <trkpt lat="48.05609" lon="1.78515">
        <ele>130.470184</ele>
        <time>2024-07-30T23:27:53.169Z</time>
      </trkpt>
      <trkpt lat="48.05593" lon="1.78552">
        <ele>130.558084</ele>
        <time>2024-07-30T23:27:57.821Z</time>
      </trkpt>
      <trkpt lat="48.05532" lon="1.78686">
        <ele>130.87338</ele>
        <time>2024-07-30T23:28:14.837Z</time>
      </trkpt>
      <trkpt lat="48.05528" lon="1.78703">
        <ele>130.895357</ele>
        <time>2024-07-30T23:28:16.862Z</time>
      </trkpt>
      <trkpt lat="48.05512" lon="1.78754">
        <ele>130.961524</ele>
        <time>2024-07-30T23:28:22.910Z</time>
      </trkpt>
      <trkpt lat="48.05482" lon="1.78809">
        <ele>131.044784</ele>
        <time>2024-07-30T23:28:30.409Z</time>
      </trkpt>
      <trkpt lat="48.05452" lon="1.78847">
        <ele>131.11349</ele>
        <time>2024-07-30T23:28:36.498Z</time>
      </trkpt>
      <trkpt lat="48.05427" lon="1.78871">
        <ele>131.165831</ele>
        <time>2024-07-30T23:28:40.936Z</time>
      </trkpt>
      <trkpt lat="48.05418" lon="1.78893">
        <ele>131.14596</ele>
        <time>2024-07-30T23:28:43.439Z</time>
      </trkpt>
      <trkpt lat="48.05401" lon="1.78958">
        <ele>131.0466</ele>
        <time>2024-07-30T23:28:50.249Z</time>
      </trkpt>
      <trkpt lat="48.05374" lon="1.79024">
        <ele>130.937491</ele>
        <time>2024-07-30T23:28:57.692Z</time>
      </trkpt>
      <trkpt lat="48.05322" lon="1.79112">
        <ele>130.720118</ele>
        <time>2024-07-30T23:29:08.381Z</time>
      </trkpt>
      <trkpt lat="48.05301" lon="1.79148">
        <ele>130.495184</ele>
        <time>2024-07-30T23:29:12.492Z</time>
      </trkpt>
      <trkpt lat="48.05278" lon="1.79184">
        <ele>130.260555</ele>
        <time>2024-07-30T23:29:16.693Z</time>
      </trkpt>
      <trkpt lat="48.05247" lon="1.79154">
        <ele>129.994148</ele>
        <time>2024-07-30T23:29:21.459Z</time>
      </trkpt>
      <trkpt lat="48.05223" lon="1.79144">
        <ele>129.822216</ele>
        <time>2024-07-30T23:29:24.488Z</time>
      </trkpt>
      <trkpt lat="48.05141" lon="1.79149">
        <ele>129.180747</ele>
        <time>2024-07-30T23:29:34.755Z</time>
      </trkpt>
      <trkpt lat="48.05133" lon="1.79152">
        <ele>129.115294</ele>
        <time>2024-07-30T23:29:35.716Z</time>
      </trkpt>
      <trkpt lat="48.05116" lon="1.79167">
        <ele>128.950253</ele>
        <time>2024-07-30T23:29:38.083Z</time>
      </trkpt>
      <trkpt lat="48.05109" lon="1.79177">
        <ele>128.861399</ele>
        <time>2024-07-30T23:29:39.378Z</time>
      </trkpt>
      <trkpt lat="48.05067" lon="1.79242">
        <ele>128.352092</ele>
        <time>2024-07-30T23:29:46.730Z</time>
      </trkpt>
      <trkpt lat="48.04976" lon="1.79371">
        <ele>127.736409</ele>
        <time>2024-07-30T23:30:03.195Z</time>
      </trkpt>
      <trkpt lat="48.04875" lon="1.79514">
        <ele>127.441612</ele>
        <time>2024-07-30T23:30:23.192Z</time>
      </trkpt>
      <trkpt lat="48.0477" lon="1.7963">
        <ele>127.447957</ele>
        <time>2024-07-30T23:30:42.911Z</time>
      </trkpt>
      <trkpt lat="48.04485" lon="1.79946">
        <ele>126.986784</ele>
        <time>2024-07-30T23:31:33.944Z</time>
      </trkpt>
      <trkpt lat="48.04262" lon="1.80158">
        <ele>126.582758</ele>
        <time>2024-07-30T23:32:10.997Z</time>
      </trkpt>
      <trkpt lat="48.04052" lon="1.80358">
        <ele>126.519096</ele>
        <time>2024-07-30T23:32:47.982Z</time>
      </trkpt>
      <trkpt lat="48.04022" lon="1.80383">
        <ele>126.523794</ele>
        <time>2024-07-30T23:32:53.225Z</time>
      </trkpt>
      <trkpt lat="48.03997" lon="1.80393">
        <ele>126.533114</ele>
        <time>2024-07-30T23:32:57.047Z</time>
      </trkpt>
      <trkpt lat="48.03947" lon="1.80402">
        <ele>126.554397</ele>
        <time>2024-07-30T23:33:04.755Z</time>
      </trkpt>
      <trkpt lat="48.03916" lon="1.80402">
        <ele>126.567681</ele>
        <time>2024-07-30T23:33:09.546Z</time>
      </trkpt>
      <trkpt lat="48.03864" lon="1.80388">
        <ele>126.589794</ele>
        <time>2024-07-30T23:33:17.405Z</time>
      </trkpt>
      <trkpt lat="48.03783" lon="1.80348">
        <ele>126.59594</ele>
        <time>2024-07-30T23:33:30.030Z</time>
      </trkpt>
      <trkpt lat="48.03735" lon="1.80334">
        <ele>126.592632</ele>
        <time>2024-07-30T23:33:37.448Z</time>
      </trkpt>
      <trkpt lat="48.03702" lon="1.80314">
        <ele>126.59029</ele>
        <time>2024-07-30T23:33:42.630Z</time>
      </trkpt>
      <trkpt lat="48.03647" lon="1.80269">
        <ele>126.586969</ele>
        <time>2024-07-30T23:33:51.808Z</time>
      </trkpt>
      <trkpt lat="48.03564" lon="1.80225">
        <ele>126.583939</ele>
        <time>2024-07-30T23:34:04.558Z</time>
      </trkpt>
      <trkpt lat="48.03528" lon="1.80193">
        <ele>126.582449</ele>
        <time>2024-07-30T23:34:11.073Z</time>
      </trkpt>
      <trkpt lat="48.03502" lon="1.8017">
        <ele>126.596829</ele>
        <time>2024-07-30T23:34:15.472Z</time>
      </trkpt>
      <trkpt lat="48.03484" lon="1.80159">
        <ele>126.632377</ele>
        <time>2024-07-30T23:34:18.399Z</time>
      </trkpt>
      <trkpt lat="48.03454" lon="1.80151">
        <ele>126.688743</ele>
        <time>2024-07-30T23:34:22.995Z</time>
      </trkpt>
      <trkpt lat="48.02987" lon="1.80059">
        <ele>127.572065</ele>
        <time>2024-07-30T23:35:36.621Z</time>
      </trkpt>
      <trkpt lat="48.02802" lon="1.80023">
        <ele>127.545183</ele>
        <time>2024-07-30T23:36:05.176Z</time>
      </trkpt>
      <trkpt lat="48.02366" lon="1.79898">
        <ele>123.836864</ele>
        <time>2024-07-30T23:36:59.786Z</time>
      </trkpt>
      <trkpt lat="48.02295" lon="1.79878">
        <ele>123.43707</ele>
        <time>2024-07-30T23:37:09.439Z</time>
      </trkpt>
      <trkpt lat="48.02118" lon="1.79827">
        <ele>123.618301</ele>
        <time>2024-07-30T23:37:36.868Z</time>
      </trkpt>
      <trkpt lat="48.01989" lon="1.7979">
        <ele>124.475933</ele>
        <time>2024-07-30T23:38:00.422Z</time>
      </trkpt>
      <trkpt lat="48.01966" lon="1.79776">
        <ele>124.672309</ele>
        <time>2024-07-30T23:38:05.233Z</time>
      </trkpt>
      <trkpt lat="48.01897" lon="1.79661">
        <ele>125.281577</ele>
        <time>2024-07-30T23:38:23.720Z</time>
      </trkpt>
      <trkpt lat="48.01881" lon="1.7963">
        <ele>125.390424</ele>
        <time>2024-07-30T23:38:28.050Z</time>
      </trkpt>
      <trkpt lat="48.01873" lon="1.79634">
        <ele>125.424858</ele>
        <time>2024-07-30T23:38:29.257Z</time>
      </trkpt>
      <trkpt lat="48.01855" lon="1.79641">
        <ele>125.502396</ele>
        <time>2024-07-30T23:38:32.313Z</time>
      </trkpt>
      <trkpt lat="48.01841" lon="1.79653">
        <ele>125.57092</ele>
        <time>2024-07-30T23:38:34.925Z</time>
      </trkpt>
      <trkpt lat="48.01834" lon="1.79659">
        <ele>125.603883</ele>
        <time>2024-07-30T23:38:36.227Z</time>
      </trkpt>
      <trkpt lat="48.0176" lon="1.79734">
        <ele>125.922444</ele>
        <time>2024-07-30T23:38:50.018Z</time>
      </trkpt>
      <trkpt lat="48.01736" lon="1.79757">
        <ele>125.998588</ele>
        <time>2024-07-30T23:38:54.098Z</time>
      </trkpt>
      <trkpt lat="48.01641" lon="1.79856">
        <ele>126.315752</ele>
        <time>2024-07-30T23:39:13.022Z</time>
      </trkpt>
      <trkpt lat="48.0152" lon="1.79996">
        <ele>126.890921</ele>
        <time>2024-07-30T23:39:39.161Z</time>
      </trkpt>
      <trkpt lat="48.01488" lon="1.8003">
        <ele>126.855494</ele>
        <time>2024-07-30T23:39:44.806Z</time>
      </trkpt>
      <trkpt lat="48.01449" lon="1.80084">
        <ele>126.486451</ele>
        <time>2024-07-30T23:39:51.940Z</time>
      </trkpt>
      <trkpt lat="48.01101" lon="1.80746">
        <ele>122.499968</ele>
        <time>2024-07-30T23:41:03.099Z</time>
      </trkpt>
      <trkpt lat="48.01062" lon="1.80821">
        <ele>122.001125</ele>
        <time>2024-07-30T23:41:11.230Z</time>
      </trkpt>
      <trkpt lat="48.01021" lon="1.80899">
        <ele>121.45366</ele>
        <time>2024-07-30T23:41:19.523Z</time>
      </trkpt>
      <trkpt lat="48.00855" lon="1.81218">
        <ele>119.465393</ele>
        <time>2024-07-30T23:41:53.170Z</time>
      </trkpt>
      <trkpt lat="48.00686" lon="1.81537">
        <ele>119.20698</ele>
        <time>2024-07-30T23:42:34.185Z</time>
      </trkpt>
      <trkpt lat="48.00464" lon="1.81954">
        <ele>118.808916</ele>
        <time>2024-07-30T23:43:24.894Z</time>
      </trkpt>
      <trkpt lat="48.00463" lon="1.81956">
        <ele>118.809528</ele>
        <time>2024-07-30T23:43:25.043Z</time>
      </trkpt>
      <trkpt lat="48.00399" lon="1.82076">
        <ele>118.868487</ele>
        <time>2024-07-30T23:43:40.572Z</time>
      </trkpt>
      <trkpt lat="48.00389" lon="1.82095">
        <ele>118.877941</ele>
        <time>2024-07-30T23:43:43.197Z</time>
      </trkpt>
      <trkpt lat="48.00366" lon="1.82145">
        <ele>119.053452</ele>
        <time>2024-07-30T23:43:49.962Z</time>
      </trkpt>
      <trkpt lat="48.00339" lon="1.82227">
        <ele>119.44844</ele>
        <time>2024-07-30T23:44:00.262Z</time>
      </trkpt>
      <trkpt lat="48.0019" lon="1.82729">
        <ele>121.402833</ele>
        <time>2024-07-30T23:45:05.332Z</time>
      </trkpt>
      <trkpt lat="48.00153" lon="1.82852">
        <ele>121.538412</ele>
        <time>2024-07-30T23:45:17.732Z</time>
      </trkpt>
      <trkpt lat="48.0014" lon="1.82885">
        <ele>121.436076</ele>
        <time>2024-07-30T23:45:21.017Z</time>
      </trkpt>
      <trkpt lat="48.00126" lon="1.82913">
        <ele>121.340335</ele>
        <time>2024-07-30T23:45:24.086Z</time>
      </trkpt>
      <trkpt lat="48.00111" lon="1.82934">
        <ele>121.260558</ele>
        <time>2024-07-30T23:45:26.606Z</time>
      </trkpt>
      <trkpt lat="48.00025" lon="1.83022">
        <ele>120.844139</ele>
        <time>2024-07-30T23:45:40.517Z</time>
      </trkpt>
      <trkpt lat="47.99975" lon="1.83074">
        <ele>121.110339</ele>
        <time>2024-07-30T23:45:49.961Z</time>
      </trkpt>
      <trkpt lat="47.99837" lon="1.83216">
        <ele>121.94524</ele>
        <time>2024-07-30T23:46:19.840Z</time>
      </trkpt>
      <trkpt lat="47.99789" lon="1.83269">
        <ele>122.29798</ele>
        <time>2024-07-30T23:46:30.498Z</time>
      </trkpt>
      <trkpt lat="47.99611" lon="1.83466">
        <ele>123.135718</ele>
        <time>2024-07-30T23:47:06.209Z</time>
      </trkpt>
      <trkpt lat="47.99546" lon="1.83531">
        <ele>123.274165</ele>
        <time>2024-07-30T23:47:18.338Z</time>
      </trkpt>
      <trkpt lat="47.99479" lon="1.83593">
        <ele>123.361934</ele>
        <time>2024-07-30T23:47:30.480Z</time>
      </trkpt>
      <trkpt lat="47.9946" lon="1.83609">
        <ele>123.38589</ele>
        <time>2024-07-30T23:47:33.760Z</time>
      </trkpt>
      <trkpt lat="47.99313" lon="1.83689">
        <ele>123.566877</ele>
        <time>2024-07-30T23:47:57.128Z</time>
      </trkpt>
      <trkpt lat="47.99277" lon="1.83706">
        <ele>123.611966</ele>
        <time>2024-07-30T23:48:03.085Z</time>
      </trkpt>
      <trkpt lat="47.99257" lon="1.83708">
        <ele>123.635168</ele>
        <time>2024-07-30T23:48:06.189Z</time>
      </trkpt>
      <trkpt lat="47.99196" lon="1.83701">
        <ele>123.703975</ele>
        <time>2024-07-30T23:48:15.747Z</time>
      </trkpt>
      <trkpt lat="47.99124" lon="1.83694">
        <ele>123.786581</ele>
        <time>2024-07-30T23:48:26.892Z</time>
      </trkpt>
      <trkpt lat="47.9912" lon="1.83694">
        <ele>123.790335</ele>
        <time>2024-07-30T23:48:27.380Z</time>
      </trkpt>
      <trkpt lat="47.99114" lon="1.83693">
        <ele>123.797861</ele>
        <time>2024-07-30T23:48:28.343Z</time>
      </trkpt>
      <trkpt lat="47.99105" lon="1.83692">
        <ele>123.807765</ele>
        <time>2024-07-30T23:48:29.612Z</time>
      </trkpt>
      <trkpt lat="47.99091" lon="1.8369">
        <ele>123.82427</ele>
        <time>2024-07-30T23:48:31.762Z</time>
      </trkpt>
      <trkpt lat="47.99077" lon="1.8369">
        <ele>123.837508</ele>
        <time>2024-07-30T23:48:33.882Z</time>
      </trkpt>
      <trkpt lat="47.99065" lon="1.83693">
        <ele>123.837508</ele>
        <time>2024-07-30T23:48:35.645Z</time>
      </trkpt>
      <trkpt lat="47.99052" lon="1.83692">
        <ele>123.837508</ele>
        <time>2024-07-30T23:48:37.540Z</time>
      </trkpt>
      <trkpt lat="47.99044" lon="1.83683">
        <ele>123.837508</ele>
        <time>2024-07-30T23:48:39.186Z</time>
      </trkpt>
      <trkpt lat="47.99041" lon="1.83669">
        <ele>123.837508</ele>
        <time>2024-07-30T23:48:40.651Z</time>
      </trkpt>
      <trkpt lat="47.99034" lon="1.83636">
        <ele>123.837508</ele>
        <time>2024-07-30T23:48:44.115Z</time>
      </trkpt>
      <trkpt lat="47.99025" lon="1.83635">
        <ele>123.837508</ele>
        <time>2024-07-30T23:48:45.377Z</time>
      </trkpt>
      <trkpt lat="47.98997" lon="1.83646">
        <ele>123.837508</ele>
        <time>2024-07-30T23:48:49.613Z</time>
      </trkpt>
      <trkpt lat="47.9898" lon="1.83658">
        <ele>123.837508</ele>
        <time>2024-07-30T23:48:52.146Z</time>
      </trkpt>
      <trkpt lat="47.98984" lon="1.8368">
        <ele>123.837508</ele>
        <time>2024-07-30T23:49:08.450Z</time>
      </trkpt>
      <trkpt lat="47.98994" lon="1.83678">
        <ele>123.837508</ele>
        <time>2024-07-30T23:49:19.669Z</time>
      </trkpt>
    </trkseg>
  </trk>
</gpx>